     2              OBSERVATION DATA    GPS                 RINEX VERSION / TYPE
teqc 2000Jul20 Karen Wendt 20030320 21:28:18UTC             PGM / RUN BY / DATE
                                                            COMMENT
L2: 1 -> 1; 150 -> 5; 250 -> 9                              COMMENT
L2: 1 -> 1; 150 -> 5; 250 -> 9                              COMMENT
L2: 1 -> 1; 150 -> 5; 250 -> 9                              COMMENT
L2: 1 -> 1; 150 -> 5; 250 -> 9                              COMMENT
L2: 1 -> 1; 150 -> 5; 250 -> 9                              COMMENT
L2: 1 -> 1; 150 -> 5; 250 -> 9                              COMMENT
L2: 1 -> 1; 150 -> 5; 250 -> 9                              COMMENT
L2: 1 -> 1; 150 -> 5; 250 -> 9                              COMMENT
L2: 1 -> 1; 150 -> 5; 250 -> 9                              COMMENT
L2: 1 -> 1; 150 -> 5; 250 -> 9                              COMMENT
L2: 1 -> 1; 150 -> 5; 250 -> 9                              COMMENT
L2: 1 -> 1; 150 -> 5; 250 -> 9                              COMMENT
L2: 1 -> 1; 150 -> 5; 250 -> 9                              COMMENT
L2: 1 -> 1; 150 -> 5; 250 -> 9                              COMMENT
Original Marker Name: 33jd 33_JDG_1984_USGS                 COMMENT
Campaign Name: USGS 2003                                    COMMENT
4-Character Station Name: 33JD                              COMMENT
6-Character Antenna Code: DMRCHT                            COMMENT
Vertical Measurement Point: BCR                             COMMENT
Vertical Offset to Rinex Ref. Point: 0.0348                 COMMENT
Radial Measurement Point: ECF                               COMMENT
Radial Offset to Rinex Ref. Point: 0.1897                   COMMENT
Antenna Height from Field Measurement: 1.3470 m             COMMENT
Additional Antenna Identification Info.:                    COMMENT
Turborogue and Ashtech Choke Ring                           COMMENT
Original XYZ: -2621273.4237 -4456375.0267 3723362.7969      COMMENT
New XYZ position is based on association with SCEC monument COMMENT
E1F1N4H1+0011. Position of that monument is believed to be  COMMENT
valid to within 1 m horizontally; vertical accuracy         COMMENT
should be no worse than 3-times this value.                 COMMENT
                                                            COMMENT
Revised Rinex header created by UCSD GPS archive for        COMMENT
GSAC on 11-Jul-2003 (2003:192) 16:31:52 GMT                 COMMENT
For assistance contact dagnew@ucsd.edu                      COMMENT
or anderson@python.ucsd.edu                                 COMMENT
                                                            COMMENT
33JDG 1984                                                  MARKER NAME
CHS US GEOLOGICAL SURVEY                                    OBSERVER / AGENCY
04600 ASHTECH Z-XII3 CD00                                   REC # / TYPE / VERS
CR14333 DORNE-MARGOL. TYPE T                                ANT # / TYPE
 -2621290.0081 -4456347.6576  3723351.1939                  APPROX POSITION XYZ
        1.2988        0.0000        0.0000                  ANTENNA: DELTA H/E/N
     1     1     0                                          WAVELENGTH FACT L1/2
     5    C1    L1    L2    P1    P2                        # / TYPES OF OBSERV
    30                                                      INTERVAL
  2003     3    18    16    13    0.000000                  TIME OF FIRST OBS
  2003     3    18    23    30   30.000000                  TIME OF LAST OBS
                                                            END OF HEADER
 03  3 18 16 13  0.0000000  0  3G 4G 5G 9
  21085989.191       43288.14749     31087.99247  21085989.373
  21085996.119      -10303.19149     -7658.27744                  23938941.780
  21342243.495       56992.83249     41618.89747  21342242.863    21342249.423
 03  3 18 16 13 30.0000000  0  7G29G28G 4G 5G26G 7G 9
                    494987.41349    368586.76043
  23029821.180      442079.99949    317659.54546  23029820.487    23029827.561
  21389045.842       60441.84849     44454.55447  21389046.021    21389052.812
  24237299.418      -17807.62649    -13505.92145  24237298.338    24237306.579
  24422015.864      496561.62549    365114.08845  24422016.280    24422024.932
  21344619.316      370956.63649    266042.64747  21344618.788    21344625.778
  21646532.478       80623.01949     60031.99747  21646532.018    21646538.573
 03  3 18 16 14  0.0000000  0  6G28G 4G 5G26G 7G 9
  22852469.576     -489903.03049   -408561.09646  22852470.034    22852477.024
  21188336.611     -994290.87249   -777415.06447  21188337.090    21188343.879
  24031804.066    -1097698.92949   -854979.66645  24031801.750    24031809.700
  24248657.662     -414457.30949   -344770.91446  24248655.445    24248664.002
  21164615.767     -574967.82349   -471041.40747  21164615.322    21164622.411
  21447053.874     -967644.47949   -756799.83547  21447053.364    21447059.926
 03  3 18 16 14 30.0000000  0  6G28G 4G 5G26G 7G 9
  22864488.828     -426743.85849   -359346.28046  22864488.824    22864496.008
  21177059.016    -1053556.49549   -823596.04747  21177059.227    21177066.021
  24015642.625    -1182623.16449   -921154.39745  24015641.158    24015649.087
  24264641.646     -330455.07249   -279314.74346  24264640.509    24264649.321
  21173985.531     -525730.09949   -432674.40547  21173985.005    21173992.130
  21437003.952    -1020456.67449   -797952.21547  21437003.581    21437010.174
 03  3 18 16 15  0.0000000  0  6G28G 4G 5G26G 7G 9
  22876542.323     -363402.82449   -309989.75246  22876542.160    22876549.461
  21165877.550    -1112315.81849   -869382.50747  21165877.698    21165884.489
  23999482.490    -1267543.27149   -987325.88145  23999481.255    23999489.303
  24280637.337     -246394.95049   -213813.47646  24280636.615    24280645.459
  21183393.311     -476292.37049   -394151.56247  21183392.772    21183399.862
  21427048.053    -1072774.56549   -838719.41947  21427047.784    21427054.435
 03  3 18 16 15 30.0000000  0  6G28G 4G 5G26G 7G 9
  22888630.901     -299877.64349   -260489.72546  22888630.641    22888638.060
  21154793.349    -1170563.99249   -914770.67047  21154793.451    21154800.231
  23983323.968    -1352456.34549  -1053491.91845  23983322.961    23983330.949
  24296644.144     -162277.38849   -148267.43446  24296643.733    24296652.482
  21192839.182     -426654.13349   -355472.48547  21192838.653    21192845.725
  21417187.193    -1124594.08149   -879098.28847  21417186.920    21417193.548
 03  3 18 16 16  0.0000000  0  6G28G 4G 5G26G 7G 9
  22900754.541     -236167.47249   -210845.57946  22900754.288    22900761.892
  21143806.921    -1228298.24849   -959758.38047  21143807.007    21143813.799
  23967166.984    -1437360.92749  -1119651.30645  23967166.027    23967174.368
  24312661.747      -78104.55549    -82678.33445  24312661.454    24312670.134
  21202323.096     -376815.99649   -316637.63247  21202322.567    21202329.648
  21407421.610    -1175912.63549   -919086.79147  21407421.350    21407428.001
 03  3 18 16 16 30.0000000  0  6G28G 4G 5G26G 7G 9
  22912913.692     -172270.98549   -161056.23046  22912913.419    22912920.958
  21132918.881    -1285515.13049  -1004342.93847  21132918.975    21132925.788
  23951012.016    -1522255.29049  -1185802.73845  23951011.229    23951019.452
  24328689.391        6121.54249    -17047.72145  24328689.209    24328697.991
  21211845.081     -326778.25049   -277647.24547  21211844.545    21211851.599
  21397752.014    -1226727.09449   -958682.49947  21397751.745    21397758.411
 03  3 18 16 17  0.0000000  0  6G28G 4G 5G26G 7G 9
  22925108.364     -108189.25149   -111122.53146  22925108.017    22925115.502
  21122129.565    -1342213.41149  -1048523.39847  21122129.664    21122136.434
  23934859.047    -1607139.62849  -1251946.39145  23934858.312    23934866.636
  24344726.568       90396.91049     48621.29645  24344726.456    24344735.229
  21221404.431     -276543.71949   -238503.51047  21221403.878    21221410.967
  21388178.485    -1277036.39649   -997884.57047  21388178.212    21388184.925
 03  3 18 16 17 30.0000000  0  6G28G 4G 5G26G 7G 9
  22937338.472      -43920.15149    -61042.83446  22937338.071    22937345.610
  21111439.720    -1398388.85349  -1092296.46447  21111439.814    21111446.644
  23918708.494    -1692011.21149  -1318080.07445  23918707.754    23918716.383
  24360772.973      174720.67549    114328.03045  24360772.787    24360781.648
  21231001.291     -226111.66349   -199205.86547  21231000.804    21231007.940
  21378701.819    -1326836.75249  -1036690.06147  21378701.573    21378708.326
 03  3 18 16 18  0.0000000  0  7G28G 4G 5G26G 7G 9G24
  22949604.396       20536.87549    -10816.70246  22949604.009    22949611.561
  21100849.824    -1454039.05949  -1135660.26347  21100849.926    21100856.800
  23902560.456    -1776868.93149  -1384202.96445  23902559.901    23902568.616
  24376827.935      259090.31549    180070.52345  24376827.873    24376836.698
  21240635.656     -175483.16249   -159755.14847  21240635.174    21240642.321
  21369322.427    -1376125.64649  -1075097.00747  21369322.246    21369329.012
  22727499.068    -1693527.16649  -1315772.80646  22727498.920    22727508.105
 03  3 18 16 18 30.0000000  0  7G28G 4G 5G26G 7G 9G24
  22961905.765       85180.20749     39554.59246  22961905.344    22961912.966
  21090360.026    -1509163.34849  -1178614.26047  21090360.097    21090366.998
  23886415.281    -1861713.76249  -1450315.82845  23886414.669    23886423.168
  24392890.856      343501.02649    245844.99845  24392890.853    24392899.620
  21250306.740     -124661.51549   -120153.93247  21250306.249    21250313.436
  21360040.475    -1424902.95449  -1113105.31847  21360040.292    21360047.067
  22708793.147    -1791820.89149  -1392365.27046  22708794.119    22708803.370
 03  3 18 16 19  0.0000000  0  7G28G 4G 5G26G 7G 9G24
  22974242.726      150010.53149     90071.59146  22974242.302    22974249.964
  21079970.815    -1563758.95149  -1221156.28247  21079970.900    21079977.847
  23870272.683    -1946544.26649  -1516417.53245  23870271.965    23870280.460
  24408961.282      427950.79649    311649.92645  24408961.257    24408969.841
  21260014.433      -73647.36349    -80402.70747  21260013.978    21260021.140
  21350856.304    -1473165.98049  -1150712.89047  21350856.140    21350862.940
  22690130.719    -1889890.82249  -1468783.35246  22690132.018    22690141.230
 03  3 18 16 19 30.0000000  0  7G28G 4G 5G26G 7G 9G24
  22986615.715      215029.99849    140735.97346  22986615.247    22986622.827
  21069683.000    -1617821.79449  -1263283.16347  21069683.102    21069690.088
  23854133.172    -2031357.68349  -1582505.91545  23854132.548    23854141.123
  24425038.674      512438.52649    377484.43245  24425038.718    24425047.461
  21269758.934      -22440.31249    -40501.17747  21269758.452    21269765.566
  21341770.769    -1520910.88049  -1187916.72947  21341770.630    21341777.443
  22671512.886    -1987732.14349  -1545023.31546  22671513.388    22671522.566
 03  3 18 16 20  0.0000000  0  7G28G 4G 5G26G 7G 9G24
  22999024.696      280239.23349    191548.22846  22999024.297    22999031.899
  21059497.032    -1671349.36749  -1304992.95047  21059497.143    21059504.161
  23837997.170    -2116152.91749  -1648580.11445  23837996.618    23838005.072
  24441123.048      596961.79549    443346.62445  24441123.112    24441131.921
  21279539.885       28958.61549      -450.12747  21279539.372    21279546.570
  21332784.247    -1568135.68849  -1224715.30347  21332784.091    21332790.906
  22652938.755    -2085341.44749  -1621082.46146  22652938.976    22652948.143
 03  3 18 16 20 30.0000000  0  7G28G 4G 5G26G 7G 9G24
  23011469.383      345635.87349    242506.50946  23011468.932    23011476.573
  21049412.916    -1724341.72449  -1346285.68547  21049413.005    21049420.047
  23821864.361    -2200931.29949  -1714641.23045  23821863.817    23821872.115
  24457213.175      681515.26249    509232.33345  24457213.203    24457222.000
  21289356.600       80545.76149     39747.59147  21289356.135    21289363.337
  21323896.641    -1614840.64349  -1261108.80147  21323896.504    21323903.300
  22634408.718    -2182718.09449  -1696960.34046  22634408.804    22634417.997
 03  3 18 16 21  0.0000000  0  7G28G 4G 5G26G 7G 9G24
  23023949.938      411221.03749    293611.67946  23023949.561    23023957.189
  21039431.222    -1776796.02949  -1387159.17047  21039431.285    21039438.331
  23805734.934    -2285691.18949  -1780687.89745  23805734.433    23805742.863
  24473308.657      766096.90449    575140.00445  24473308.731    24473317.492
  21299209.141      132320.39249     80091.40647  21299208.634    21299215.752
  21315108.401    -1661023.22049  -1297095.24347  21315108.287    21315115.091
  22615923.608    -2279858.59149  -1772654.19746  22615923.612    22615932.754
 03  3 18 16 21 30.0000000  0  7G28G 4G 5G26G 7G 9G24
  23036466.319      476994.58849    344863.64846  23036465.936    23036473.598
  21029552.267    -1828710.19949  -1427611.77447  21029552.334    21029559.378
  23789609.356    -2370431.93949  -1846719.65345  23789608.886    23789617.212
  24489408.793      850703.90649    641067.43945  24489408.926    24489417.690
  21309097.037      184281.13749    120580.24147  21309096.499    21309103.667
  21306419.999    -1706681.31149  -1332673.00247  21306419.852    21306426.646
  22597483.911    -2376759.80249  -1848161.61446  22597483.947    22597493.089
 03  3 18 16 22  0.0000000  0  7G28G 4G 5G26G 7G 9G24
  23049018.595      542956.52249    396262.41346  23049018.217    23049025.928
  21019776.422    -1880082.45549  -1467642.10447  21019776.502    21019783.581
  23773487.404    -2455152.94149  -1912736.02445  23773486.947    23773495.420
  24505513.221      935333.12049    707012.18045  24505513.317    24505522.168
  21319019.913      236426.35449    161212.81947  21319019.430    21319026.675
  21297831.664    -1751813.63549  -1367841.06647  21297831.498    21297838.281
  22579090.276    -2473419.15849  -1923480.55946  22579090.311    22579099.419
 03  3 18 16 22 30.0000000  0  7G28G 4G 5G26G 7G 9G24
  23061606.776      609107.69449    447808.61646  23061606.432    23061614.182
  21010104.223    -1930910.02949  -1507248.02147  21010104.387    21010111.401
  23757369.657    -2539852.64749  -1978735.80545  23757369.265    23757377.547
  24521621.490     1019982.39749    772972.58245  24521621.634    24521630.442
  21328977.803      288755.31149    201988.56147  21328977.366    21328984.571
  21289343.863    -1796417.61549  -1402597.44447  21289343.694    21289350.436
  22560743.419    -2569832.89349  -1998608.11446  22560743.403    22560752.453
 03  3 18 16 23  0.0000000  0  7G28G 4G 5G26G 7G 9G24
  23074230.977      675447.42649    499501.75746  23074230.632    23074238.242
  21000536.023    -1981191.58549  -1546428.47447  21000536.181    21000543.141
  23741256.046    -2624530.97549  -2044718.91245  23741255.561    23741263.860
  24537732.943     1104648.09249    838945.72245  24537733.100    24537741.825
  21338970.294      341265.91249    242905.85347  21338969.838    21338977.105
  21280956.791    -1840492.22149  -1436941.31647  21280956.580    21280963.330
  22542443.609    -2665998.95749  -2073542.67946  22542443.611    22542452.699
 03  3 18 16 23 30.0000000  0  7G28G 4G 5G26G 7G 9G24
  23086891.146      741976.09849    551342.13746  23086890.827    23086898.407
  20991072.117    -2030924.90449  -1585181.72547  20991072.293    20991079.244
  23725146.632    -2709186.63549  -2110684.34145  23725146.183    23725154.438
  24553846.896     1189327.75449    904929.74945  24553847.115    24553856.318
  21348997.112      393957.04849    283963.82547  21348996.687    21349004.061
  21272670.843    -1884035.38149  -1470871.07947  21272670.637    21272677.393
  22524191.596    -2761914.22149  -2148281.80546  22524191.517    22524200.605
 03  3 18 16 24  0.0000000  0  7G28G 4G 5G26G 7G 9G24
  23099587.191      808693.42049    603329.51346  23099586.849    23099594.372
  20981712.802    -2080108.39949  -1623506.54647  20981712.992    20981719.983
  23709041.679    -2793819.14849  -2176631.76945  23709041.152    23709049.458
  24569963.167     1274018.01249    970922.09245  24569963.307    24569972.424
  21359058.008      446826.90649    325161.05647  21359057.552    21359064.970
  21264486.218    -1927045.73349  -1504385.66947  21264486.072    21264492.840
  22505987.735    -2857576.14849  -2222823.52346  22505987.629    22505996.772
 03  3 18 16 24 30.0000000  0  7G28G 4G 5G26G 7G 9G24
  23112319.330      875600.13149    655464.46646  23112318.964    23112326.661
  20972458.621    -2128739.52149  -1661400.94747  20972458.839    20972465.829
  23692941.206    -2878427.30549  -2242560.18045  23692940.728    23692949.143
  24586080.905     1358716.71849   1036920.95445  24586080.999    24586089.677
  21369152.712      499874.61349    366496.87747  21369152.254    21369159.643
  21256403.468    -1969520.83449  -1537483.17847  21256403.368    21256410.109
  22487832.711    -2952981.37249  -2297165.21846  22487832.597    22487841.693
 03  3 18 16 25  0.0000000  0  7G28G 4G 5G26G 7G 9G24
  23125087.318      942695.32149    707746.31046  23125086.885    23125094.677
  20963309.805    -2176817.08249  -1698864.00647  20963310.012    20963316.993
  23676845.488    -2963010.97749  -2308469.52445  23676844.981    23676853.533
  24602199.447     1443420.00749   1102923.37745  24602199.641    24602208.474
  21379280.841      553098.03249    407969.60747  21379280.362    21379287.763
  21248422.782    -2011459.79549  -1570162.91547  21248422.653    21248429.412
  22469726.846    -3048128.07349  -2371305.45246  22469726.712    22469735.851
 03  3 18 16 25 30.0000000  0  7G28G 4G 5G26G 7G 9G24
  23137891.126     1009980.47649    760176.14946  23137890.702    23137898.739
  20954266.897    -2224337.98349  -1735893.30347  20954267.113    20954274.116
  23660754.746    -3047567.96649  -2374358.10445  23660754.311    23660762.732
  24618318.598     1528126.48049   1168928.29545  24618319.122    24618327.888
  21389442.497      606497.09949    449579.20447  21389441.957    21389449.402
  21240544.596    -2052859.79549  -1602422.67647  21240544.507    21240551.291
  22451670.986    -3143011.80049  -2445240.76246  22451670.872    22451680.078
 03  3 18 16 26  0.0000000  0  7G28G 4G 5G26G 7G 9G24
  23150731.192     1077455.09649    812753.62946  23150730.802    23150738.915
  20945330.227    -2271300.75749  -1772487.70147  20945330.449    20945337.446
  23644669.249    -3132097.83149  -2440225.53245  23644668.727    23644677.116
  24634437.817     1612832.89949   1234933.16345  24634438.203    24634447.254
  21399637.145      660069.95649    491324.22047  21399636.570    21399644.102
  21232769.307    -2093719.42349  -1634261.37247  21232769.210    21232776.018
  22433665.647    -3237629.81349  -2518969.01146  22433665.616    22433674.842
 03  3 18 16 26 30.0000000  0  7G28G 4G 5G26G 7G 9G24
  23163607.161     1145118.30349    865478.04846  23163606.838    23163614.805
  20936499.965    -2317704.46849  -1808646.45947  20936500.182    20936507.143
  23628589.031    -3216600.48349  -2506071.76445  23628588.468    23628596.737
  24650556.290     1697535.38349   1300934.99645  24650556.536    24650565.796
  21409864.410      713814.47849    533203.00447  21409863.859    21409871.419
  21225096.942    -2134038.20249  -1665678.61847  21225096.821    21225103.661
  22415711.373    -3331980.27449  -2592488.77246  22415711.306    22415720.553
 03  3 18 16 27  0.0000000  0  7G28G 4G 5G26G 7G 9G24
  23176519.147     1212969.82349    918349.19146  23176518.740    23176526.712
  20927776.340    -2363547.68649  -1844368.46247  20927776.522    20927783.491
  23612513.956    -3301075.67749  -2571896.58945  23612513.357    23612521.616
  24666673.221     1782230.81749   1366931.29345  24666673.526    24666683.004
  21420123.969      767728.46649    575213.83247  21420123.387    21420130.927
  21217527.823    -2173814.74749  -1696673.34847  21217527.621    21217534.488
  22397808.359    -3426061.12549  -2665798.44746  22397808.230    22397817.501
 03  3 18 16 27 30.0000000  0  7G28G 4G 5G26G 7G 9G24
  23189466.939     1281010.84049    971367.99045  23189466.546    23189474.828
  20919159.843    -2408827.52249  -1879651.47747  20919160.057    20919167.049
  23596444.507    -3385521.26749  -2637698.36545  23596443.942    23596452.107
  24682788.616     1866917.47349   1432920.73845  24682788.990    24682798.524
  21430415.805      821812.06549    617356.84147  21430415.212    21430422.840
  21210062.291    -2213046.21349  -1727243.34447  21210062.090    21210068.985
  22379957.435    -3519867.86349  -2738894.53346  22379957.378    22379966.618
 03  3 18 16 28  0.0000000  0  7G28G 4G 5G26G 7G 9G24
  23202450.657     1349240.54149   1024533.84045  23202450.267    23202458.663
  20910650.748    -2453542.95049  -1914494.68247  20910650.998    20910658.032
  23580380.722    -3469937.19349  -2703477.01245  23580380.242    23580388.246
  24698901.831     1951591.58149   1498900.50945  24698902.015    24698911.372
  21440739.460      876062.99849    659630.23247  21440738.875    21440746.492
  21202700.640    -2251732.05949  -1757388.18247  21202700.456    21202707.358
  22362159.077    -3613398.63549  -2811775.57846  22362159.009    22362168.225
 03  3 18 16 28 30.0000000  0  7G28G 4G 5G26G 7G 9G24
  23215470.330     1417659.21649   1077846.94945  23215469.974    23215478.454
  20902249.461    -2497692.04049  -1948896.59147  20902249.764    20902256.783
  23564322.761    -3554322.36649  -2769231.70845  23564322.350    23564330.433
  24715011.992     2036250.50949   1564868.39945  24715012.341    24715021.791
  21451094.809      930480.05049    702033.06047  21451094.216    21451101.704
  21195443.178    -2289870.53549  -1787106.50247  21195442.970    21195449.873
  22344413.751    -3706650.69349  -2884439.44746  22344413.744    22344422.907
 03  3 18 16 29  0.0000000  0  7G28G 4G 5G26G 7G 9G24
  23228526.189     1486267.38449   1131307.71845  23228525.896    23228534.312
  20893956.378    -2541272.66349  -1982855.52447  20893956.715    20893963.692
  23548270.954    -3638675.44149  -2834961.38245  23548270.532    23548278.689
  24731118.618     2120891.99149   1630822.62145  24731118.993    24731128.449
  21461481.484      985062.18549    744564.52647  21461480.866    21461488.390
  21188290.199    -2327459.59249  -1816396.69847  21188290.072    21188296.958
  22326722.109    -3799620.72149  -2956883.54046  22326722.072    22326731.225
 03  3 18 16 29 30.0000000  0  7G28G 4G 5G26G 7G 9G24
  23241617.957     1555064.98949   1184916.07045  23241617.742    23241626.176
  20885771.820    -2584283.18449  -2016370.23147  20885772.111    20885779.046
  23532225.362    -3722995.46549  -2900665.29245  23532225.010    23532233.202
  24747221.549     2205513.07949   1696760.99044  24747221.665    24747231.419
  21471899.271     1039808.03949    787223.56647  21471898.714    21471906.297
  21181242.046    -2364497.92349  -1845257.76547  21181241.961    21181248.842
  22309084.660    -3892306.06949  -3029105.81946  22309084.602    22309093.696
 03  3 18 16 30  0.0000000  0  7G28G 4G 5G26G 7G 9G24
  23254745.766     1624051.27649   1238671.47145  23254745.404    23254754.043
  20877695.887    -2626722.59149  -2049439.90047  20877696.162    20877703.063
  23516186.071    -3807282.28549  -2966343.33445  23516185.713    23516193.986
  24763320.023     2290110.33849   1762680.81945  24763320.300    24763329.814
  21482347.968     1094715.64049    830008.63547  21482347.380    21482355.018
  21174298.952    -2400984.54849  -1873688.91947  21174298.838    21174305.721
  22291501.972    -3984704.18849  -3101104.28846  22291501.785    22291510.888
 03  3 18 16 30 30.0000000  0  7G28G 4G 5G26G 7G 9G24
  23267909.339     1693226.22949   1292573.87445  23267909.022    23267917.733
  20869728.974    -2668589.31749  -2082063.33147  20869729.227    20869736.103
  23500153.337    -3891534.97949  -3031994.80045  23500152.993    23500161.334
  24779413.276     2374681.09249   1828579.96844  24779413.530    24779422.995
  21492827.119     1149783.73549    872918.76847  21492826.536    21492834.170
  21167461.108    -2436917.96549  -1901689.00347  21167460.992    21167467.907
  22273974.224    -4076812.60549  -3172877.03946  22273974.058    22273983.120
 03  3 18 16 31  0.0000000  0  7G28G 4G 5G26G 7G 9G24
  23281109.207     1762591.07749   1346624.24846  23281108.933    23281117.623
  20861871.551    -2709880.39349  -2114238.19447  20861871.797    20861878.723
  23484127.503    -3975751.44749  -3097618.01445  23484127.167    23484135.587
  24795501.172     2459223.55649   1894457.06744  24795501.502    24795511.080
  21503336.770     1205012.14149    915953.83647  21503336.210    21503343.824
  21160729.028    -2472295.45849  -1929255.90247  21160728.922    21160735.854
  22256502.365    -4168627.37549  -3244420.96446  22256502.254    22256511.268
 03  3 18 16 31 30.0000000  0  7G28G 4G 5G26G 7G 9G24
  23294345.014     1832144.63849   1400821.68246  23294344.700    23294353.468
  20854123.704    -2750595.50749  -2145964.25647  20854123.980    20854130.906
  23468108.538    -4059931.97549  -3163213.23245  23468108.056    23468116.559
  24811583.017     2543733.71149   1960309.00144  24811583.308    24811592.683
  21513876.467     1260398.22649    959111.74947  21513875.933    21513883.563
  21154102.720    -2507116.82849  -1956389.46147  21154102.659    21154109.583
  22239086.690    -4260146.91349  -3315734.85446  22239086.641    22239095.618
 03  3 18 16 32  0.0000000  0  7G28G 4G 5G26G 7G 9G24
  23307616.532     1901885.96049   1455165.37846  23307616.173    23307624.888
  20846485.679    -2790733.93449  -2177240.95747  20846485.938    20846492.850
  23452096.462    -4144076.50849  -3228780.39245  23452095.832    23452104.424
  24827658.306     2628208.05349   2026132.97144  24827658.429    24827668.056
  21524445.781     1315939.82649   1002390.85347  21524445.196    21524452.899
  21147582.437    -2541381.41449  -1983089.16447  21147582.363    21147589.249
  22221727.651    -4351369.07849  -3386817.03746  22221727.608    22221736.558
 03  3 18 16 32 30.0000000  0  7G28G 4G 5G26G 7G 9G24
  23320923.952     1971816.49249   1509656.55246  23320923.670    23320932.384
  20838957.932    -2830292.66049  -2208065.93947  20838958.170    20838965.096
  23436091.612    -4228182.60749  -3294317.60845  23436090.942    23436099.575
  24843726.351     2712645.19349   2091928.00644  24843726.436    24843735.870
  21535044.558     1371637.01149   1045791.19247  21535044.019    21535051.767
  21141168.563    -2575086.70549  -2009353.05347  21141168.504    21141175.336
  22204426.010    -4442289.79449  -3457664.32246  22204425.956    22204434.863
 03  3 18 16 33  0.0000000  0  7G28G 4G 5G26G 7G 9G24
  23334267.636     2041936.51549   1564295.34746  23334267.332    23334276.011
  20831540.744    -2869269.98849  -2238437.88147  20831540.984    20831547.968
  23420094.297    -4312248.95649  -3359823.86545  23420093.647    23420102.175
  24859786.846     2797042.63849   2157692.13144  24859787.045    24859796.374
  21545672.885     1427488.78949   1089311.97847  21545672.351    21545680.074
  21134861.415    -2608230.94849  -2035179.76747  21134861.380    21134868.180
  22187182.247    -4532906.07649  -3528274.39146  22187182.234    22187191.131
 03  3 18 16 33 30.0000000  0  7G28G 4G 5G26G 7G 9G24
  23347647.261     2112245.59849   1619081.50346  23347646.861    23347655.496
  20824234.492    -2907664.64149  -2268355.79247  20824234.732    20824241.696
  23404104.697    -4396275.02049  -3425298.70845  23404104.086    23404112.476
  24875839.192     2881397.09449   2223422.77944  24875839.165    24875848.680
  21556330.275     1483493.48949   1132951.93847  21556329.763    21556337.513
  21128661.326    -2640813.16249  -2060568.53047  21128661.232    21128668.034
  22169996.947    -4623215.59649  -3598645.43146  22169996.871    22170005.740
 03  3 18 16 34  0.0000000  0  7G28G 4G 5G26G 7G 9G24
  23361062.572     2182743.98849   1674015.13446  23361062.273    23361071.133
  20817039.373    -2945475.24649  -2297818.61047  20817039.653    20817046.566
  23388122.973    -4480259.65049  -3490741.28945  23388122.379    23388130.620
  24891882.710     2965706.02849   2289117.98844  24891882.707    24891892.394
  21567016.498     1539649.88649   1176710.11147  21567015.985    21567023.853
  21122568.473    -2672831.67949  -2085518.04947  21122568.370    21122575.146
  22152870.568    -4713215.29849  -3668775.04046  22152870.527    22152879.392
 03  3 18 16 34 30.0000000  0  7G28G 4G 5G26G 7G 9G24
  23374514.167     2253432.00449   1729096.53746  23374513.830    23374522.627
  20809955.829    -2982699.69849  -2326824.67647  20809956.067    20809963.009
  23372149.266    -4564201.19549  -3556150.28345  23372148.798    23372157.046
  24907917.163     3049967.17149   2354775.87644  24907917.487    24907927.044
  21577731.441     1595957.19749   1220585.87047  21577730.977    21577738.814
  21116583.173    -2704284.75149  -2110026.96047  21116583.064    21116589.860
  22135803.790    -4802901.80149  -3738660.62446  22135803.742    22135812.517
 03  3 18 16 35  0.0000000  0  7G28G 4G 5G26G 7G 9G24
  23388001.381     2324307.43249   1784323.95746  23388001.063    23388009.980
  20802983.603    -3019338.81649  -2355374.64847  20802983.884    20802990.858
  23356183.746    -4648100.95549  -3621526.73145  23356183.191    23356191.329
  24923941.680     3134175.71449   2420392.84244  24923941.785    24923951.662
  21588474.500     1652411.85149   1264576.44247  21588474.030    21588481.812
  21110705.265    -2735173.38649  -2134096.05347  21110705.193    21110712.030
  22118796.627    -4892274.84849  -3808301.95047  22118796.586    22118805.419
 03  3 18 16 35 30.0000000  0  7G28G 4G 5G26G 7G 9G24
  23401524.615     2395371.36949   1839698.24846  23401524.251    23401533.238
  20796123.416    -3055389.80549  -2383466.33147  20796123.613    20796130.591
  23340226.476    -4731956.47349  -3686868.70245  23340226.087    23340234.141
  24939955.787     3218330.01049   2485967.46745  24939955.968    24939965.730
  21599245.588     1709014.02549   1308681.96847  21599245.054    21599252.938
  21104935.313    -2765494.92149  -2157723.24747  21104935.227    21104942.066
  22101850.005    -4981330.26049  -3877695.75147  22101849.898    22101858.742
 03  3 18 16 36  0.0000000  0  6G28G 4G 5G 7G 9G24
  23415083.709     2466624.29249   1895219.83146  23415083.365    23415092.384
  20789375.324    -3090851.19949  -2411098.58547  20789375.545    20789382.572
  23324278.009    -4815766.68249  -3752175.37245  23324277.608    23324285.570
  21610044.500     1765762.41149   1352901.42247  21610043.988    21610051.936
  21099273.537    -2795247.91649  -2180907.41947  21099273.437    21099280.254
  22084964.214    -5070065.29949  -3946839.92347  22084964.127    22084973.000
 03  3 18 16 36 30.0000000  0  6G28G 4G 5G 7G 9G24
  23428680.093     2538072.84649   1950893.83246  23428679.723    23428688.799
  20782741.037    -3125714.62949  -2438264.90047  20782741.288    20782748.296
  23308339.654    -4899523.67149  -3817440.56245  23308339.243    23308347.158
  21620872.484     1822662.95549   1397239.44447  21620871.942    21620879.838
  21093721.489    -2824424.23649  -2203642.24247  21093721.400    21093728.164
  22068141.376    -5158470.08749  -4015726.74547  22068141.244    22068150.121
 03  3 18 16 37  0.0000000  0  6G28G 4G 5G 7G 9G24
  23442311.742     2609706.67149   2006712.21446  23442311.376    23442320.351
  20776218.910    -3159989.10549  -2464972.30047  20776219.103    20776226.072
  23292409.613    -4983236.77349  -3882671.56245  23292409.200    23292417.056
  21631726.943     1879703.76349   1441686.75347  21631726.417    21631734.410
  21088277.349    -2853033.10049  -2225934.88947  21088277.329    21088284.068
  22051379.785    -5246552.58849  -4084362.43347  22051379.688    22051388.565
 03  3 18 16 37 30.0000000  0  6G28G 4G 5G 7G 9G24
  23455978.886     2681527.44349   2062676.26645  23455978.584    23455987.537
  20769809.278    -3193671.77549  -2491218.54647  20769809.480    20769816.460
  23276488.353    -5066903.20049  -3947866.19045  23276487.923    23276495.865
  21642608.234     1936885.44249   1486243.83847  21642607.764    21642615.829
  21082941.757    -2881071.57249  -2247783.07547  21082941.793    21082948.526
  22034680.529    -5334307.94849  -4152743.20247  22034680.418    22034689.283
 03  3 18 16 38  0.0000000  0  6G28G 4G 5G 7G 9G24
  23469681.801     2753536.02549   2118786.65445  23469681.528    23469690.458
  20763512.739    -3226760.26049  -2517001.79547  20763512.979    20763519.973
  23260576.275    -5150520.85949  -4013022.81045  23260575.858    23260584.106
  21653516.406     1994207.70149   1530910.46747  21653515.933    21653523.920
  21077715.254    -2908537.44049  -2269185.07847  21077715.241    21077721.980
  22018044.213    -5421732.70549  -4220866.36747  22018044.085    22018052.851
 03  3 18 16 38 30.0000000  0  6G28G 4G 5G 7G 9G24
  23483420.417     2825731.88749   2175042.97645  23483420.166    23483429.036
  20757329.367    -3259253.93649  -2542321.55847  20757329.650    20757336.630
  23244673.787    -5234089.24649  -4078141.04045  23244673.398    23244681.754
  21664450.981     2051668.76649   1575685.26047  21664450.463    21664458.461
  21072597.751    -2935430.20949  -2290140.50847  21072597.724    21072604.502
  22001471.154    -5508824.67349  -4288730.20147  22001471.028    22001479.788
 03  3 18 16 39  0.0000000  0  6G28G 4G 5G 7G 9G24
  23497194.914     2898116.30949   2231446.23545  23497194.571    23497203.492
  20751259.760    -3291150.17849  -2567175.79247  20751260.002    20751266.971
  23228781.045    -5317606.02449  -4143219.06145  23228780.680    23228789.088
  21675411.869     2109268.58549   1620568.16547  21675411.385    21675419.391
  21067589.751    -2961747.29249  -2310647.35147  21067589.771    21067596.565
  21984962.034    -5595580.19249  -4356331.86947  21984961.968    21984970.761
 03  3 18 16 39 30.0000000  0  6G28G 4G 5G 7G 9G24
  23511005.030     2970688.08949   2287995.48245  23511004.690    23511013.646
  20745303.809    -3322448.84049  -2591564.37847  20745304.075    20745311.082
  23212898.269    -5401071.17349  -4208256.87246  23212897.895    23212906.293
  21686398.873     2167005.08349   1665557.56947  21686398.359    21686406.338
  21062691.389    -2987488.62349  -2330705.54947  21062691.372    21062698.204
  21968517.379    -5681997.34849  -4423669.88247  21968517.292    21968526.118
 03  3 18 16 40  0.0000000  0  6G28G 4G 5G 7G 9G24
  23524851.068     3043447.80449   2344691.14145  23524850.704    23524859.540
  20739461.988    -3353147.99349  -2615485.81947  20739462.229    20739469.263
  23197025.603    -5484482.90849  -4273253.02646  23197025.134    23197033.729
  21697411.782     2224877.60549   1710652.97147  21697411.205    21697419.207
  21057902.893    -3012652.56849  -2350313.84847  21057902.847    21057909.711
  21952137.811    -5768072.64049  -4490741.48047  21952137.681    21952146.552
 03  3 18 16 40 30.0000000  0  6G28G 4G 5G 7G 9G24
  23538732.698     3116395.41349   2401533.23945  23538732.304    23538741.028
  20733734.426    -3383246.56149  -2638939.27447  20733734.674    20733741.706
  23181163.191    -5567839.94549  -4338206.58746  23181162.815    23181171.442
  21708450.214     2282884.97949   1755853.45247  21708449.683    21708457.681
  21053224.516    -3037237.89149  -2369471.27247  21053224.426    21053231.328
  21935823.739    -5853803.59549  -4557544.78247  21935823.625    21935832.436
 03  3 18 16 41  0.0000000  0  6G28G 4G 5G 7G 9G24
  23552649.865     3189530.96349   2458521.77845  23552649.451    23552658.579
  20728121.461    -3412743.14949  -2661923.65247  20728121.700    20728128.718
  23165311.589    -5651141.04849  -4403116.54046  23165311.139    23165319.734
  21719514.174     2341026.18849   1801158.22047  21719513.634    21719521.659
  21048656.344    -3061243.67549  -2388177.10647  21048656.288    21048663.245
  21919575.805    -5939187.28249  -4624077.49047  21919575.644    21919584.420
 03  3 18 16 41 30.0000000  0  6G28G 4G 5G 7G 9G24
  23566603.093     3262854.76849   2515657.00345  23566602.840    23566611.930
  20722623.227    -3441636.72049  -2684438.15047  20722623.466    20722630.506
  23149470.840    -5734385.01549  -4467981.98746  23149470.395    23149478.986
  21730603.421     2399300.00249   1846566.32047  21730602.827    21730610.850
  21044198.676    -3084668.54249  -2406430.27747  21044198.654    21044205.653
  21903394.416    -6024220.88449  -4690337.38847  21903394.296    21903403.056
 03  3 18 16 42  0.0000000  0  6G28G 4G 5G 7G 9G24
  23580592.006     3336365.29149   2572937.74345  23580591.586    23580600.803
  20717239.766    -3469927.09849  -2706482.62447  20717239.983    20717247.044
  23133640.885    -5817571.79749  -4532802.85146  23133640.444    23133649.064
  21741717.515     2457704.47549   1892076.22447  21741716.863    21741724.931
  21039851.606    -3107512.57249  -2424230.84847  21039851.594    21039858.618
  21887279.973    -6108902.86249  -4756323.30947  21887279.852    21887288.580
 03  3 18 16 42 30.0000000  0  6G28G 4G 5G 7G 9G24
  23594616.382     3410063.18749   2630364.52345  23594615.907    23594625.211
  20711971.398    -3497612.63049  -2728055.79147  20711971.640    20711978.673
  23117822.202    -5900699.64749  -4597577.80646  23117821.804    23117830.404
  21752856.213     2516238.83149   1937687.33847  21752855.621    21752863.667
  21035615.442    -3129774.29149  -2441577.67247  21035615.366    21035622.405
  21871233.000    -6193230.01049  -4822032.73647  21871232.861    21871241.621
 03  3 18 16 43  0.0000000  0  6G28G 4G 5G 7G 9G24
  23608676.348     3483949.04149   2687937.73245  23608676.004    23608685.369
  20706818.461    -3524691.73449  -2749156.41747  20706818.678    20706825.749
  23102015.297    -5983766.48849  -4662305.22746  23102014.748    23102023.252
  21764019.595     2574902.73749   1983399.39747  21764019.053    21764027.108
  21031490.367    -3151451.75749  -2458469.22647  21031490.312    21031497.360
  21855254.211    -6277198.89149  -4887463.00147  21855254.112    21855262.856
 03  3 18 16 43 30.0000000  0  6G28G 4G 5G 7G 9G24
  23622771.897     3558020.75449   2745655.71145  23622771.554    23622780.905
  20701780.723    -3551165.07949  -2769785.02447  20701780.965    20701788.042
  23086219.655    -6066773.23249  -4726985.81646  23086219.133    23086227.586
  21775207.104     2633692.93149   2029209.86347  21775206.548    21775214.591
  21027476.291    -3172546.01049  -2474906.33247  21027476.241    21027483.282
  21839343.625    -6360809.38349  -4952614.00247  21839343.537    21839352.258
 03  3 18 16 44  0.0000000  0  6G28G 4G 5G 7G 9G24
  23636903.147     3632279.95149   2803519.84845  23636902.683    23636912.192
  20696858.760    -3577030.38549  -2789939.83347  20696858.993    20696866.061
  23070435.955    -6149717.18849  -4791617.47146  23070435.450    23070443.926
  21786418.652     2692610.01649   2075119.21247  21786418.137    21786426.239
  21023573.700    -3193054.60849  -2490887.08647  21023573.593    21023580.661
  21823502.127    -6444056.84849  -5017482.12747  21823502.064    21823510.802
 03  3 18 16 44 30.0000000  0  6G28G 4G 5G 7G 9G24
  23651069.799     3706726.08249   2861529.61145  23651069.535    23651079.067
  20692052.628    -3602286.82349  -2809620.19247  20692052.850    20692059.965
  23054664.404    -6232597.70949  -4856199.68646  23054663.888    23054672.285
  21797654.093     2751652.31149   2121126.12847  21797653.578    21797661.678
  21019782.477    -3212977.12449  -2506411.15147  21019782.467    21019789.553
  21807730.097    -6526939.35849  -5082065.87547  21807729.993    21807738.725
 03  3 18 16 45  0.0000000  0  6G28G 4G 5G 7G 9G24
  23665272.106     3781358.66349   2919684.66545  23665271.783    23665281.110
  20687362.472    -3626933.83749  -2828825.67747  20687362.707    20687369.798
  23038905.057    -6315413.56449  -4920731.52246  23038904.539    23038912.891
  21808913.089     2810818.60649   2167229.66647  21808912.594    21808920.707
  21016103.046    -3232312.79649  -2521477.93347  21016103.015    21016110.119
  21792027.996    -6609453.95949  -5146362.94147  21792027.933    21792036.660
 03  3 18 16 45 30.0000000  0  6G28G 4G 5G 7G 9G24
  23679509.758     3856177.17349   2977984.62545  23679509.426    23679518.666
  20682788.326    -3650970.99449  -2847555.94947  20682788.583    20682795.647
  23023158.104    -6398164.06749  -4985212.43146  23023157.600    23023166.041
  21820195.335     2870107.01949   2213428.36447  21820194.863    21820203.016
  21012535.360    -3251061.17549  -2536087.08247  21012535.334    21012542.454
  21776396.400    -6691598.61849  -5210371.75147  21776396.305    21776405.039
 03  3 18 16 46  0.0000000  0  6G28G 4G 5G 7G 9G24
  23693782.934     3931182.75949   3036430.29945  23693782.716    23693792.233
  20678330.718    -3674396.20149  -2865809.37048  20678330.949    20678338.039
  23007424.052    -6480846.93449  -5049640.64246  23007423.582    23007431.951
  21831500.982     2929517.95549   2259722.53447  21831500.457    21831508.604
  21009079.858    -3269220.30949  -2550237.08547  21009079.807    21009086.913
  21760835.811    -6773369.97049  -5274089.68347  21760835.707    21760844.443
 03  3 18 16 46 30.0000000  0  6G28G 4G 5G 7G 9G24
  23708091.615     4006374.55849   3095021.12145  23708091.420    23708100.989
  20673989.562    -3697209.11149  -2883585.67548  20673989.805    20673996.915
  22991702.967    -6563461.67249  -5114015.75946  22991702.535    22991710.869
  21842829.520     2989049.44249   2306110.64047  21842828.974    21842837.170
  21005736.439    -3286790.12649  -2563927.87747  21005736.421    21005743.519
  21745346.613    -6854766.08649  -5337515.22347  21745346.550    21745355.214
 03  3 18 16 47  0.0000000  0  6G28G 4G 5G 7G 9G24
  23722435.731     4081752.38249   3153756.89345  23722435.500    23722445.059
  20669765.054    -3719409.21849  -2900884.46847  20669765.269    20669772.366
  22975995.159    -6646006.95849  -5178336.77146  22975994.690    22976002.984
  21854180.739     3048700.37349   2352591.80447  21854180.216    21854188.394
  21002505.325    -3303769.99749  -2577158.96947  21002505.318    21002512.405
  21729929.397    -6935784.28949  -5400646.29547  21729929.283    21729937.913
 03  3 18 16 47 30.0000000  0  6G28G 4G 5G 7G 9G24
  23736815.089     4157315.89849   3212637.33745  23736814.845    23736824.557
  20665657.248    -3740995.87749  -2917705.24748  20665657.503    20665664.593
  22960300.704    -6728481.66749  -5242602.78946  22960300.275    22960308.502
  21865554.507     3108469.50349   2399165.08547  21865553.972    21865562.153
  20999386.580    -3320159.24349  -2589929.83447  20999386.597    20999393.674
  21714584.345    -7016422.62049  -5463481.35547  21714584.286    21714592.885
 03  3 18 16 48  0.0000000  0  6G28G 4G 5G 7G 9G24
  23751229.802     4233065.18849   3271662.56045  23751229.655    23751239.465
  20661666.359    -3761967.94649  -2934047.12648  20661666.646    20661673.756
  22944619.939    -6810884.45849  -5306812.76546  22944619.501    22944627.719
  21876950.572     3168355.96649   2445829.79347  21876950.013    21876958.322
  20996380.430    -3335956.80749  -2602239.64848  20996380.428    20996387.529
  21699312.240    -7096677.88249  -5526017.92947  21699312.219    21699320.809
 03  3 18 16 48 30.0000000  0  6G28G 4G 5G 7G 9G24
  23765679.838     4308999.55549   3330832.00145  23765679.643    23765689.475
  20657792.416    -3782325.51749  -2949910.17347  20657792.728    20657799.846
  22928953.026    -6893214.46049  -5370966.05246  22928952.616    22928960.802
  21888368.695     3228358.06449   2492584.60947  21888368.108    21888376.525
  20993486.921    -3351162.67449  -2614088.40248  20993486.891    20993494.007
  21684113.428    -7176548.17249  -5588254.51847  21684113.401    21684122.016
 03  3 18 16 49  0.0000000  0  6G28G 4G 5G 7G 9G24
  23780164.931     4385119.12749   3390145.75145  23780164.744    23780174.800
  20654035.675    -3802067.18449  -2965293.29547  20654036.018    20654043.140
  22913300.166    -6975470.12349  -5435061.37946  22913299.803    22913308.025
  21899808.676     3288475.15549   2539429.03047  21899808.068    21899816.421
  20990706.144    -3365775.73049  -2625475.22348  20990706.166    20990713.273
  21668988.471    -7256030.66949  -5650188.94847  21668988.401    21668996.976
 03  3 18 16 49 30.0000000  0  6G28G 4G 5G 7G 9G24
  23794685.480     4461423.64549   3449603.61945  23794685.312    23794695.336
  20650396.318    -3821192.52249  -2980196.15647  20650396.598    20650403.716
  22897661.785    -7057650.54649  -5499098.08046  22897661.409    22897669.666
  21911270.263     3348706.02049   2586362.09547  21911269.694    21911278.010
  20988038.336    -3379795.34649  -2636399.62348  20988038.343    20988045.445
  21653937.678    -7335123.06449  -5711819.39747  21653937.621    21653946.205
 03  3 18 16 50  0.0000000  0  6G28G 4G 5G 7G 9G24
  23809241.120     4537912.43149   3509205.06545  23809240.885    23809250.916
  20646874.150    -3839701.55349  -2994618.77547  20646874.446    20646881.596
  22882037.811    -7139754.96149  -5563075.56146  22882037.465    22882045.782
  21922753.140     3409048.82149   2633382.38347  21922752.574    21922760.961
  20985483.445    -3393221.74949  -2646861.78248  20985483.402    20985490.522
  21638961.445    -7413823.40949  -5773144.34847  21638961.439    21638970.059
 03  3 18 16 50 30.0000000  0  6G28G 4G 5G 7G 9G24
  23823831.752     4614585.60249   3568950.20045  23823831.485    23823841.574
  20643469.474    -3857593.13349  -3008560.26747  20643469.793    20643476.921
  22866428.689    -7221781.58049  -5626992.42746  22866428.351    22866436.763
  21934257.220     3469503.08749   2680489.53347  21934256.660    21934265.131
  20983041.558    -3406053.89849  -2656860.88848  20983041.543    20983048.673
  21624060.430    -7492128.99549  -5834161.69847  21624060.395    21624069.045
 03  3 18 16 51  0.0000000  0  6G28G 4G 5G 7G 9G24
  23838457.294     4691442.76349   3628838.69145  23838456.999    23838467.306
  20640182.408    -3874866.84649  -3022020.29448  20640182.719    20640189.848
  22850834.549    -7303729.31449  -5690847.80246  22850834.207    22850842.648
  21945782.400     3530067.67049   2727682.64847  21945781.811    21945790.256
  20980712.898    -3418291.04949  -2666396.36248  20980712.915    20980720.044
  21609234.991    -7570037.28149  -5894869.45947  21609234.948    21609243.606
 03  3 18 16 51 30.0000000  0  6G28G 4G 5G 7G 9G24
  23853118.033     4768484.00449   3688870.63145  23853117.710    23853127.927
  20637013.034    -3891521.93249  -3034998.27948  20637013.363    20637020.555
  22835255.753    -7385596.67349  -5754640.57546  22835255.402    22835263.842
  21957328.383     3590741.69449   2774961.02747  21957327.758    21957336.180
  20978497.573    -3429932.47249  -2675467.62748  20978497.638    20978504.786
  21594485.624    -7647545.77249  -5955265.68647  21594485.589    21594494.243
 03  3 18 16 52  0.0000000  0  6G28G 4G 5G 7G 9G24
  23867813.613     4845708.77749   3749045.58845  23867813.276    23867823.448
  20633961.426    -3907558.18249  -3047494.06348  20633961.785    20633968.960
  22819692.321    -7467382.68249  -5818369.92046  22819691.967    22819700.538
  21968894.772     3651523.70049   2822323.55547  21968894.171    21968902.645
  20976395.711    -3440978.18549  -2684074.70148  20976395.723    20976402.900
  21579812.722    -7724652.43649  -6015348.80547  21579812.686    21579821.374
 03  3 18 16 52 30.0000000  0  6G28G 4G 5G 7G 9G24
  23882544.053     4923117.46949   3809363.84545  23882543.719    23882554.196
  20631027.869    -3922974.52449  -3059506.79848  20631028.196    20631035.305
  22804144.864    -7549085.28949  -5882034.29646  22804144.499    22804153.066
  21980481.699     3712413.34149   2869769.94847  21980481.159    21980489.705
  20974407.428    -3451426.98349  -2692216.64448  20974407.430    20974414.617
  21565216.879    -7801354.11549  -6075116.35247  21565216.851    21565225.516
 03  3 18 16 53  0.0000000  0  6G28G 4G 5G 7G 9G24
  23897309.571     5000709.91349   3869825.26645  23897309.286    23897319.713
  20628212.337    -3937770.39349  -3071036.04748  20628212.656    20628219.773
  22788613.476    -7630703.35649  -5945632.79246  22788613.141    22788621.641
  21992088.995     3773409.49549   2917299.34947  21992088.464    21992097.046
  20972532.818    -3461278.41649  -2699893.11148  20972532.778    20972539.977
  21550698.501    -7877648.61049  -6134566.61547  21550698.482    21550707.150
 03  3 18 16 53 30.0000000  0  6G28G 4G 5G 7G 9G24
  23912109.977     5078485.23549   3930429.22245  23912109.591    23912119.981
  20625514.784    -3951946.17749  -3082082.11848  20625515.113    20625522.277
  22773098.383    -7712236.22449  -6009164.91746  22773097.982    22773106.437
  22003716.202     3834510.41349   2964910.36947  22003715.655    22003724.249
  20970771.755    -3470532.90549  -2707104.43548  20970771.737    20970778.908
  21536257.953    -7953534.16549  -6193698.22647  21536257.949    21536266.605
 03  3 18 16 54  0.0000000  0  6G28G 4G 5G 7G 9G24
  23926944.922     5156443.48749   3991175.66945  23926944.651    23926955.020
  20622935.408    -3965501.00449  -3092644.32348  20622935.679    20622942.862
  22757599.605    -7793682.22549  -6072629.31946  22757599.272    22757607.775
  22015363.190     3895715.61449   3012602.65547  22015362.671    22015371.202
  20969124.527    -3479189.37849  -2713849.76048  20969124.517    20969131.692
  21521895.829    -8029008.18949  -6252509.16147  21521895.752    21521904.395
 03  3 18 16 54 30.0000000  0  6G28G 4G 5G 7G 9G24
  23941814.773     5234584.06249   4052064.22745  23941814.486    23941824.713
  20620474.200    -3978434.65049  -3102722.49948  20620474.512    20620481.671
  22742117.814    -7875039.99649  -6136024.99446  22742117.440    22742125.923
  22027029.782     3957023.92149   3060375.28647  22027029.275    22027037.773
  20967591.135    -3487247.49449  -2720128.83848  20967591.129    20967598.291
  21507612.482    -8104068.01249  -6310997.34247  21507612.340    21507621.007
 03  3 18 16 55  0.0000000  0  6G28G 4G 5G 7G 9G24
  23956719.078     5312906.43349   4113094.42045  23956718.868    23956729.085
  20618131.240    -3990747.00049  -3112316.54048  20618131.564    20618138.723
  22726652.852    -7956308.63749  -6199351.18846  22726652.486    22726661.057
  22038715.758     4018433.79449   3108227.05547  22038715.235    22038723.795
  20966171.637    -3494707.28449  -2725941.68748  20966171.611    20966178.756
  21493408.271    -8178711.78549  -6369161.33247  21493408.113    21493416.761
 03  3 18 16 55 30.0000000  0  6G28G 4G 5G 7G 9G24
  23971657.999     5391411.05949   4174266.59845  23971657.757    23971668.224
  20615906.677    -4002437.28649  -3121425.86648  20615906.985    20615914.161
  22711205.344    -8037486.00849  -6262606.27146  22711204.940    22711213.632
  22050420.944     4079945.07149   3156157.84747  22050420.531    22050429.141
  20964866.123    -3501567.84349  -2731287.61048  20964866.125    20964873.271
  21479283.741    -8252936.57549  -6426998.83847  21479283.621    21479292.285
 03  3 18 16 56  0.0000000  0  6G28G 4G 5G 7G 9G24
  23986631.664     5470097.31549   4235580.34445  23986631.351    23986641.719
  20613800.498    -4013505.48049  -3130050.44948  20613800.813    20613807.936
  22695775.391    -8118571.42349  -6325789.70646  22695774.922    22695783.597
  22062145.141     4141556.06149   3204166.33447  22062144.735    22062153.357
  20963674.671    -3507829.32449  -2736166.72048  20963674.620    20963681.779
  21465239.240    -8326740.73649  -6484508.58447  21465239.174    21465247.838
 03  3 18 16 56 30.0000000  0  6G28G 4G 5G 7G 9G24
  24001639.857     5548964.77249   4297035.25245  24001639.310    24001650.119
  20611812.782    -4023951.33749  -3138190.09648  20611813.009    20611820.098
  22680363.063    -8199563.58249  -6388900.45646  22680362.562    22680371.325
  22073888.171     4203265.96949   3252251.89347  22073887.755    22073896.337
  20962597.183    -3513491.59549  -2740578.90948  20962597.156    20962604.329
  21451275.238    -8400122.08049  -6541688.86047  21451275.161    21451283.841
 03  3 18 16 57  0.0000000  0  6G28G 4G 5G 7G 9G24
  24016682.509     5628013.32549   4358631.29445  24016681.908    24016692.722
  20609943.437    -4033774.88049  -3145844.82048  20609943.673    20609950.816
  22664968.747    -8280461.05049  -6451937.42046  22664968.309    22664977.127
  22085649.962     4265073.71149   3300413.68547  22085649.453    22085658.010
  20961633.883    -3518554.20549  -2744523.82248  20961633.813    20961641.011
  21437392.123    -8473078.19349  -6598537.79747  21437392.112    21437400.753
 03  3 18 16 57 30.0000000  0  6G28G 4G 5G 7G 9G24
  24031759.290     5707242.30749   4420367.93445  24031758.809    24031769.790
  20608192.567    -4042975.65649  -3153014.27148  20608192.825    20608199.988
  22649592.729    -8361262.56849  -6514899.63146  22649592.293    22649601.148
  22097430.100     4326978.22349   3348650.88947  22097429.608    22097438.165
  20960784.577    -3523016.92949  -2748001.30148  20960784.571    20960791.807
  21423590.432    -8545606.80849  -6655053.61947  21423590.417    21423599.028
 03  3 18 16 58  0.0000000  0  6G28G 4G 5G 7G 9G24
  24046870.643     5786651.45049   4482244.93945  24046870.248    24046881.100
  20606560.251    -4051553.80749  -3159698.56748  20606560.495    20606567.618
  22634235.209    -8441966.74849  -6577785.99146  22634234.855    22634243.672
  22109228.332     4388978.41349   3396962.65547  22109227.900    22109236.585
  20960049.403    -3526879.98549  -2751011.50648  20960049.460    20960056.746
  21409870.444    -8617705.97649  -6711234.79747  21409870.415    21409879.036
 03  3 18 16 58 30.0000000  0  6G28G 4G 5G 7G 9G24
  24062016.165     5866240.42149   4544262.06345  24062015.723    24062026.687
  20605046.306    -4059509.22849  -3165897.61548  20605046.593    20605053.767
  22618896.453    -8522572.43649  -6640595.58546  22618896.044    22618904.935
  22121044.565     4451073.31149   3445348.19947  22121044.189    22121052.925
  20959428.498    -3530143.10049  -2753554.22648  20959428.539    20959435.827
  21396232.638    -8689373.41049  -6767079.56747  21396232.606    21396241.228
 03  3 18 16 59  0.0000000  0  6G28G 4G 5G 7G 9G24
  24077195.843     5946008.87049   4606419.00945  24077195.394    24077206.222
  20603651.005    -4066841.60049  -3171611.17548  20603651.299    20603658.530
  22603576.749    -8603078.08849  -6703327.24446  22603576.319    22603585.193
  22132878.764     4513261.99549   3493806.84047  22132878.357    22132887.091
  20958921.798    -3532805.97249  -2755629.22548  20958921.830    20958929.088
  21382677.367    -8760606.92649  -6822586.20747  21382677.340    21382685.934
 03  3 18 16 59 30.0000000  0  6G28G 4G 5G 7G 9G24
  24092409.647     6025956.86349   4668715.92245  24092409.352    24092419.683
  20602374.392    -4073550.42649  -3176838.85548  20602374.713    20602381.933
  22588276.355    -8683481.87849  -6765979.52046  22588276.032    22588284.887
  22144730.749     4575543.98849   3542338.18347  22144730.312    22144739.021
  20958529.424    -3534868.08549  -2757236.10048  20958529.462    20958536.716
  21369205.105    -8831403.98149  -6877752.74847  21369205.097    21369213.716
 03  3 18 17  0  0.0000000  0  6G28G 4G 5G 7G 9G24
  24107657.553     6106083.87749   4731152.34445  24107657.175    24107667.357
  20601216.403    -4079635.85449  -3181580.77948  20601216.685    20601223.868
  22572995.784    -8763782.40849  -6828551.33646  22572995.340    22573004.178
  22156600.166     4637918.10149   3590941.31447  22156599.785    22156608.492
  20958251.394    -3536329.48049  -2758374.89148  20958251.394    20958258.649
  21355816.414    -8901762.07949  -6932577.24347  21355816.396    21355825.045
 03  3 18 17  0 30.0000000  0  6G28G 4G 5G 7G 9G24
  24122939.452     6186389.35749   4793727.76645  24122939.195    24122949.463
  20600176.945    -4085098.16949  -3185837.16248  20600177.234    20600184.395
  22557734.916    -8843978.85549  -6891042.03646  22557734.466    22557743.326
  22168486.814     4700383.05249   3639615.22347  22168486.446    22168495.229
  20958087.581    -3537190.38649  -2759045.76248  20958087.608    20958094.871
  21342511.596    -8971679.44549  -6987058.30547  21342511.587    21342520.224
 03  3 18 17  1  0.0000000  0  6G28G 4G 5G 7G 9G24
  24138255.241     6266873.39149   4856442.32145  24138255.043    24138265.188
  20599256.231    -4089937.05449  -3189607.75748  20599256.481    20599263.623
  22542494.245    -8924069.39149  -6953450.22746  22542493.796    22542502.600
  22180390.732     4762938.38349   3688359.55347  22180390.455    22180399.247
  20958038.091    -3537450.55749  -2759248.52748  20958038.112    20958045.349
  21329291.047    -9041153.92249  -7041194.26247  21329291.009    21329299.668
 03  3 18 17  1 30.0000000  0  6G28G 4G 5G 7G 9G24
  24153604.848     6347535.19149   4919295.40245  24153604.697    24153614.767
  20598453.994    -4094152.83249  -3192892.80248  20598454.257    20598461.435
  22527273.893    -9004052.82249  -7015774.95546  22527273.383    22527282.187
  22192311.807     4825582.71149   3737173.23747  22192311.432    22192320.165
  20958102.880    -3537110.33449  -2758983.45748  20958102.907    20958110.121
  21316155.066    -9110183.61549  -7094983.62447  21316155.073    21316163.774
 03  3 18 17  2  0.0000000  0  6G28G 4G 5G 7G 9G24
  24168988.282     6428374.76449   4982287.00445  24168988.137    24168998.598
  20597770.391    -4097745.13749  -3195692.03048  20597770.660    20597777.820
  22512074.082    -9083927.45849  -7078014.91046  22512073.736    22512082.510
  22204249.599     4888315.52849   3786055.87447  22204249.148    22204257.921
  20958282.003    -3536169.08449  -2758250.04548  20958282.033    20958289.227
  21303104.325    -9178765.90949  -7148424.36547  21303104.308    21303112.984
 03  3 18 17  2 30.0000000  0  6G28G 4G 5G 7G 9G24
  24184405.573     6509391.35149   5045416.50645  24184405.254    24184415.982
  20597205.398    -4100714.33349  -3198005.72248  20597205.691    20597212.840
  22496895.402    -9163691.87549  -7140168.97046  22496895.004    22496903.845
  22216203.845     4951135.57649   3835006.48247  22216203.442    22216212.296
  20958575.468    -3534627.24749  -2757048.64848  20958575.500    20958582.693
  21290138.955    -9246899.45349  -7201515.42747  21290138.953    21290147.634
 03  3 18 17  3  0.0000000  0  6G28G 4G 5G 7G 9G24
  24199856.422     6590584.93249   5108683.94545  24199856.139    24199867.001
  20596758.942    -4103060.42949  -3199833.86748  20596759.250    20596766.456
  22481737.919    -9243344.55649  -7202235.96246  22481737.577    22481746.437
  22228174.612     5014042.14849   3884024.51047  22228174.205    22228183.151
  20958983.208    -3532484.69149  -2755379.16048  20958983.228    20958990.456
  21277259.457    -9314581.82449  -7254254.92747  21277259.430    21277268.066
 03  3 18 17  3 30.0000000  0  6G28G 4G 5G 7G 9G24
  24215340.573     6671953.96849   5172088.08445  24215340.368    24215351.388
  20596430.897    -4104784.64949  -3201177.44148  20596431.167    20596438.395
  22466601.952    -9322885.17049  -7264215.63446  22466601.525    22466610.349
  22240161.403     5077033.33549   3933108.47247  22240161.096    22240170.064
  20959505.059    -3529742.56449  -2753242.47248  20959505.056    20959512.325
  21264466.093    -9381811.59949  -7306641.74947  21264466.036    21264474.675
 03  3 18 17  4  0.0000000  0  6G28G 4G 5G 7G 9G24
  24230858.343     6753499.03649   5235629.41645  24230858.026    24230869.205
  20596221.301    -4105886.08349  -3202035.72148  20596221.602    20596228.831
  22451487.653    -9402311.48449  -7326106.24246  22451487.189    22451495.989
  22252164.409     5140109.09349   3982258.32447  22252164.107    22252173.063
  20960141.168    -3526399.97249  -2750637.89048  20960141.186    20960148.485
  21251759.350    -9448586.12049  -7358673.82147  21251759.283    21251767.931
 03  3 18 17  4 30.0000000  0  6G28G 4G 5G 7G 9G24
  24246409.508     6835219.83649   5299307.66545  24246409.280    24246420.647
  20596130.077    -4106365.01849  -3202408.94048  20596130.466    20596137.748
  22436395.329    -9481621.96749  -7387906.59546  22436394.877    22436403.684
  22264183.242     5203268.55649   4031473.39847  22264182.917    22264191.969
  20960891.522    -3522457.13449  -2747565.58248  20960891.507    20960898.819
  21239139.491    -9514903.48649  -7410349.67747  21239139.460    21239148.108
 03  3 18 17  5  0.0000000  0  6G28G 4G 5G 7G 9G24
  24261993.991     6917116.07749   5363122.59145  24261993.711    24262005.252
  20596157.393    -4106221.52249  -3202297.15448  20596157.787    20596165.054
  22421325.431    -9560814.75849  -7449615.23746  22421324.980    22421333.705
  22276218.019     5266511.15249   4080753.26146  22276217.615    22276226.603
  20961756.114    -3517913.83249  -2744025.37848  20961756.078    20961763.411
  21226607.202    -9580761.23849  -7461667.39247  21226607.166    21226615.788
 03  3 18 17  5 30.0000000  0  6G28G 4G 5G 7G 9G24
  24277611.845     6999187.58849   5427074.09345  24277611.558    24277623.352
  20596303.193    -4105455.62249  -3201700.36647  20596303.576    20596310.795
  22406278.200    -9639888.29949  -7511230.95946  22406277.787    22406286.472
  22288268.398     5329836.01749   4130097.21646  22288268.103    22288277.040
  20962734.908    -3512770.24549  -2740017.41648  20962734.900    20962742.259
  21214162.650    -9646157.46149  -7512625.46847  21214162.631    21214171.266
 03  3 18 17  6  0.0000000  0  6G28G 4G 5G 7G 9G24
  24293262.948     7081433.43649   5491161.46345  24293262.644    24293274.502
  20596567.258    -4104067.87049  -3200619.01748  20596567.633    20596574.905
  22391253.769    -9718841.41649  -7572752.83846  22391253.438    22391262.113
  22300334.388     5393242.04449   4179504.42546  22300334.000    22300342.813
  20963827.824    -3507027.07749  -2735542.25348  20963827.824    20963835.205
  21201806.308    -9711090.40749  -7563222.55547  21201806.305    21201814.956
 03  3 18 17  6 30.0000000  0  6G28G 4G 5G 7G 9G24
  24308947.135     7163853.06249   5555384.23245  24308946.796    24308958.856
  20596949.632    -4102058.74849  -3199053.48348  20596949.988    20596957.268
  22376252.588    -9797672.87249  -7634179.91946  22376252.283    22376260.934
  22312415.523     5456728.02249   4228973.93546  22312415.046    22312423.875
  20965034.743    -3500684.60349  -2730600.09648  20965034.788    20965042.187
  21189538.491    -9775558.14049  -7613457.13847  21189538.498    21189547.151
 03  3 18 17  7  0.0000000  0  6G28G 4G 5G 7G 9G24
  24324664.319     7246445.82549   5619741.89845  24324663.975    24324675.899
  20597450.060    -4099428.93149  -3197004.29347  20597450.432    20597457.685
  22361274.950    -9876381.27349  -7695511.11446  22361274.572    22361283.166
  22324511.488     5520293.12549   4278505.10146  22324511.053    22324519.980
  20966355.643    -3493743.33649  -2725191.35448  20966355.704    20966363.100
  21177359.506    -9839559.00949  -7663327.93547  21177359.489    21177368.166
 03  3 18 17  7 30.0000000  0  6G28G 4G 5G 7G 9G24
  24340414.377     7329211.60249   5684234.35445  24340414.101    24340426.076
  20598068.685    -4096178.20749  -3194471.27647  20598069.034    20598076.269
  22346320.955    -9954964.72349  -7756744.94546  22346320.624    22346329.205
  22336622.473     5583936.80849   4328097.49146  22336622.108    22336631.085
  20967790.531    -3486203.10149  -2719315.87348  20967790.571    20967797.968
  21165269.789    -9903090.77149  -7712833.19447  21165269.769    21165278.467
 03  3 18 17  8  0.0000000  0  6G28G 4G 5G 7G 9G24
  24356197.234     7412149.85149   5748861.19445  24356196.836    24356209.125
  20598805.319    -4092307.22249  -3191454.94648  20598805.673    20598812.927
  22331391.126   -10033421.84249  -7817880.34846  22331390.750    22331399.258
  22348748.489     5647657.98449   4377750.25146  22348747.994    22348756.904
  20969339.283    -3478064.14749  -2712973.86748  20969339.358    20969346.768
  21153269.682    -9966151.84949  -7761971.69247  21153269.596    21153278.373
 03  3 18 17  8 30.0000000  0  6G28G 4G 5G 7G 9G24
  24372012.807     7495260.19549   5813622.19345  24372012.406    24372024.736
  20599659.906    -4087816.59049  -3187955.77348  20599660.232    20599667.524
  22316485.630   -10111751.10549  -7878916.13246  22316485.209    22316493.695
  22360888.910     5711455.87749   4427462.80746  22360888.449    22360897.360
  20971001.938    -3469327.22949  -2706165.91348  20971001.967    20971009.389
  21141359.499   -10028740.17249  -7810741.80847  21141359.431    21141368.195
 03  3 18 17  9  0.0000000  0  6G28G 4G 5G 7G 9G24
  24387861.053     7578542.32549   5878517.03145  24387860.704    24387873.147
  20600632.413    -4082706.23849  -3183973.70348  20600632.719    20600639.996
  22301604.704   -10189950.76649  -7939850.90146  22301604.221    22301612.742
  22373043.650     5775330.07649   4477234.82346  22373043.315    22373052.339
  20972778.323    -3459992.33549  -2698892.00248  20972778.338    20972785.792
  21129539.746   -10090853.14449  -7859141.52447  21129539.724    21129548.482
 03  3 18 17  9 30.0000000  0  6G28G 4G 5G 7G 9G24
  24403742.034     7661995.61649   5943545.23845  24403741.662    24403754.199
  20601722.720    -4076976.92049  -3179509.32748  20601723.034    20601730.256
  22286748.601   -10268019.53849  -8000683.68446  22286748.185    22286756.657
  22385212.857     5839279.42149   4527065.40446  22385212.520    22385221.602
  20974668.388    -3450059.91949  -2691152.49148  20974668.429    20974675.883
  21117810.690   -10152489.60349  -7907169.93747  21117810.714    21117819.446
 03  3 18 17 10  0.0000000  0  6G28G 4G 5G 7G 9G24
  24419655.169     7745619.39949   6008706.26045  24419654.784    24419667.787
  20602930.613    -4070629.40749  -3174563.23448  20602930.918    20602938.209
  22271917.780   -10345956.04449  -8061413.41946  22271917.402    22271925.832
  22397396.316     5903302.79249   4576953.64746  22397395.886    22397404.975
  20976672.136    -3439530.53749  -2682947.81148  20976672.142    20976679.590
  21106172.650   -10213648.03649  -7954825.85847  21106172.671    21106181.419
 03  3 18 17 10 30.0000000  0  6G28G 4G 5G 7G 9G24
  24435600.724     7829413.12149   6073999.71745  24435600.475    24435613.381
  20604256.108    -4063663.68149  -3169135.41848  20604256.470    20604263.766
  22257112.492   -10423758.39249  -8122038.61146  22257112.112    22257120.493
  22409593.831     5967399.88449   4626899.34046  22409593.311    22409602.274
  20978789.334    -3428404.56249  -2674278.25348  20978789.356    20978796.816
  21094626.022   -10274326.24849  -8002107.58947  21094625.984    21094634.746
 03  3 18 17 11  0.0000000  0  6G28G 4G 5G 7G 9G24
  24451578.801     7913376.36649   6139425.26445  24451578.394    24451591.215
  20605699.165    -4056080.78649  -3163226.69748  20605699.501    20605706.747
  22242332.924   -10501425.25449  -8182558.22346  22242332.574    22242340.971
  22421805.188     6031569.60349   4676901.62646  22421804.548    22421813.481
  20981019.986    -3416682.74649  -2665144.40948  20981020.012    20981027.488
  21083171.001   -10334522.66849  -8049013.90147  21083170.984    21083179.686
 03  3 18 17 11 30.0000000  0  6G28G 4G 5G 7G 9G24
  24467588.985     7997509.30549   6204983.04845  24467588.600    24467601.461
  20607259.650    -4047880.50249  -3156836.89748  20607259.981    20607267.236
  22227579.689   -10578954.51749  -8242970.61846  22227579.287    22227587.666
  22434030.050     6095811.66449   4726960.27746  22434029.444    22434038.410
  20983363.964    -3404365.02949  -2655546.22548  20983364.009    20983371.468
  21071808.127   -10394234.91749  -8095542.93847  21071808.141    21071816.863
 03  3 18 17 12  0.0000000  0  6G28G 4G 5G 7G 9G24
  24483631.316     8081811.00149   6270672.31845  24483631.024    24483643.994
  20608937.362    -4039064.15549  -3149967.04648  20608937.689    20608945.005
  22212852.746   -10656345.08849  -8303274.93346  22212852.313    22212860.672
  22446268.425     6160124.87649   4777074.38046  22446267.892    22446276.889
  20985821.276    -3391452.17349  -2645484.29348  20985821.298    20985828.719
  21060537.647   -10453461.54949  -8141693.57047  21060537.683    21060546.416
 03  3 18 17 12 30.0000000  0  6G28G 4G 5G 7G 9G24
  24499705.698     8166280.47349   6336492.36845  24499705.236    24499718.209
  20610732.164    -4029632.59249  -3142617.80848  20610732.487    20610739.769
  22198152.445   -10733595.65549  -8363470.15846  22198151.989    22198160.353
  22458520.352     6224508.00249   4827242.96746  22458519.700    22458528.671
  20988391.714    -3377944.89349  -2634959.17248  20988391.729    20988399.117
  21049359.927   -10512201.01549  -8187464.58947  21049359.941    21049368.683
 03  3 18 17 13  0.0000000  0  6G28G 4G 5G 7G 9G24
  24515811.934     8250918.10549   6402443.41745  24515811.637    24515824.555
  20612643.958    -4019586.10149  -3134789.40447  20612644.283    20612651.571
  22183479.148   -10810704.36349  -8423554.84346  22183478.687    22183487.021
  22470785.259     6288960.64549   4877465.71646  22470784.719    22470793.779
  20991075.106    -3363843.81249  -2623971.35848  20991075.101    20991082.487
  21038275.227   -10570451.55949  -8232854.62847  21038275.215    21038283.951
 03  3 18 17 13 30.0000000  0  6G28G 4G 5G 7G 9G24
  24531949.976     8335722.55449   6468524.47345  24531949.584    24531962.680
  20614672.547    -4008925.67149  -3126482.60447  20614672.909    20614680.212
  22168833.087   -10887669.77049  -8483527.87646  22168832.646    22168840.967
  22483063.155     6353481.93149   4927741.95346  22483062.710    22483071.820
  20993871.309    -3349149.61749  -2612521.37548  20993871.295    20993878.700
  21027283.868   -10628211.66249  -8277862.49747  21027283.844    21027292.610
 03  3 18 17 14  0.0000000  0  6G28G 4G 5G 7G 9G24
  24548119.713     8420693.70049   6534735.39545  24548119.280    24548132.364
  20616818.058    -3997651.46949  -3117697.54248  20616818.373    20616825.651
  22154214.707   -10964489.74749  -8543387.57046  22154214.277    22154222.599
  22495354.012     6418071.60249   4978071.47346  22495353.671    22495362.902
  20996780.363    -3333862.37949  -2600609.27948  20996780.391    20996787.836
  21016386.180   -10685479.21849  -8322486.55247  21016386.189    21016395.023
 03  3 18 17 14 30.0000000  0  5G 4G 5G 7G 9G24
  20619081.814    -3985755.45449  -3108427.95347  20619082.126    20619089.414
  22139625.978   -11041154.03449  -8603125.96046  22139625.536    22139633.873
  22507659.566     6482737.52549   5028460.42646  22507659.202    22507668.521
  20999803.762    -3317974.27649  -2588228.98248  20999803.808    20999811.299
  21005584.274   -10742243.65249  -8366718.57347  21005584.297    21005593.089
 03  3 18 17 15  0.0000000  0  5G 4G 5G 7G 9G24
  20621463.891    -3973237.41749  -3098673.66947  20621464.237    20621471.560
  22125067.302   -11117659.95049  -8662740.92946  22125066.935    22125075.271
  22519979.758     6547480.05849   5078909.06446  22519979.383    22519988.600
  21002941.665    -3301484.68849  -2575379.99348  21002941.716    21002949.233
  20994878.634   -10798502.16749  -8410556.36647  20994878.678    20994887.447
 03  3 18 17 15 30.0000000  0  5G 4G 5G 7G 9G24
  20623960.511    -3960117.31549  -3088450.25147  20623960.919    20623968.267
  22110535.439   -11194024.96049  -8722246.11746  22110535.155    22110543.499
  22532310.865     6612279.38249   5129401.94946  22532310.426    22532319.666
  21006190.190    -3284413.55949  -2562077.85248  21006190.247    21006197.780
  20984265.848   -10854272.60749  -8454013.84447  20984265.905    20984274.652
 03  3 18 17 16  0.0000000  0  5G 4G 5G 7G 9G24
  20626572.604    -3946390.94449  -3077754.40647  20626572.981    20626580.349
  22096031.749   -11270242.37749  -8781636.29946  22096031.466    22096039.785
  22544653.312     6677139.74549   5179942.40746  22544652.941    22544662.249
  21009550.240    -3266756.49949  -2548319.14148  21009550.291    21009557.853
  20973747.272   -10909548.32049  -8497085.82547  20973747.307    20973756.025
 03  3 18 17 16 30.0000000  0  5G 4G 5G 7G 9G24
  20629300.376    -3932056.68249  -3066584.88047  20629300.722    20629308.075
  22081556.899   -11346308.39449  -8840908.50346  22081556.557    22081564.829
  22557007.818     6742062.85349   5230531.75746  22557007.388    22557016.835
  21013022.077    -3248512.15749  -2534102.80448  21013022.137    21013029.685
  20963323.517   -10964325.43749  -8539769.29447  20963323.563    20963332.238
 03  3 18 17 17  0.0000000  0  5G 4G 5G 7G 9G24
  20632143.737    -3917114.72249  -3054941.83147  20632144.104    20632151.486
  22067111.188   -11422220.73349  -8900060.95646  22067110.887    22067119.200
  22569374.329     6807048.66749   5281169.96646  22569373.807    22569383.296
  21016605.716    -3229680.31849  -2519428.67948  21016605.767    21016613.303
  20952995.178   -11018601.35549  -8582062.21547  20952995.203    20953003.845
 03  3 18 17 17 30.0000000  0  5G 4G 5G 7G 9G24
  20635102.572    -3901566.01049  -3042825.98247  20635102.935    20635110.332
  22052695.134   -11497977.47049  -8959092.15846  22052694.837    22052703.193
  22581752.517     6872096.54649   5331856.52246  22581752.108    22581761.595
  21020300.940    -3210261.80049  -2504297.40347  21020301.008    21020308.545
  20942762.534   -11072374.28749  -8623963.19247  20942762.557    20942771.248
 03  3 18 17 18  0.0000000  0  5G 4G 5G 7G 9G24
  20638176.691    -3885411.50149  -3030238.08547  20638177.067    20638184.442
  22038308.956   -11573577.08849  -9018000.93447  22038308.736    22038317.048
  22594142.704     6937205.72649   5382590.84846  22594142.171    22594151.565
  21024107.633    -3190257.60949  -2488709.75947  21024107.683    21024115.242
  20932625.829   -11125643.03149  -8665471.29747  20932625.845    20932634.532
 03  3 18 17 18 30.0000000  0  5G 4G 5G 7G 9G24
  20641366.054    -3868651.39849  -3017178.29747  20641366.449    20641373.828
  22023953.207   -11649017.09249  -9076785.33747  22023953.005    22023961.307
  22606544.152     7002376.02149   5433372.80446  22606543.656    22606553.069
  21028025.668    -3169667.95449  -2472665.91247  21028025.781    21028033.325
  20922585.429   -11178405.50049  -8706584.90547  20922585.485    20922594.129
 03  3 18 17 19  0.0000000  0  5G 4G 5G 7G 9G24
  20644670.612    -3851285.62649  -3003646.55947  20644671.052    20644678.425
  22009628.366   -11724294.60649  -9135443.12046  22009628.132    22009636.460
  22618957.356     7067608.06149   5484202.87446  22618956.942    22618966.473
  21032055.275    -3148492.54649  -2456165.63447  21032055.361    21032062.925
  20912641.880   -11230659.29549  -8747302.14247  20912641.909    20912650.580
 03  3 18 17 19 30.0000000  0  5G 4G 5G 7G 9G24
  20648090.210    -3833315.74149  -2989644.08347  20648090.644    20648098.007
  21995334.611   -11799408.62049  -9193973.51246  21995334.387    21995342.714
  22631382.109     7132900.54349   5535080.04646  22631381.720    22631391.359
  21036196.024    -3126732.57249  -2439209.84847  21036196.124    21036203.737
  20902795.297   -11282403.30249  -8787622.14347  20902795.326    20902803.980
 03  3 18 17 20  0.0000000  0  5G 4G 5G 7G 9G24
  20651624.610    -3814742.55849  -2975171.50247  20651625.017    20651632.383
  21981072.368   -11874357.34449  -9252375.09346  21981072.130    21981080.457
  22643818.318     7198252.88049   5586003.83746  22643817.921    22643827.652
  21040447.841    -3104389.04149  -2421799.34548  21040447.991    21040455.646
  20893046.009   -11333636.04149  -8827543.75047  20893046.065    20893054.737
 03  3 18 17 20 30.0000000  0  5G 4G 5G 7G 9G24
  20655273.308    -3795568.25549  -2960230.52247  20655273.781    20655281.179
  21966841.725   -11949140.04749  -9310647.32146  21966841.442    21966849.710
  22656265.681     7263663.55549   5636973.09346  22656265.303    22656274.941
  21044810.401    -3081463.99849  -2403935.71848  21044810.541    21044818.205
  20883394.222   -11384356.76149  -8867066.37947  20883394.237    20883402.889
 03  3 18 17 21  0.0000000  0  5G 4G 5G 7G 9G24
  20659036.246    -3775794.11649  -2944822.13847  20659036.716    20659044.117
  21952642.971   -12023755.44849  -9368789.17547  21952642.642    21952650.869
  22668723.938     7329131.46049   5687986.94646  22668723.529    22668733.089
  21049283.458    -3057958.70449  -2385619.94248  21049283.514    21049291.179
  20873839.988   -11434564.47149  -8906189.26247  20873840.021    20873848.671
 03  3 18 17 21 30.0000000  0  5G 4G 5G 7G 9G24
  20662913.469    -3755419.62349  -2928945.94347  20662913.872    20662921.279
  21938476.592   -12098200.20349  -9426798.05147  21938476.249    21938484.532
  22681193.248     7394657.68549   5739046.24346  22681192.737    22681202.369
  21053866.965    -3033872.39449  -2366851.42547  21053867.041    21053874.669
  20864383.908   -11484256.39149  -8944910.23447  20864383.958    20864392.613
 03  3 18 17 22  0.0000000  0  5G 4G 5G 7G 9G24
  20666904.843    -3734445.09649  -2912602.19647  20666905.239    20666912.639
  21924343.164   -12172471.74649  -9484671.96547  21924342.843    21924351.155
  22693673.482     7460242.31649   5790151.04346  22693673.087    22693682.860
  21058560.915    -3009205.43949  -2347630.45647  21058561.022    21058568.647
  20855026.407   -11533430.13749  -8983227.43847  20855026.486    20855035.091
 03  3 18 17 22 30.0000000  0  5G 4G 5G 7G 9G24
  20671010.002    -3712872.61949  -2895792.50747  20671010.377    20671017.783
  21910242.813   -12246569.34749  -9542410.33747  21910242.485    21910250.817
  22706164.779     7525883.97749   5841300.28746  22706164.360    22706174.146
  21063365.032    -2983959.64249  -2327958.44447  21063365.146    21063372.786
  20845767.615   -11582085.38449  -9021140.60947  20845767.685    20845776.314
 03  3 18 17 23  0.0000000  0  5G 4G 5G 7G 9G24
  20675228.450    -3690704.58549  -2878518.75047  20675228.857    20675236.284
  21896175.685   -12320492.33349  -9600012.64947  21896175.383    21896183.714
  22718666.543     7591580.71949   5892492.43946  22718666.105    22718676.015
  21068278.801    -2958137.35549  -2307837.21647  21068278.974    21068286.606
  20836607.543   -11630221.91149  -9058649.58347  20836607.637    20836616.229
 03  3 18 17 23 30.0000000  0  5G 4G 5G 7G 9G24
  20679559.858    -3667943.17449  -2860782.62347  20679560.248    20679567.680
  21882141.814   -12394240.19849  -9657478.50047  21882141.579    21882149.911
  22731178.712     7657330.76149   5943726.12546  22731178.172    22731188.024
  21073301.925    -2931740.80649  -2287268.51647  21073302.067    21073309.705
  20827546.272   -11677839.34849  -9095754.07447  20827546.300    20827554.908
 03  3 18 17 24  0.0000000  0  5G 4G 5G 7G 9G24
  20684004.150    -3644588.18949  -2842583.96747  20684004.601    20684012.014
  21868141.954   -12467809.74949  -9714805.40247  21868141.751    21868150.115
  22743700.989     7723134.95049   5995002.01346  22743700.474    22743710.214
  21078434.382    -2904769.67349  -2266252.08247  21078434.543    21078442.193
  20818584.191   -11724935.34149  -9132452.24247  20818584.234    20818592.838
 03  3 18 17 24 30.0000000  0  5G 4G 5G 7G 9G24
  20688561.415    -3620639.65649  -2823922.80547  20688561.857    20688569.311
  21854176.730   -12541197.91749  -9771990.97647  21854176.468    21854184.781
  22756233.426     7788994.04149   6046320.68346  22756232.998    22756242.770
  21083676.230    -2877223.76749  -2244787.77547  21083676.384    21083684.044
  20809721.819   -11771507.39149  -9168742.14447  20809721.859    20809730.461
 03  3 18 17 25  0.0000000  0  5G 4G 5G 7G 9G24
  20693231.646    -3596097.64949  -2804799.19347  20693232.073    20693239.534
  21840246.472   -12614401.93149  -9829033.04747  21840246.172    21840254.482
  22768776.314     7854908.45549   6097682.45946  22768776.044    22768785.860
  21089027.414    -2849103.34249  -2222875.79047  21089027.570    21089035.239
  20800959.604   -11817553.10849  -9204621.91547  20800959.655    20800968.249
 03  3 18 17 25 30.0000000  0  5G 4G 5G 7G 9G24
  20698014.329    -3570964.64549  -2785215.06847  20698014.772    20698022.206
  21826351.424   -12687421.18349  -9885931.14547  21826351.062    21826359.340
  22781329.589     7920876.54849   6149086.05046  22781329.403    22781339.327
  21094487.504    -2820410.63749  -2200517.86747  21094487.640    21094495.321
  20792297.589   -11863072.30149  -9240091.40448  20792297.622    20792306.235
 03  3 18 17 26  0.0000000  0  5G 4G 5G 7G 9G24
  20702908.850    -3545244.04549  -2765173.08147  20702909.264    20702916.713
  21812491.453   -12760255.66149  -9942685.26747  21812491.067    21812499.418
  22793892.972     7986895.86949   6200529.55546  22793892.676    22793902.574
  21100055.924    -2791148.70449  -2177716.39847  21100056.035    21100063.775
  20783735.674   -11908065.44949  -9275150.99148  20783735.719    20783744.343
 03  3 18 17 26 30.0000000  0  5G 4G 5G 7G 9G24
  20707914.642    -3518938.37649  -2744675.19547  20707915.079    20707922.553
  21798666.684   -12832905.09249  -9999295.19947  21798666.337    21798674.641
  22806465.749     8052964.30749   6252011.35546  22806465.342    22806475.202
  21105732.087    -2761320.21949  -2154473.46147  21105732.225    21105739.977
  20775273.836   -11952532.70349  -9309800.79048  20775273.857    20775282.529
 03  3 18 17 27  0.0000000  0  5G 4G 5G 7G 9G24
  20713032.000    -3492046.73549  -2723720.70347  20713032.436    20713039.892
  21784877.872   -12905365.51349 -10055757.84947  21784877.563    21784885.847
  22819047.917     8119083.72649   6303532.87046  22819047.502    22819057.356
  21111516.327    -2730924.03249  -2130788.15547  21111516.451    21111524.214
  20766912.599   -11996471.06749  -9344038.46548  20766912.636    20766921.317
 03  3 18 17 27 30.0000000  0  5G 4G 5G 7G 9G24
  20718260.816    -3464569.38349  -2702309.81347  20718261.226    20718268.661
  21771125.689   -12977633.98649 -10112070.93847  21771125.374    21771133.586
  22831639.825     8185254.61149   6355094.50246  22831639.375    22831649.331
  21117408.476    -2699960.49649  -2106660.76147  21117408.642    21117416.408
  20758652.522   -12039877.99549  -9377862.03447  20758652.574    20758661.250
 03  3 18 17 28  0.0000000  0  5G 4G 5G 7G 9G24
  20723600.947    -3436506.86149  -2680442.94247  20723601.349    20723608.820
  21757410.534   -13049707.80749 -10168232.34847  21757410.188    21757418.389
  22844241.357     8251477.17749   6406696.39546  22844241.101    22844251.154
  21123408.521    -2668430.18949  -2082091.72647  21123408.688    21123416.444
  20750493.888   -12082751.70349  -9411270.11248  20750493.962    20750502.620
 03  3 18 17 28 30.0000000  0  5G 4G 5G 7G 9G24
  20729051.820    -3407862.50249  -2658122.69547  20729052.246    20729059.765
  21743732.242   -13121587.12549 -10224242.18947  21743731.958    21743740.191
  22856852.578     8317748.82449   6458336.54546  22856852.320    22856862.338
  21129515.937    -2636336.05649  -2057083.34147  21129516.050    21129523.805
  20742436.541   -12125093.32449  -9444263.57148  20742436.630    20742445.274
 03  3 18 17 29  0.0000000  0  5G 4G 5G 7G 9G24
  20734612.937    -3378638.62749  -2635350.88147  20734613.396    20734620.953
  21730091.258   -13193270.83749 -10280099.61547  21730090.981    21730099.184
  22869472.989     8384068.73349   6510014.26846  22869472.743    22869482.758
  21135730.171    -2603680.13949  -2031637.20947  21135730.338    21135738.078
  20734480.654   -12166901.79349  -9476841.59048  20734480.738    20734489.393
 03  3 18 17 29 30.0000000  0  5G 4G 5G 7G 9G24
  20740283.823    -3348838.01149  -2612129.66247  20740284.290    20740291.839
  21716487.544   -13264758.67649 -10335804.41347  21716487.309    21716495.484
  22882102.501     8450434.64649   6561727.86546  22882102.020    22882111.844
  21142050.755    -2570465.45949  -2005755.67647  21142050.913    21142058.687
  20726626.081   -12208177.64049  -9509004.58748  20726626.225    20726634.855
 03  3 18 17 30  0.0000000  0  5G 4G 5G 7G 9G24
  20746064.641    -3318459.71049  -2588458.29747  20746065.088    20746072.637
  21702921.943   -13336046.41049 -10391353.27747  21702921.720    21702929.880
  22894740.682     8516848.43949   6613478.76146  22894740.231    22894750.022
  21148477.761    -2536691.28649  -1979438.17547  21148477.913    21148485.738
  20718873.445   -12248918.14849  -9540750.42848  20718873.572    20718882.187
 03  3 18 17 30 30.0000000  0  5G 4G 5G 7G 9G24
  20751955.443    -3287503.70249  -2564336.76747  20751955.890    20751963.451
  21689395.020   -13407130.93749 -10446743.80447  21689394.804    21689402.954
  22907388.058     8583311.08449   6665267.72846  22907387.645    22907397.532
  21155011.424    -2502357.05449  -1952684.27147  21155011.570    21155019.397
  20711223.185   -12289120.64149  -9572077.04348  20711223.308    20711231.911
 03  3 18 17 31  0.0000000  0  5G 4G 5G 7G 9G24
  20757955.810    -3255971.62449  -2539766.35347  20757956.266    20757963.885
  21675907.188   -13478010.14649 -10501974.34047  21675906.932    21675915.083
  22920044.543     8649822.21349   6717094.48346  22920044.253    22920054.343
  21161651.359    -2467464.22349  -1925495.09447  21161651.503    21161659.315
  20703675.583   -12328783.69449  -9602983.31148  20703675.684    20703684.279
 03  3 18 17 31 30.0000000  0  5G 4G 5G 7G 9G24
  20764065.189    -3223866.78149  -2514749.62847  20764065.656    20764073.283
  21662458.344   -13548684.04549 -10557044.89847  21662458.082    21662466.256
  22932710.115     8716379.43449   6768957.15446  22932709.785    22932719.916
  21168396.932    -2432016.24349  -1897873.32647  21168397.064    21168404.852
  20696230.405   -12367908.20049  -9633469.92748  20696230.508    20696239.100
 03  3 18 17 32  0.0000000  0  5G 4G 5G 7G 9G24
  20770283.173    -3191191.34349  -2489288.28947  20770283.622    20770291.225
  21649048.804   -13619151.48049 -10611954.57847  21649048.556    21649056.783
  22945384.352     8782981.81649   6820855.00546  22945384.001    22945394.052
  21175247.690    -2396015.17949  -1869820.58947  21175247.851    21175255.673
  20688887.820   -12406493.89049  -9663536.69248  20688887.931    20688896.488
 03  3 18 17 32 30.0000000  0  6G30G 4G 5G 7G 9G24
  24343563.463    -4024931.96549  -2893008.63245  24343563.951    24343573.135
  20776608.173    -3157953.34549  -2463388.59147  20776608.603    20776616.231
  21635677.684   -13689416.97149 -10666706.89347  21635677.502    21635685.757
  22958065.891     8849622.27749   6872782.52646  22958065.422    22958075.461
  21182202.236    -2359468.86249  -1841342.99047  21182202.406    21182210.253
  20681646.742   -12444546.28649  -9693187.90748  20681646.804    20681655.381
 03  3 18 17 33  0.0000000  0  6G30G 4G 5G 7G 9G24
  24324928.729    -4122858.53849  -2969315.09745  24324929.172    24324938.558
  20783041.567    -3124145.65549  -2437044.97547  20783042.039    20783049.681
  21622347.115   -13759469.87649 -10721293.55547  21622346.901    21622355.158
  22970756.113     8916309.25349   6924746.26846  22970755.557    22970765.737
  21189262.032    -2322369.90649  -1812434.76247  21189262.149    21189270.026
  20674508.940   -12482055.66549  -9722415.98848  20674508.985    20674517.598
 03  3 18 17 33 30.0000000  0  6G30G 4G 5G 7G 9G24
  24306292.566    -4220791.12849  -3045626.23145  24306293.123    24306302.892
  20789583.426    -3089768.60249  -2410257.70047  20789583.831    20789591.479
  21609057.463   -13829307.51249 -10775712.48147  21609057.211    21609065.506
  22983455.183     8983043.09149   6976746.54146  22983454.605    22983464.829
  21196426.758    -2284719.09849  -1783096.51847  21196426.889    21196434.775
  20667474.825   -12519020.05449  -9751219.39948  20667474.885    20667483.509
 03  3 18 17 34  0.0000000  0  6G30G 4G 5G 7G 9G24
  24287655.777    -4318729.10849  -3121941.55545  24287656.325    24287666.252
  20796233.026    -3054824.98249  -2383028.94047  20796233.387    20796241.039
  21595809.009   -13898928.46149 -10829962.55447  21595808.783    21595817.079
  22996162.793     9049822.94049   7028782.67446  22996162.369    22996172.737
  21203696.099    -2246518.90649  -1753330.18047  21203696.196    21203704.090
  20660544.481   -12555439.33849  -9779598.05948  20660544.553    20660553.170
 03  3 18 17 34 30.0000000  0  6G30G 4G 5G 7G 9G24
  24269017.817    -4416672.33449  -3198260.99045  24269018.387    24269028.242
  20802989.943    -3019317.25549  -2355360.61947  20802990.300    20802997.968
  21582601.974   -13968332.07749 -10884043.27747  21582601.706    21582610.000
  23008879.066     9116646.94749   7080853.20346  23008878.575    23008889.022
  21211069.412    -2207772.10049  -1723137.91247  21211069.522    21211077.444
  20653717.696   -12591314.28749  -9807552.55948  20653717.769    20653726.381
 03  3 18 17 35  0.0000000  0  6G30G 4G 5G 7G 9G24
  24250379.125    -4514620.11849  -3274583.96545  24250379.702    24250389.459
  20809853.715    -2983247.92249  -2327254.67847  20809854.098    20809861.764
  21569436.553   -14037517.11849 -10937953.68547  21569436.270    21569444.503
  23021603.449     9183513.98449   7132957.28546  23021603.066    23021613.435
  21218546.365    -2168480.59549  -1692521.19947  21218546.496    21218554.443
  20646994.666   -12626644.25449  -9835082.39348  20646994.733    20647003.343
 03  3 18 17 35 30.0000000  0  6G30G 4G 5G 7G 9G24
  24231739.715    -4612570.77549  -3350909.17245  24231740.455    24231750.092
  20816824.155    -2946618.16649  -2298712.04247  20816824.552    20816832.230
  21556313.090   -14106481.24349 -10991691.95347  21556312.855    21556321.012
  23034335.979     9250424.21349   7185094.99146  23034335.661    23034346.102
  21226126.736    -2128645.54749  -1661480.95247  21226126.858    21226134.807
  20640375.502   -12661428.09449  -9862186.67948  20640375.585    20640384.188
 03  3 18 17 36  0.0000000  0  6G30G 4G 5G 7G 9G24
  24213099.943    -4710523.64149  -3427236.11745  24213100.579    24213110.244
  20823900.718    -2909430.67749  -2269734.80447  20823901.143    20823908.789
  21543231.790   -14175223.59449 -11045257.40747  21543231.581    21543239.726
  23047076.748     9317376.18949   7237265.25246  23047076.411    23047086.788
  21233810.069    -2088269.64149  -1630019.25747  21233810.179    21233818.119
  20633860.212   -12695666.12449  -9888865.65448  20633860.286    20633868.890
 03  3 18 17 36 30.0000000  0  6G30G 4G 5G 7G 9G24
  24194460.028    -4808477.99449  -3503564.25045  24194460.693    24194470.199
  20831082.988    -2871687.66549  -2240324.69347  20831083.431    20831091.053
  21530192.982   -14243742.73749 -11098648.92947  21530192.798    21530200.964
  23059825.402     9384369.23449   7289467.49646  23059824.935    23059835.315
  21241595.964    -2047354.95749  -1598137.73247  21241596.049    21241603.970
  20627448.828   -12729358.22849  -9915119.23548  20627448.904    20627457.488
 03  3 18 17 37  0.0000000  0  6G30G 4G 5G 7G 9G24
  24175820.099    -4906431.86649  -3579892.01345  24175820.638    24175830.046
  20838370.753    -2833390.56349  -2210482.82347  20838371.156    20838378.799
  21517197.225   -14312036.10749 -11151864.51747  21517196.985    21517205.156
  23072581.505     9451403.18349   7341701.61946  23072581.124    23072591.606
  21249484.118    -2005902.68449  -1565837.30947  21249484.238    21249492.156
  20621141.579   -12762502.93749  -9940946.27548  20621141.641    20621150.219
 03  3 18 17 37 30.0000000  0  6G30G 4G 5G 7G 9G24
  24157180.609    -5004382.91649  -3656217.59345  24157181.081    24157190.463
  20845763.853    -2794539.80549  -2180209.53047  20845764.248    20845771.900
  21504244.980   -14380100.94349 -11204902.03447  21504244.691    21504252.809
  23085345.679     9518478.67049   7393968.11546  23085345.348    23085355.762
  21257474.390    -1963913.51349  -1533118.52747  21257474.526    21257482.453
  20614938.898   -12795098.25749  -9966345.21548  20614938.955    20614947.543
 03  3 18 17 38  0.0000000  0  6G30G 4G 5G 7G 9G24
  24138541.866    -5102330.83749  -3732540.75045  24138542.355    24138551.479
  20853261.713    -2755138.37349  -2149507.14447  20853262.107    20853269.771
  21491336.305   -14447936.48549 -11257760.88247  21491336.028    21491344.074
  23098117.586     9585594.34549   7446265.92346  23098117.176    23098127.498
  21265566.343    -1921390.35849  -1499983.65347  21265566.465    21265574.429
  20608840.660   -12827144.64549  -9991316.41648  20608840.736    20608849.344
 03  3 18 17 38 30.0000000  0  6G30G 4G 5G 7G 9G24
  24119903.722    -5200273.97349  -3808860.15945  24119904.338    24119913.544
  20860864.019    -2715187.94849  -2118376.96347  20860864.444    20860872.103
  21478471.625   -14515540.59649 -11310439.38547  21478471.344    21478479.393
  23110897.057     9652749.98549   7498594.87846  23110896.549    23110906.821
  21273759.594    -1878334.80649  -1466433.92647  21273759.693    21273767.670
  20602846.998   -12858641.43649 -10015859.35948  20602847.096    20602855.715
 03  3 18 17 39  0.0000000  0  6G30G 4G 5G 7G 9G24
  24101266.990    -5298210.65349  -3885174.54945  24101267.520    24101276.758
  20868570.507    -2674690.22849  -2086820.32847  20868570.919    20868578.616
  21465651.399   -14582910.95749 -11362935.74547  21465651.139    21465659.224
  23123683.992     9719945.43949   7550954.85146  23123683.497    23123693.737
  21282053.842    -1834748.28549  -1432470.45247  21282053.971    21282061.965
  20596958.075   -12889587.98449 -10039973.54748  20596958.182    20596966.742
 03  3 18 17 39 30.0000000  0  6G30G 4G 5G 7G 9G24
  24082631.776    -5396139.51249  -3961482.85045  24082632.291    24082641.586
  20876380.842    -2633646.92149  -2054838.55847  20876381.242    20876388.940
  21452876.055   -14650045.79749 -11415248.59047  21452875.823    21452883.897
  23136478.363     9787180.28449   7603345.53646  23136477.930    23136488.166
  21290448.725    -1790632.81749  -1398094.81047  21290448.869    21290456.884
  20591173.996   -12919983.61849 -10063658.44948  20591174.087    20591182.636
 03  3 18 17 40  0.0000000  0  6G30G 4G 5G 7G 9G24
  24063998.322    -5494059.25449  -4037784.03245  24063998.920    24064008.284
  20884294.548    -2592060.08949  -2022433.25747  20884294.953    20884302.660
  21440145.837   -14716943.43749 -11467376.60347  21440145.566    21440153.667
  23149280.164     9854453.93649   7655766.44646  23149279.747    23149290.112
  21298943.986    -1745990.07249  -1363308.30947  21298944.148    21298952.177
  20585494.851   -12949827.73049 -10086913.58948  20585494.918    20585503.513
 03  3 18 17 40 30.0000000  0  6G30G 4G 5G 7G 9G24
  24045366.764    -5591968.38449  -4114076.96045  24045367.369    24045376.848
  20892311.361    -2549931.56349  -1989605.86447  20892311.754    20892319.481
  21427461.193   -14783601.88249 -11519318.23147  21427460.888    21427468.998
  23162089.374     9921766.11049   7708217.38346  23162088.919    23162099.423
  21307539.312    -1700821.92349  -1328112.39347  21307539.417    21307547.427
  20579920.743   -12979119.78449 -10109738.55648  20579920.837    20579929.463
 03  3 18 17 41  0.0000000  0  6G30G 4G 5G 7G 9G24
  24026737.547    -5689866.26349  -4190361.09645  24026738.036    24026747.659
  20900430.644    -2507264.28349  -1956358.65347  20900431.083    20900438.877
  21414822.159   -14850020.02549 -11571072.61047  21414821.927    21414830.024
  23174905.694     9989115.65249   7760697.41946  23174905.226    23174915.806
  21316234.041    -1655131.25949  -1292509.32747  21316234.118    21316242.110
  20574451.657   -13007860.05749 -10132133.56348  20574451.754    20574460.356
 03  3 18 17 41 30.0000000  0  6G30G 4G 5G 7G 9G24
  24008110.674    -5787750.87949  -4266634.86145  24008111.281    24008121.100
  20908652.282    -2464059.41049  -1922692.54147  20908652.741    20908660.553
  21402229.441   -14916195.36349 -11622637.79747  21402229.205    21402237.301
  23187729.204    10056502.86149   7813206.81746  23187728.769    23187739.367
  21325027.949    -1608919.25449  -1256500.03347  21325028.050    21325036.065
  20569087.732   -13036047.69149 -10154097.94748  20569087.827    20569096.389
 03  3 18 17 42  0.0000000  0  6G30G 4G 5G 7G 9G24
  23989486.861    -5885620.64549  -4342897.07545  23989487.273    23989497.487
  20916975.937    -2420318.73949  -1888608.93247  20916976.359    20916984.120
  21389683.270   -14982125.96749 -11674012.28247  21389683.001    21389691.123
  23200559.871    10123927.31649   7865745.22746  23200559.406    23200570.062
  21333920.682    -1562187.76549  -1220085.93447  21333920.784    21333928.858
  20563829.142   -13063681.71449 -10175630.94748  20563829.247    20563837.801
 03  3 18 17 42 30.0000000  0  6G30G 4G 5G 7G 9G24
  23970866.061    -5983474.17649  -4419146.65445  23970866.524    23970876.772
  20925401.019    -2376044.37949  -1854109.46047  20925401.446    20925409.253
  21377184.061   -15047809.91549 -11725194.56247  21377183.744    21377191.869
  23213397.296    10191388.58849   7918312.33446  23213396.870    23213407.716
  21342911.918    -1514938.68149  -1183268.51447  21342912.029    21342920.147
  20558675.933   -13090761.85149 -10196732.33848  20558676.045    20558684.586
 03  3 18 17 43  0.0000000  0  6G30G 4G 5G 7G 9G24
  23952248.732    -6081309.42949  -4495381.95545  23952249.143    23952259.485
  20933927.410    -2331237.93349  -1819195.37447  20933927.883    20933935.736
  21364732.214   -15113244.55249 -11776182.57347  21364731.894    21364740.051
  23226241.805    10258887.16449   7970908.49946  23226241.458    23226252.486
  21352001.460    -1467173.24949  -1146048.75847  21352001.537    21352009.627
  20553628.310   -13117287.36049 -10217401.56348  20553628.419    20553636.949
 03  3 18 17 43 30.0000000  0  6G30G 4G 5G 7G 9G24
  23933634.981    -6179125.64949  -4571602.44545  23933635.420    23933645.799
  20942554.694    -2285901.85749  -1783868.59647  20942555.121    20942562.962
  21352328.029   -15178428.82949 -11826975.50647  21352327.731    21352335.924
  23239093.372    10326421.72049   8023532.71246  23239092.911    23239104.072
  21361188.652    -1418894.28449  -1108428.84647  21361188.747    21361196.823
  20548686.207   -13143258.16649 -10237638.54748  20548686.350    20548694.867
 03  3 18 17 44  0.0000000  0  6G30G 4G 5G 7G 9G24
  23915025.291    -6276921.22849  -4647806.80245  23915025.652    23915036.027
  20951282.289    -2240038.13649  -1748130.65447  20951282.679    20951290.532
  21339971.830   -15243360.63949 -11877571.70347  21339971.615    21339979.822
  23251951.611    10393992.09849   8076184.83546  23251951.160    23251962.219
  21370473.171    -1370103.75449  -1070410.30547  21370473.309    21370481.404
  20543849.718   -13168673.98949 -10257443.07348  20543849.849    20543858.374
 03  3 18 17 44 30.0000000  0  6G30G 4G 5G 7G 9G24
  23896419.660    -6374694.03449  -4723993.44845  23896420.253    23896430.406
  20960109.964    -2193648.32849  -1711982.77547  20960110.377    20960118.224
  21327664.258   -15308037.45449 -11927969.20847  21327664.045    21327672.204
  23264816.498    10461598.69549   8128865.16846  23264816.164    23264827.302
  21379854.839    -1320802.91149  -1031994.12347  21379854.964    21379863.108
  20539119.000   -13193534.06849 -10276814.55148  20539119.114    20539127.699
 03  3 18 17 45  0.0000000  0  6G30G 4G 5G 7G 9G24
  23877818.861    -6472442.44649  -4800161.06945  23877819.519    23877829.502
  20969037.458    -2146734.34949  -1675426.46447  20969037.877    20969045.661
  21315405.602   -15372457.26349 -11978166.44547  21315405.362    21315413.481
  23277688.346    10529241.14649   8181573.44546  23277688.072    23277699.235
  21389333.267    -1270993.68549   -993181.79147  21389333.433    21389341.619
  20534494.147   -13217837.78049 -10295752.49248  20534494.255    20534502.852
 03  3 18 17 45 30.0000000  0  6G30G 4G 5G 7G 9G24
  23859223.010    -6570165.49749  -4876308.91445  23859223.514    23859233.341
  20978064.146    -2099298.84949  -1638463.77247  20978064.568    20978072.376
  21303196.077   -15436618.79349 -12028162.43047  21303195.824    21303203.911
  23290566.958    10596918.50049   8234308.91245  23290566.696    23290577.857
  21398907.842    -1220678.90949   -953975.52647  21398908.034    21398916.277
  20529975.125   -13241585.34349 -10314257.07848  20529975.254    20529983.806
 03  3 18 17 46  0.0000000  0  6G30G 4G 5G 7G 9G24
  23840631.723    -6667862.93049  -4952436.80245  23840632.363    23840642.129
  20987189.459    -2051344.77049  -1601096.98747  20987189.881    20987197.759
  21291035.897   -15500520.97749 -12077956.32547  21291035.613    21291043.692
  23303452.211    10664629.36449   8287070.48646  23303451.865    23303462.841
  21408578.175    -1169861.55249   -914377.63747  21408578.309    21408586.511
  20525561.793   -13264777.53849 -10332328.90448  20525561.909    20525570.469
 03  3 18 17 46 30.0000000  0  6G30G 4G 5G 7G 9G24
  23822045.975    -6765532.14949  -5028542.70845  23822046.451    23822055.998
  20996413.282    -2002873.78049  -1563327.43047  20996413.675    20996421.539
  21278925.608   -15564161.11949 -12127546.03047  21278925.297    21278933.381
  23316343.723    10732374.50349   8339858.77546  23316343.451    23316354.561
  21418343.814    -1118542.75349   -874389.01247  21418343.959    21418352.136
  20521254.371   -13287413.32149 -10349967.16448  20521254.481    20521263.015
 03  3 18 17 47  0.0000000  0  6G30G 4G 5G 7G 9G24
  23803465.802    -6863171.34949  -5104625.20045  23803466.254    23803475.928
  21005735.077    -1953887.54649  -1525156.38347  21005735.482    21005743.350
  21266865.523   -15627537.04449 -12176929.85347  21266865.245    21266873.357
  23329241.960    10800153.64949   8392673.55346  23329241.571    23329252.658
  21428204.532    -1066724.45049   -834011.16447  21428204.682    21428212.822
  20517052.933   -13309492.08749 -10367171.38848  20517053.030    20517061.554
 03  3 18 17 47 30.0000000  0  6G30G 4G 5G 7G 9G24
  23784891.354    -6960779.93749  -5180683.83445  23784891.882    23784901.836
  21015154.364    -1904388.94049  -1486586.07847  21015154.791    21015162.631
  21254855.973   -15690647.66449 -12226106.95047  21254855.690    21254863.804
  23342146.521    10867965.86249   8445514.10846  23342146.038    23342156.967
  21438159.783    -1014409.60049   -793246.39347  21438159.921    21438168.073
  20512957.389   -13331014.32049 -10383941.94948  20512957.485    20512966.001
 03  3 18 17 48  0.0000000  0  6G30G 4G 5G 7G 9G24
  23766323.298    -7058355.32449  -5256716.59945  23766323.797    23766333.870
  21024670.953    -1854379.24649  -1447617.52647  21024671.353    21024679.179
  21242897.466   -15753490.15549 -12275075.11747  21242897.169    21242905.303
  23355057.377    10935811.65949   8498380.82046  23355056.830    23355067.753
  21448209.223     -961599.49449   -752095.71147  21448209.393    21448217.597
  20508967.993   -13351978.91349 -10400277.99348  20508968.047    20508976.546
 03  3 18 17 48 30.0000000  0  6G30G 4G 5G 7G 9G24
  23747761.848    -7155895.77849  -5332722.14145  23747762.456    23747772.600
  21034284.411    -1803860.55349  -1408252.35147  21034284.778    21034292.631
  21230990.379   -15816062.24749 -12323832.59047  21230990.091    21230998.237
  23367974.440    11003691.00949   8551273.68346  23367973.908    23367984.928
  21458352.552     -908296.04649   -710560.60747  21458352.741    21458360.994
  20505084.570   -13372386.19049 -10416179.75448  20505084.645    20505093.132
 03  3 18 17 49  0.0000000  0  6G30G 4G 5G 7G 9G24
  23729207.478    -7253399.70149  -5408699.21545  23729208.032    23729218.173
  21043994.189    -1752835.06549  -1368492.26747  21043994.616    21044002.507
  21219135.093   -15878362.06249 -12372377.88547  21219134.829    21219142.987
  23380897.778    11071603.43149   8604192.32546  23380897.321    23380908.406
  21468589.416     -854501.44649   -668642.78747  21468589.575    21468597.844
  20501307.323   -13392235.46149 -10431646.70448  20501307.450    20501315.917
 03  3 18 17 49 30.0000000  0  6G30G 4G 5G 7G 9G24
  23710660.283    -7350865.88549  -5484646.86345  23710660.861    23710671.008
  21053800.107    -1701305.13149  -1328339.11347  21053800.507    21053808.369
  21207331.942   -15940387.95849 -12420709.74047  21207331.700    21207339.844
  23393827.280    11139548.44049   8657136.35246  23393826.851    23393838.120
  21478919.230     -800218.23849   -626344.22847  21478919.383    21478927.612
  20497636.269   -13411527.10649 -10446679.14248  20497636.392    20497644.874
 03  3 18 17 50  0.0000000  0  6G30G 4G 5G 7G 9G24
  23692120.840    -7448292.09449  -5560563.39145  23692121.376    23692131.296
  21063701.625    -1649272.53549  -1287794.26947  21063702.003    21063709.864
  21195581.414   -16002137.33149 -12468826.12047  21195581.165    21195589.311
  23406763.131    11207526.37649   8710106.04046  23406762.646    23406774.020
  21489341.707     -745447.82649   -583666.03147  21489341.878    21489350.079
  20494071.476   -13430260.19749 -10461276.34948  20494071.589    20494080.051
 03  3 18 17 50 30.0000000  0  6G30G 4G 5G 7G 9G24
  23673589.244    -7545677.18649  -5636447.84945  23673589.665    23673599.638
  21073698.309    -1596739.76849  -1246859.68947  21073698.672    21073706.508
  21183883.747   -16063608.65649 -12516725.84247  21183883.503    21183891.655
  23419704.866    11275536.58849   8763100.85245  23419704.526    23419715.938
  21499856.377     -690192.85149   -540610.25447  21499856.589    21499864.805
  20490612.883   -13448435.33249 -10475438.77548  20490612.964    20490621.424
 03  3 18 17 51  0.0000000  0  6G30G 4G 5G 7G 9G24
  23655065.673    -7643019.65649  -5712299.11345  23655066.068    23655075.901
  21083789.668    -1543709.45849  -1205537.41347  21083790.026    21083797.838
  21172239.310   -16124800.18849 -12564407.53447  21172239.094    21172247.267
  23432652.829    11343578.55349   8816120.40945  23432652.552    23432663.949
  21510462.805     -634455.98449   -497178.97147  21510462.996    21510471.208
  20487260.406   -13466052.73049 -10489166.60548  20487260.485    20487268.952
 03  3 18 17 51 30.0000000  0  6G30G 4G 5G 7G 9G24
  23636550.304    -7740318.27649  -5788116.21645  23636550.766    23636560.506
  21093975.187    -1490184.11849  -1163829.39047  21093975.565    21093983.430
  21160648.531   -16185710.34249 -12611869.98047  21160648.268    21160656.426
  23445607.000    11411651.84549   8869164.36346  23445606.585    23445617.949
  21521160.524     -578239.53249   -453373.98947  21521160.690    21521168.916
  20484014.132   -13483112.30249 -10502459.76648  20484014.172    20484022.643
 03  3 18 17 52  0.0000000  0  6G30G 4G 5G 7G 9G24
  23618043.720    -7837570.99249  -5863897.53845  23618044.178    23618053.894
  21104254.607    -1436165.60749  -1121737.08047  21104254.988    21104262.916
  21149111.697   -16246336.99149 -12659111.50747  21149111.425    21149119.542
  23458567.011    11479756.38349   8922232.70045  23458566.622    23458577.910
  21531949.027     -521545.70149   -409197.02447  21531949.132    21531957.472
  20480873.906   -13499614.03449 -10515318.24148  20480873.956    20480882.443
 03  3 18 17 52 30.0000000  0  6G30G 4G 5G 7G 9G24
  23599546.144    -7934776.35649  -5939641.97345  23599546.614    23599556.279
  21114627.360    -1381656.44649  -1079262.44647  21114627.737    21114635.673
  21137629.174   -16306678.17549 -12706130.60047  21137628.894    21137637.013
  23471533.099    11547891.77949   8975325.06145  23471532.596    23471543.755
  21542827.898     -464376.85849   -364649.93047  21542828.050    21542836.422
  20477839.762   -13515558.19649 -10527742.25048  20477839.876    20477848.344
 03  3 18 17 53  0.0000000  0  6G30G 4G 5G 7G 9G24
  23581057.808    -8031932.86749  -6015348.33345  23581058.293    23581067.894
  21125093.007    -1326658.95449  -1036407.29347  21125093.442    21125101.333
  21126201.244   -16366732.07949 -12752925.83447  21126201.005    21126209.107
  23484504.789    11616057.68449   9028441.19745  23484504.306    23484515.388
  21553796.760     -406735.40949   -319734.55847  21553796.897    21553805.283
  20474911.804   -13530944.75149 -10539731.75848  20474911.913    20474920.337
 03  3 18 17 53 30.0000000  0  6G30G 4G 5G 7G 9G24
  23562579.046    -8129038.11549  -6091014.74445  23562579.685    23562589.267
  21135651.331    -1271174.91549   -993173.01547  21135651.733    21135659.663
  21114828.572   -16426496.19849 -12799495.26547  21114828.298    21114836.372
  23497482.477    11684254.59149   9081581.51045  23497481.942    23497492.999
  21564855.259     -348622.90449   -274452.13247  21564855.371    21564863.736
  20472090.049   -13545773.18449 -10551286.36648  20472090.157    20472098.610
 03  3 18 17 54  0.0000000  0  6G30G 4G 5G 7G 9G24
  23544110.634    -8226090.43349  -6166639.94645  23544111.271    23544120.841
  21146301.789    -1215206.51449   -949561.31747  21146302.219    21146310.206
  21103511.395   -16485968.26649 -12845837.12347  21103511.093    21103519.210
  23510465.771    11752482.44049   9134745.90045  23510465.463    23510476.518
  21576002.881     -290041.64949   -228804.45447  21576003.034    21576011.399
  20469374.473   -13560043.44649 -10562406.03248  20469374.587    20469383.049
 03  3 18 17 54 30.0000000  0  6G30G 4G 5G 7G 9G24
  23525652.457    -8323088.48149  -6242222.80145  23525653.040    23525662.773
  21157043.925    -1158756.42949   -905574.27447  21157044.323    21157052.312
  21092250.092   -16545146.79549 -12891950.25247  21092249.809    21092257.924
  23523455.032    11820740.39849   9187933.76545  23523454.710    23523465.645
  21587239.195     -230994.59249   -182793.80347  21587239.345    21587247.760
  20466764.982   -13573756.24149 -10573091.31348  20466765.103    20466773.555
 03  3 18 17 55  0.0000000  0  6G30G 4G 5G 7G 9G24
  23507204.946    -8420030.58649  -6317762.07245  23507205.510    23507215.228
  21167877.270    -1101827.16649   -861213.84847  21167877.683    21167885.584
  21081044.970   -16604029.74149 -12937833.05447  21081044.697    21081052.814
  23536449.904    11889028.36449   9241145.01645  23536449.604    23536460.499
  21598563.693     -171483.98249   -136421.95147  21598563.865    21598572.317
  20464261.706   -13586911.17849 -10583341.90048  20464261.816    20464270.232
 03  3 18 17 55 30.0000000  0  6G30G 4G 5G 7G 9G24
  23488768.360    -8516915.08949  -6393256.46145  23488768.984    23488778.778
  21178801.354    -1044420.94449   -816481.76447  21178801.751    21178809.638
  21069896.526   -16662615.21549 -12983484.06447  21069896.244    21069904.331
  23549450.473    11957346.19749   9294379.52745  23549450.195    23549461.082
  21609975.936     -111512.19949    -89690.74147  21609976.145    21609984.580
  20461864.386   -13599509.01549 -10593158.37848  20461864.496    20461872.921
 03  3 18 17 56  0.0000000  0  6G30G 4G 5G 7G 9G24
  23470343.181    -8613740.27749  -6468704.64945  23470343.909    23470353.565
  21189815.717     -986540.26849   -771379.96747  21189816.106    21189824.011
  21058804.997   -16720901.35349 -13028901.82747  21058804.743    21058812.813
  23562456.707    12025693.49549   9347637.01045  23562456.310    23562467.335
  21621475.576      -51081.46049    -42601.89947  21621475.754    21621484.167
  20459573.036   -13611549.97549 -10602540.92448  20459573.152    20459581.600
 03  3 18 17 56 30.0000000  0  6G30G 4G 5G 7G 9G24
  23451929.699    -8710504.46749  -6544105.31545  23451930.206    23451939.852
  21200919.891     -928187.51949   -725910.33647  21200920.318    21200928.178
  21047770.905   -16778886.13449 -13074084.76547  21047770.632    21047778.656
  23575468.450    12094070.01149   9400917.25845  23575468.053    23575479.168
  21633062.019        9805.49149      4842.43047  21633062.213    21633070.625
  20457387.691   -13623034.08149 -10611489.56448  20457387.795    20457396.215
 03  3 18 17 57  0.0000000  0  6G30G 4G 5G 7G 9G24
  23433528.072    -8807205.72149  -6619456.93645  23433528.476    23433538.096
  21212113.538     -869364.81549   -680074.50147  21212113.949    21212121.773
  21036794.496   -16836567.48449 -13119031.26247  21036794.230    21036802.226
  23588485.669    12162475.87549   9454220.39545  23588485.321    23588496.672
  21644734.858       71146.39349     52640.48547  21644735.022    21644743.492
  20455308.335   -13633961.18049 -10620004.17248  20455308.435    20455316.842
 03  3 18 17 57 30.0000000  0  6G30G 4G 5G 7G 9G24
  23415138.715    -8903842.21849  -6694758.08445  23415139.096    23415148.693
  21223396.074     -810074.47849   -633874.27147  21223396.498    21223404.422
  21025876.225   -16893943.16249 -13163739.56547  21025876.029    21025883.981
  23601508.662    12230910.96449   9507546.26945  23601508.305    23601519.560
  21656493.631      132938.99249    100790.52047  21656493.811    21656502.285
  20453334.878   -13644331.44749 -10628084.87748  20453334.991    20453343.402
 03  3 18 17 58  0.0000000  0  6G30G 4G 5G 7G 9G24
  23396761.969    -9000412.06049  -6770007.28645  23396762.529    23396772.107
  21234767.198     -750318.94249   -587311.55147  21234767.636    21234775.611
  21015016.585   -16951011.21349 -13208208.16047  21015016.367    21015024.332
  23614536.927    12299375.14549   9560894.83445  23614536.626    23614547.997
  21668337.983      195181.04549    149290.77347  21668338.122    21668346.581
  20451467.361   -13654145.35849 -10635732.06848  20451467.464    20451475.882
 03  3 18 17 58 30.0000000  0  6G30G 4G 5G 7G 9G24
  23378398.574    -9096913.65449  -6845203.31545  23378398.931    23378408.369
  21246226.418     -690100.60549   -540388.21147  21246226.833    21246234.834
  21004215.755   -17007769.80149 -13252435.61547  21004215.544    21004223.518
  23627570.749    12367868.24849   9614265.92145  23627570.503    23627581.915
  21680267.229      257869.95449    198139.21847  21680267.413    21680275.875
  20449705.605   -13663403.41449 -10642946.12248  20449705.683    20449714.113
 03  3 18 17 59  0.0000000  0  6G30G 4G 5G 7G 9G24
  23360048.209    -9193345.55949  -6920345.03345  23360048.615    23360058.191
  21257773.074     -629422.33349   -493106.47147  21257773.519    21257781.490
  20993474.203   -17064217.15349 -13296420.54847  20993473.990    20993481.962
  23640610.095    12436389.68149   9667659.09345  23640609.816    23640621.377
  21692281.107      321002.93249    247333.69647  21692281.286    21692289.758
  20448049.539   -13672105.88849 -10649727.25748  20448049.650    20448058.113
 03  3 18 17 59 30.0000000  0  6G30G 4G 5G 7G 9G24
  23341711.277    -9289705.83149  -6995430.93445  23341711.839    23341721.457
  21269406.979     -568286.32449   -445468.05947  21269407.396    21269415.344
  20982792.208   -17120351.30349 -13340161.43247  20982792.016    20982800.010
  23653654.894    12504939.48249   9721074.37845  23653654.526    23653666.156
  21704379.038      384577.61849    296872.36047  21704379.201    21704387.717
  20446499.172   -13680253.12549 -10656075.74448  20446499.283    20446507.726
 03  3 18 18  0  0.0000000  0  6G30G 4G 5G 7G 9G24
  23323388.559    -9385992.27849  -7070459.28645  23323389.154    23323398.867
  21281127.545     -506694.66949   -397474.60047  21281127.942    21281135.929
  20972170.238   -17176169.98749 -13383656.49947  20972170.039    20972178.035
  23666704.945    12573517.78249   9774511.85045  23666704.601    23666716.384
  21716560.519      448591.80749    346753.49247  21716560.738    21716569.276
  20445054.417   -13687845.27949 -10661991.69748  20445054.513    20445062.973
 03  3 18 18  0 30.0000000  0  6G30G 4G 5G 7G 9G24
  23305080.220    -9482203.37749  -7145428.93145  23305080.769    23305090.392
  21292934.185     -444649.90749   -349128.07247  21292934.658    21292942.683
  20961608.753   -17231671.22049 -13426904.20047  20961608.520    20961616.497
  23679760.340    12642124.38949   9827971.37945  23679760.133    23679771.976
  21728825.260      513042.77449    396974.97147  21728825.397    21728833.921
  20443715.255   -13694882.55049 -10667475.27748  20443715.370    20443723.802
 03  3 18 18  1  0.0000000  0  6G30G 4G 5G 7G 9G24
  23286786.484    -9578337.30449  -7220338.45545  23286787.003    23286796.670
  21304826.677     -382154.88049   -300430.68747  21304827.115    21304835.145
  20951107.887   -17286853.31049 -13469903.21247  20951107.670    20951115.660
  23692821.078    12710758.81949   9881452.59645  23692820.881    23692832.955
  21741172.483      577927.83249    447534.70647  21741172.619    21741181.164
  20442481.525   -13701365.87849 -10672527.21048  20442481.644    20442490.054
 03  3 18 18  1 30.0000000  0  6G30G 4G 5G 7G 9G24
  23268507.737    -9674392.46549  -7295186.60846  23268508.337    23268518.013
  21316804.322     -319212.21349   -251384.49247  21316804.763    21316812.803
  20940668.142   -17341714.34349 -13512652.05647  20940667.967    20940675.943
  23705887.269    12779421.07349   9934955.49345  23705887.016    23705899.145
  21753601.819      643244.40949    498430.68347  21753601.955    21753610.582
  20441353.089   -13707295.83849 -10677147.94848  20441353.206    20441361.615
 03  3 18 18  2  0.0000000  0  6G30G 4G 5G 7G 9G24
  23250244.387    -9770366.97249  -7369971.91346  23250245.000    23250254.660
  21328866.688     -255824.04749   -201991.15347  21328867.103    21328875.196
  20930289.888   -17396252.30649 -13555149.15747  20930289.722    20930297.663
  23718958.539    12848110.92249   9988479.88545  23718958.336    23718970.589
  21766112.839      708989.95349    549660.91247  21766112.973    21766121.647
  20440329.823   -13712672.69249 -10681337.69348  20440329.994    20440338.398
 03  3 18 18  2 30.0000000  0  6G30G 4G 5G 7G 9G24
  23231996.677    -9866258.96049  -7444692.89746  23231997.273    23232006.910
  21341013.319     -191993.14249   -152252.83147  21341013.744    21341021.834
  20919973.546   -17450465.13249 -13597392.90647  20919973.344    20919981.275
  23732035.016    12916828.34349  10042025.77145  23732034.875    23732047.239
  21778704.994      775162.02549    601223.50247  21778705.146    21778713.813
  20439411.873   -13717496.70949 -10685096.66348  20439412.029    20439420.403
 03  3 18 18  3  0.0000000  0  6G30G 4G 5G 7G 9G24
  23213765.285    -9962066.19449  -7519347.84946  23213765.805    23213775.417
  21353243.879     -127721.48849   -102171.06647  21353244.317    21353252.334
  20909719.506   -17504350.52149 -13639381.50347  20909719.313    20909727.242
  23745116.735    12985573.46249  10095593.25545  23745116.558    23745129.267
  21791377.869      841758.17649    653116.54547  21791378.013    21791386.682
  20438599.120   -13721768.09849 -10688425.01248  20438599.242    20438607.601
 03  3 18 18  3 30.0000000  0  6G30G 4G 5G 7G 9G24
  23195550.303   -10057787.01349  -7593935.46146  23195550.734    23195560.260
  21365557.758      -63011.58249    -51747.79947  21365558.202    21365566.251
  20899528.149   -17557906.56149 -13681113.46847  20899527.908    20899535.877
  23758203.734    13054346.01549  10149182.08545  23758203.607    23758216.364
  21804130.931      908775.85549    705338.05647  21804131.094    21804139.762
  20437891.300   -13725487.58949 -10691323.30448  20437891.402    20437899.815
 03  3 18 18  4  0.0000000  0  6G30G 4G 5G 7G 9G24
  23177351.924   -10153419.60649  -7668454.31946  23177352.463    23177361.951
  21377954.503        2133.66749      -985.31247  21377954.980    21377963.047
  20889399.717   -17611131.52249 -13722587.44847  20889399.500    20889407.534
  23771295.834    13123145.72949  10202792.08645  23771295.734    23771308.669
  21816963.858      976212.46149    757885.99147  21816963.950    21816972.614
  20437288.335   -13728655.99349 -10693792.18048  20437288.480    20437296.882
 03  3 18 18  4 30.0000000  0  7G30G10G 4G 5G 7G 9G24
  23159169.381   -10248969.26749  -7742908.54546  23159169.901    23159179.423
  24565455.207    -4749695.28749  -3679478.15845  24565454.789    24565470.345
  21390432.366       67704.81449     50109.04247  21390432.841    21390440.872
  20879333.344   -17664030.51249 -13763807.41847  20879333.128    20879341.202
  23784391.917    13191965.63049  10256417.80045  23784391.868    23784404.822
  21829874.503     1044058.20549    810752.74347  21829874.592    21829883.281
  20436788.927   -13731280.62049 -10695837.33648  20436789.055    20436797.432
 03  3 18 18  5  0.0000000  0  7G30G10G 4G 5G 7G 9G24
  23141004.961   -10344423.71349  -7817288.57446  23141005.505    23141014.934
  24546612.582    -4848713.72149  -3756635.21544  24546612.064    24546627.813
  21402992.602      133709.46849    101541.19247  21402993.076    21403001.168
  20869331.343   -17716591.31449 -13804763.86447  20869331.093    20869339.183
  23797493.897    13260815.79149  10310067.13545  23797493.788    23797506.796
  21842864.424     1112320.59949    863944.15347  21842864.559    21842873.209
  20436394.745   -13733352.01149 -10697451.39848  20436394.858    20436403.250
 03  3 18 18  5 30.0000000  0  7G30G10G 4G 5G 7G 9G24
  23122858.799   -10439782.32849  -7891593.93246  23122859.318    23122868.695
  24527758.374    -4947792.34449  -3833839.21245  24527757.918    24527773.754
  21415634.674      200144.00949    153308.32847  21415635.164    21415643.218
  20859393.855   -17768812.94549 -13845456.02147  20859393.652    20859401.723
  23810601.035    13329694.94849  10363739.01845  23810601.053    23810614.347
  21855933.009     1180995.91049    917457.31647  21855933.102    21855941.734
  20436105.476   -13734871.78849 -10698635.62148  20436105.608    20436114.027
 03  3 18 18  6  0.0000000  0  7G30G10G 4G 5G 7G 9G24
  23104731.194   -10535044.14449  -7965823.85846  23104731.567    23104740.870
  24508893.132    -5046929.39849  -3911088.72745  24508892.627    24508908.611
  21428358.017      267004.91149    205407.68547  21428358.436    21428366.445
  20849521.068   -17820694.67049 -13885883.31947  20849520.837    20849528.907
  23823713.824    13398601.98349  10417432.65145  23823713.746    23823726.985
  21869079.426     1250080.51349    971289.41247  21869079.491    21869088.179
  20435920.889   -13735841.89649 -10699391.53648  20435921.026    20435929.422
 03  3 18 18  6 30.0000000  0  7G30G10G 4G 5G 7G 9G24
  23086621.970   -10630208.13049  -8039977.55346  23086622.344    23086631.687
  24490017.193    -5146122.57849  -3988381.95645  24490016.854    24490032.511
  21441161.679      334288.78049    257836.63147  21441162.122    21441170.150
  20839713.272   -17872235.18749 -13926044.73847  20839712.987    20839721.071
  23836831.835    13467535.94749  10471147.24545  23836831.695    23836844.888
  21882303.023     1319571.00149   1025437.77147  21882303.127    21882311.849
  20435840.661   -13736263.51749 -10699720.05748  20435840.782    20435849.177
 03  3 18 18  7  0.0000000  0  7G30G10G 4G 5G 7G 9G24
  23068531.658   -10725272.21849  -8114053.40746  23068532.188    23068541.447
  24471131.073    -5245369.18949  -4065716.80545  24471130.590    24471146.227
  21454045.415      401993.23349    310593.30847  21454045.883    21454053.942
  20829970.568   -17923432.74249 -13965938.90747  20829970.362    20829978.461
  23849954.845    13536496.91949  10524882.87845  23849954.709    23849967.860
  21895603.415     1389464.69149   1079900.31347  21895603.539    21895612.248
  20435864.689   -13736137.16749 -10699621.58448  20435864.815    20435873.206
 03  3 18 18  7 30.0000000  0  7G30G10G 4G 5G 7G 9G24
  23050460.910   -10820234.28749  -8188049.77246  23050461.478    23050470.745
  24452235.468    -5344665.64349  -4143090.50945  24452234.851    24452250.430
  21467008.744      470115.70349    363675.70347  21467009.208    21467017.272
  20820293.709   -17974284.98749 -14005564.01347  20820293.531    20820301.591
  23863082.947    13605485.00649  10578639.65245  23863082.781    23863096.042
  21908980.010     1459759.17349   1134675.15247  21908980.188    21908988.893
  20435992.939   -13735463.28749 -10699096.47048  20435993.056    20436001.408
 03  3 18 18  8  0.0000000  0  7G30G10G 4G 5G 7G 9G24
  23032409.991   -10915093.05849  -8261965.62446  23032410.415    23032419.618
  24433330.753    -5444009.75849  -4220501.35545  24433330.048    24433345.591
  21480050.973      538653.10049    417081.42247  21480051.480    21480059.550
  20810682.861   -18024790.58049 -14044918.99347  20810682.624    20810690.680
  23876216.088    13674499.53449  10632417.03145  23876215.859    23876229.217
  21922432.356     1530451.15949   1189759.73347  21922432.486    21922441.193
  20436225.016   -13734243.67049 -10698146.10648  20436225.136    20436233.501
 03  3 18 18  8 30.0000000  0  7G30G10G 4G 5G 7G 9G24
  23014379.091   -11009846.62649  -8335799.50246  23014379.317    23014388.614
  24414417.632    -5543398.59649  -4297947.03445  24414416.970    24414432.333
  21493171.710      607602.72949    470808.36147  21493172.196    21493180.293
  20801138.252   -18074947.84949 -14084002.55147  20801138.012    20801146.041
  23889354.329    13743540.28149  10686214.84745  23889354.085    23889367.453
  21935959.685     1601537.81349   1245151.85047  21935959.881    21935968.600
  20436560.815   -13732478.70449 -10696770.79648  20436560.953    20436569.322
 03  3 18 18  9  0.0000000  0  7G30G10G 4G 5G 7G 9G24
  22996368.420   -11104493.09149  -8409549.94246  22996368.675    22996377.908
  24395496.581    -5642829.15349  -4375425.26445  24395496.100    24395511.133
  21506370.396      676962.13949    524854.61347  21506370.919    21506379.005
  20791660.365   -18124754.63549 -14122813.00847  20791660.103    20791668.091
  23902497.485    13812607.37049  10740033.15845  23902497.235    23902510.680
  21949561.701     1673016.43049   1300849.39347  21949561.874    21949570.598
  20437000.308   -13730169.25149 -10694971.21248  20437000.459    20437008.802
 03  3 18 18  9 30.0000000  0  8G30G 6G10G 4G 5G 7G 9G24
  22978378.239   -11199031.69849  -8483216.35546  22978378.580    22978387.660
  24819308.816    -1833955.98549  -1412030.22845  24819308.900    24819321.841
  24376567.981    -5742299.92349  -4452934.82045  24376567.374    24376582.486
  21519646.296      746727.17949    579216.92947  21519646.789    21519654.884
  20782249.238   -18174210.46049 -14161349.98547  20782248.978    20782256.941
  23915645.550    13881699.25049  10793870.80045  23915645.252    23915658.547
  21963237.518     1744882.93149   1356849.18947  21963237.677    21963246.391
  20437542.969   -13727317.54149 -10692749.09248  20437543.113    20437551.449
 03  3 18 18 10  0.0000000  0  8G30G 6G10G 4G 5G 7G 9G24
  22960409.164   -11293458.70049  -8556795.77846  22960409.669    22960418.702
  24805215.364    -1908018.28449  -1469741.06145  24805215.317    24805228.098
  24357632.469    -5841805.76949  -4530471.70645  24357632.002    24357647.070
  21532999.221      816897.33149    633894.92447  21532999.715    21533007.818
  20772905.550   -18223311.40149 -14199610.43047  20772905.357    20772913.320
  23928798.651    13950817.76949  10847729.20945  23928798.248    23928811.513
  21976986.843     1817136.44049   1413150.54947  21976987.098    21976995.860
  20438189.019   -13723922.43849 -10690103.54148  20438189.176    20438197.520
 03  3 18 18 10 30.0000000  0  8G30G 6G10G 4G 5G 7G 9G24
  22942461.875   -11387772.05649  -8630286.64546  22942462.433    22942471.394
  24791133.784    -1982018.04549  -1527403.12945  24791133.695    24791146.363
  24338690.845    -5941343.91649  -4608033.75045  24338690.415    24338705.126
  21546428.767      887470.01749    688886.57447  21546429.237    21546437.369
  20763629.826   -18272055.41649 -14237592.75247  20763629.618    20763637.588
  23941956.700    14019962.92149  10901608.37145  23941956.298    23941969.702
  21990809.464     1889774.11249   1469751.27347  21990809.659    21990818.490
  20438938.392   -13719984.53649 -10687035.04148  20438938.557    20438946.876
 03  3 18 18 11  0.0000000  0  8G30G 6G10G 4G 5G 7G 9G24
  22924536.776   -11481969.84549  -8703687.44746  22924537.154    22924546.252
  24777064.035    -2055955.42949  -1585016.60345  24777064.025    24777076.693
  24319743.524    -6040911.42649  -4685618.67145  24319742.993    24319757.930
  21559934.422      958442.58149    744189.82747  21559934.917    21559943.109
  20754422.402   -18320440.68949 -14275295.52747  20754422.212    20754430.155
  23955119.743    14089134.70149  10955508.29245  23955119.346    23955132.731
  22004704.669     1962793.71049   1526649.59947  22004704.850    22004713.767
  20439790.831   -13715504.91249 -10683544.41548  20439790.967    20439799.270
 03  3 18 18 11 30.0000000  0  8G30G 6G10G 4G 5G 7G 9G24
  22906633.901   -11576050.08449  -8776996.66146  22906634.306    22906643.353
  24763005.969    -2129830.65849  -1642581.60245  24763005.988    24763018.701
  24300791.243    -6140505.32749  -4763224.15045  24300790.613    24300805.576
  21573515.682     1029812.09249    799802.39447  21573516.126    21573524.357
  20745283.638   -18368465.51249 -14312717.43447  20745283.379    20745291.355
  23968287.899    14158332.96849  11009428.87745  23968287.590    23968300.830
  22018671.978     2036191.95249   1583842.95747  22018672.130    22018681.053
  20440746.172   -13710484.55749 -10679632.44348  20440746.306    20440754.598
 03  3 18 18 12  0.0000000  0  8G30G 6G10G 4G 5G 7G 9G24
  22888753.722   -11670010.88949  -8850212.82946  22888754.156    22888763.159
  24748959.642    -2203643.76249  -1700098.20045  24748959.662    24748972.528
  24281834.701    -6240122.23649  -4840847.60745  24281834.166    24281848.605
  21587171.977     1101576.16549    855722.40347  21587172.441    21587180.645
  20736213.803   -18416127.80349 -14349856.85147  20736213.528    20736221.516
  23981460.870    14227557.51549  11063369.89345  23981460.620    23981473.826
  22032710.868     2109965.96449   1641329.12547  22032710.951    22032719.814
  20441804.198   -13704924.39249 -10675299.84348  20441804.333    20441812.623
 03  3 18 18 12 30.0000000  0  8G30G 6G10G 4G 5G 7G 9G24
  22870896.617   -11763850.79149  -8923334.76346  22870896.998    22870906.027
  24734925.084    -2277395.29749  -1757566.86645  24734925.108    24734937.986
  24262874.367    -6339759.85949  -4918487.18345  24262873.782    24262888.031
  21600902.837     1173731.69049    911947.44347  21600903.236    21600911.438
  20727213.231   -18463426.27149 -14386712.77047  20727212.959    20727220.897
  23994639.020    14296807.87149  11117331.04945  23994638.647    23994651.887
  22046820.485     2184112.60249   1699105.65447  22046820.614    22046829.464
  20442964.761   -13698825.70949 -10670547.61648  20442964.890    20442973.171
 03  3 18 18 13  0.0000000  0  8G30G 6G10G 4G 5G 7G 9G24
  22853062.766   -11857568.04149  -8996361.13846  22853063.114    22853072.297
  24720902.144    -2351085.77949  -1814988.00045  24720902.166    24720915.042
  24243910.475    -6439415.61849  -4996140.92145  24243909.931    24243923.927
  21614707.490     1246275.44749    968475.00947  21614707.899    21614716.130
  20718282.118   -18510359.40949 -14423284.02147  20718281.872    20718289.753
  24007822.092    14366083.59049  11171311.96445  24007821.641    24007834.712
  22061000.462     2258628.77749   1757170.12347  22061000.647    22061009.526
  20444227.497   -13692189.89849 -10665376.84448  20444227.626    20444235.945
 03  3 18 18 13 30.0000000  0  8G30G 6G10G 4G 5G 7G 9G24
  22835252.701   -11951159.80649  -9069289.73646  22835253.163    22835262.351
  24706890.818    -2424714.22949  -1872360.73945  24706890.935    24706903.683
  24224943.690    -6539085.58749  -5073805.68445  24224943.241    24224957.224
  21628585.730     1319205.86149   1025303.85947  21628586.101    21628594.343
  20709421.144   -18556924.23249 -14459568.26447  20709420.856    20709428.728
  24021009.941    14435385.62849  11225313.36245  24021009.441    24021022.495
  22075250.478     2333512.51549   1815521.01347  22075250.612    22075259.514
  20445592.513   -13685016.63549 -10659787.27848  20445592.631    20445600.952
 03  3 18 18 14  0.0000000  0  8G30G 6G10G 4G 5G 7G 9G24
  22817467.045   -12044623.72149  -9142118.70446  22817467.526    22817476.728
  24692891.727    -2498280.40849  -1929684.98645  24692891.787    24692904.442
  24205974.993    -6638766.23349  -5151478.79345  24205974.504    24205988.745
  21642537.005     1392520.45749   1082432.07247  21642537.433    21642545.661
  20700630.570   -18603118.81849 -14495564.01847  20700630.312    20700638.151
  24034202.803    14504714.12149  11279335.40045  24034202.348    24034215.368
  22089569.789     2408760.93549   1874156.06747  22089569.939    22089578.875
  20447059.657   -13677306.98449 -10653779.75048  20447059.765    20447068.028
 03  3 18 18 14 30.0000000  0  8G30G 6G10G 4G 5G 7G 9G24
  22799706.099   -12137958.26249  -9214846.85646  22799706.452    22799715.764
  24678904.246    -2571784.99749  -1986961.28945  24678904.311    24678916.825
  24187004.751    -6738455.09249  -5229158.34345  24187004.286    24187018.667
  21656560.883     1466216.02649   1139857.14847  21656561.324    21656569.533
  20691910.730   -18648941.49249 -14531269.97447  20691910.558    20691918.366
  24047400.732    14574068.65449  11333377.71545  24047400.241    24047413.482
  22103958.013     2484371.25849   1933073.12347  22103958.158    22103967.123
  20448628.572   -13669062.31349 -10647355.32348  20448628.689    20448636.934
 03  3 18 18 15  0.0000000  0  8G30G 6G10G 4G 5G 7G 9G24
  22781969.865   -12231161.58949  -9287472.78046  22781970.401    22781979.783
  24664928.431    -2645228.26649  -2044189.71445  24664928.445    24664941.063
  24168033.521    -6838149.09149  -5306841.87545  24168033.099    24168047.540
  21670656.750     1540289.98049   1197577.08247  21670657.186    21670665.479
  20683262.118   -18694390.47749 -14566684.74447  20683261.876    20683269.694
  24060603.467    14643449.14549  11387440.26245  24060602.951    24060616.339
  22118414.600     2560340.37549   1992269.76047  22118414.670    22118423.666
  20450299.025   -13660283.73749 -10640514.86648  20450299.163    20450307.446
 03  3 18 18 15 30.0000000  0  8G30G 6G10G 4G 5G 7G 9G24
  22764259.324   -12324231.48449  -9359994.72746  22764259.641    22764269.164
  24650964.275    -2718610.31149  -2101370.52045  24650964.332    24650977.075
  24149061.790    -6937845.12849  -5384527.01445  24149061.423    24149076.095
  21684824.022     1614739.58549   1255589.72147  21684824.468    21684832.810
  20674684.910   -18739463.75949 -14601806.75647  20674684.684    20674692.491
  24073811.232    14712855.54949  11441522.99945  24073810.777    24073824.212
  22132938.885     2636665.55249   2051743.84247  22132938.945    22132947.958
  20452070.945   -13650972.29749 -10633259.18748  20452071.096    20452079.376
 03  3 18 18 16  0.0000000  0  8G30G 6G10G 4G 5G 7G 9G24
  22746574.410   -12417166.19449  -9432411.31946  22746574.744    22746584.273
  24637011.711    -2791931.42449  -2158503.81545  24637011.822    24637024.683
  24130090.419    -7037540.41349  -5462211.55945  24130089.996    24130104.596
  21699062.267     1689561.84149   1313892.72547  21699062.741    21699071.036
  20666179.468   -18784159.84049 -14636634.85447  20666179.292    20666187.111
  24087023.859    14782287.48349  11495625.64645  24087023.500    24087036.934
  22147530.270     2713343.50749   2111492.81447  22147530.334    22147539.362
  20453943.937   -13641129.81349 -10625589.71248  20453944.029    20453952.287
 03  3 18 18 16 30.0000000  0  8G30G 6G10G 4G 5G 7G 9G24
  22728915.427   -12509963.40849  -9504720.78346  22728915.949    22728925.425
  24623070.717    -2865191.44549  -2215589.48045  24623071.013    24623083.627
  24111119.611    -7137231.80949  -5539893.07945  24111119.150    24111133.776
  21713371.001     1764754.61649   1372484.45547  21713371.486    21713379.748
  20657746.195   -18828476.67349 -14671167.42647  20657746.060    20657753.868
  24100241.430    14851745.29849  11549748.48445  24100241.080    24100254.430
  22162188.266     2790371.78249   2171514.76347  22162188.366    22162197.432
  20455917.929   -13630756.41949 -10617506.53748  20455918.023    20455926.291
 03  3 18 18 17  0.0000000  0  8G30G 6G10G 4G 5G 7G 9G24
  22711283.164   -12602620.76349  -9576921.25246  22711283.756    22711293.292
  24609141.142    -2938390.07549  -2272627.29245  24609141.896    24609154.407
  24092150.367    -7236915.63749  -5617568.69945  24092149.962    24092164.420
  21727749.698     1840315.25149   1431362.83647  21727750.172    21727758.545
  20649385.551   -18872412.15849 -14705402.84947  20649385.378    20649393.181
  24113464.001    14921229.23949  11603891.63645  24113463.686    24113476.998
  22176912.461     2867747.69949   2231807.61747  22176912.563    22176921.653
  20457992.734   -13619852.90949 -10609010.28548  20457992.866    20458001.180
 03  3 18 18 17 30.0000000  0  8G30G 6G10G 4G 5G 7G 9G24
  22693678.072   -12695136.48349  -9649011.35046  22693678.564    22693688.059
  24595223.372    -3011527.83449  -2329617.66745  24595223.822    24595236.699
  24073183.180    -7336589.26549  -5695236.37145  24073182.732    24073196.910
  21742197.886     1916240.71249   1490525.48747  21742198.349    21742206.733
  20641097.749   -18915964.55249 -14739339.76247  20641097.566    20641105.379
  24126691.478    14990738.94449  11658054.88345  24126691.039    24126704.499
  22191702.245     2945468.17949   2292368.95047  22191702.374    22191711.457
  20460168.189   -13608420.78249 -10600102.12248  20460168.320    20460176.666
 03  3 18 18 18  0.0000000  0  8G30G 6G10G 4G 5G 7G 9G24
  22676100.251   -12787508.25449  -9720989.27646  22676100.852    22676110.224
  24581317.269    -3084604.58249  -2386560.53245  24581317.558    24581330.677
  24054218.277    -7436249.36949  -5772893.51745  24054217.891    24054232.039
  21756715.090     1992528.77249   1549970.67547  21756715.539    21756723.865
  20632883.293   -18959131.82549 -14772976.58347  20632883.102    20632890.921
  24139923.784    15060274.69149  11712238.41945  24139923.488    24139936.765
  22206557.091     3023530.43649   2353196.60547  22206557.250    22206566.272
  20462444.030   -13596461.12549 -10590782.90848  20462444.185    20462452.492
 03  3 18 18 18 30.0000000  0  8G30G 6G10G 4G 5G 7G 9G24
  22658549.615   -12879737.38649  -9792856.05546  22658550.232    22658559.487
  24567422.253    -3157623.77849  -2443458.52845  24567422.437    24567435.409
  24035256.007    -7535896.38949  -5850540.47445  24035255.658    24035269.600
  21771300.044     2069173.36549   1609693.69347  21771300.532    21771308.908
  20624741.795   -19001915.46849 -14806314.47147  20624741.599    20624749.433
  24153160.452    15129833.01749  11766439.53445  24153160.066    24153173.486
  22221475.809     3101928.24249   2414285.72747  22221475.942    22221484.942
  20464819.379   -13583978.56149 -10581056.22748  20464819.520    20464827.804
 03  3 18 18 19  0.0000000  0  8G30G 6G10G 4G 5G 7G 9G24
  22641027.577   -12971817.33849  -9864606.58446  22641027.963    22641037.133
  24553539.171    -3230580.88649  -2500308.18645  24553539.199    24553552.107
  24016297.898    -7635522.57649  -5928171.18345  24016297.444    24016311.272
  21785953.212     2146176.29449   1669695.92747  21785953.738    21785962.171
  20616674.534   -19044309.07849 -14839348.43747  20616674.343    20616682.173
  24166402.267    15199418.47049  11820661.76445  24166401.917    24166415.275
  22236458.654     3180663.26449   2475637.60547  22236458.760    22236467.836
  20467294.899   -13570969.55949 -10570919.33648  20467295.036    20467303.322
 03  3 18 18 19 30.0000000  0  8G30G 6G10G 4G 5G 7G 9G24
  22623533.954   -13063746.42449  -9936239.56746  22623534.463    22623543.470
  24539667.337    -3303476.64649  -2557110.00645  24539667.561    24539680.440
  23997343.968    -7735125.18449  -6005783.54945  23997343.574    23997357.636
  21800674.049     2223534.27149   1729974.81947  21800674.517    21800682.963
  20608681.736   -19086311.49149 -14872077.57647  20608681.547    20608689.338
  24179649.127    15269030.61349  11874904.77745  24179648.707    24179662.085
  22251504.996     3259732.01849   2537249.54847  22251505.103    22251514.207
  20469870.288   -13557435.98249 -10560373.69048  20469870.414    20469878.712
 03  3 18 18 20  0.0000000  0  8G30G 6G10G 4G 5G 7G 9G24
  22606069.500   -13155522.31849 -10007753.19046  22606070.024    22606079.009
  24525807.417    -3376311.07949  -2613864.07645  24525807.737    24525820.411
  23978395.201    -7834700.88649  -6083374.92645  23978394.813    23978408.953
  21815461.901     2301244.73349   1790528.37847  21815462.410    21815470.798
  20600763.793   -19127920.60749 -14904500.25147  20600763.578    20600771.353
  24192901.082    15338669.61549  11929168.72245  24192900.833    24192913.989
  22266614.320     3339131.77449   2599119.42847  22266614.483    22266623.524
  20472545.262   -13543378.65049 -10549419.92248  20472545.392    20472553.707
 03  3 18 18 20 30.0000000  0  8G30G 6G10G 4G 5G 7G 9G24
  22588634.379   -13247143.68649 -10079146.38946  22588634.934    22588643.919
  24511958.832    -3449084.91349  -2670570.88845  24511959.204    24511971.975
  23959452.019    -7934247.32949  -6160943.47345  23959451.657    23959465.986
  21830316.216     2379304.42849   1851354.06247  21830316.676    21830325.040
  20592920.925   -19169135.40449 -14936615.66447  20592920.668    20592928.460
  24206158.039    15408334.71449  11983453.00845  24206157.655    24206171.035
  22281785.902     3418858.76649   2661244.28847  22281786.060    22281795.098
  20475319.523   -13528799.61749 -10538059.64248  20475319.701    20475327.984
 03  3 18 18 21  0.0000000  0  8G30G 6G10G 4G 5G 7G 9G24
  22571229.241   -13338608.17049 -10150417.34546  22571229.773    22571238.776
  24498122.076    -3521797.95549  -2727230.37045  24498122.403    24498135.019
  23940515.021    -8033760.99549  -6238486.48345  23940514.627    23940529.070
  21845236.489     2457710.69049   1912449.79347  21845236.957    21845245.344
  20585153.385   -19209953.77049 -14968422.17047  20585153.155    20585160.951
  24219419.985    15478026.21049  12037757.86245  24219419.774    24219433.159
  22297019.257     3498910.39649   2723622.12147  22297019.434    22297028.516
  20478192.927   -13513699.86449 -10526293.60048  20478193.082    20478201.365
 03  3 18 18 21 30.0000000  0  8G30G 6G10G 4G 5G 7G 9G24
  22553854.249   -13429913.82549 -10221564.54446  22553854.811    22553863.932
  24484296.865    -3594450.67449  -2783842.81645  24484297.183    24484309.557
  23921584.825    -8133239.11649  -6316001.80245  23921584.392    23921598.975
  21860222.166     2536460.82349   1973813.47747  21860222.613    21860231.092
  20577461.653   -19250374.02549 -14999918.46147  20577461.440    20577469.248
  24232686.907    15547743.82049  12092083.00045  24232686.840    24232700.083
  22312313.831     3579283.63949   2786250.55747  22312313.987    22312323.101
  20481165.122   -13498080.95249 -10514123.02748  20481165.294    20481173.577
 03  3 18 18 22  0.0000000  0  8G30G 6G10G 4G 5G 7G 9G24
  22536509.865   -13521058.85549 -10292586.57646  22536510.398    22536519.605
  24470482.971    -3667043.39249  -2840408.55145  24470483.267    24470495.593
  23902662.150    -8232678.61749  -6393487.03245  23902661.662    23902676.391
  21875272.758     2615551.82249   2035442.77647  21875273.163    21875281.653
  20569845.950   -19290394.75949 -15031103.43747  20569845.752    20569853.522
  24245958.873    15617487.31749  12146428.31545  24245958.443    24245972.067
  22327668.996     3659975.40549   2849127.20347  22327669.216    22327678.313
  20484235.803   -13481944.45249 -10501549.13648  20484235.958    20484244.237
 03  3 18 18 22 30.0000000  0  8G30G 6G10G 4G 5G 7G 9G24
  22519196.611   -13612041.03149 -10363481.72246  22519197.074    22519206.284
  24456680.513    -3739576.12349  -2896927.51645  24456680.842    24456693.049
  23883747.364    -8332076.56049  -6470939.85645  23883746.796    23883761.515
  21890387.661     2694980.95249   2097335.55847  21890388.060    21890396.499
  20562306.647   -19330014.01149 -15061975.56847  20562306.471    20562314.246
  24259235.757    15687256.85949  12200793.86545  24259235.250    24259248.974
  22343084.252     3740982.83349   2912249.81447  22343084.434    22343093.588
  20487404.735   -13465291.62349 -10488572.90948  20487404.905    20487413.149
 03  3 18 18 23  0.0000000  0  8G30G 6G10G 4G 5G 7G 9G24
  22501914.740   -13702858.25249 -10434248.32846  22501915.158    22501924.344
  24442889.306    -3812049.02649  -2953399.90145  24442889.720    24442901.949
  23864841.080    -8431429.64349  -6548357.75045  23864840.654    23864855.038
  21905566.376     2774745.38949   2159489.62347  21905566.782    21905575.274
  20554844.018   -19369230.20749 -15092533.63247  20554843.858    20554851.654
  24272517.662    15757052.31049  12255179.67945  24272517.236    24272530.738
  22358559.038     3822302.74449   2975615.92247  22358559.152    22358568.357
  20490671.646   -13448123.82449 -10475195.40948  20490671.803    20490680.043
 03  3 18 18 23 30.0000000  0  8G30G 6G10G 4G 5G 7G 9G24
  22484664.624   -13793508.13649 -10504884.54946  22484665.031    22484674.216
  24429109.729    -3884461.99649  -3009825.52345  24429109.969    24429122.119
  23845943.946    -8530734.38549  -6625737.93345  23845943.467    23845957.770
  21920808.392     2854842.63749   2221903.01247  21920808.780    21920817.349
  20547458.546   -19408041.26149 -15122776.00647  20547458.391    20547466.171
  24285804.550    15826874.16549  12309586.07145  24285804.167    24285817.559
  22374092.762     3903932.28049   3039223.29147  22374092.798    22374102.001
  20494036.382   -13430442.05649 -10461417.41948  20494036.544    20494044.793
 03  3 18 18 24  0.0000000  0  8G30G 6G10G 4G 5G 7G 9G24
  22467446.761   -13883988.23049 -10575388.46046  22467447.250    22467456.366
  24415341.320    -3956814.89949  -3066204.34945  24415341.542    24415353.730
  23827056.603    -8629987.53949  -6703077.95045  23827056.083    23827070.232
  21936113.258     2935270.49649   2284574.02447  21936113.695    21936122.250
  20540150.581   -19446445.07649 -15152701.04848  20540150.370    20540158.148
  24299096.549    15896722.50449  12364013.19045  24299096.145    24299109.587
  22389684.754     3985868.67449   3103069.76147  22389684.774    22389694.015
  20497498.729   -13412247.36349 -10447239.74548  20497498.897    20497507.124
 03  3 18 18 24 30.0000000  0  8G30G 6G10G 4G 5G 7G 9G24
  22450261.749   -13974296.29549 -10645758.31746  22450262.167    22450271.212
  24401584.362    -4029107.59949  -3122536.25045  24401584.614    24401596.892
  23808179.585    -8729185.48349  -6780374.93245  23808179.131    23808193.374
  21951480.626     3016026.19149   2347500.48747  21951481.075    21951489.536
  20532920.420   -19484439.73649 -15182307.27048  20532920.215    20532927.989
  24312393.530    15966597.75149  12418461.23845  24312393.170    24312406.634
  22405334.618     4068109.17849   3167153.20747  22405334.689    22405343.937
  20501058.367   -13393541.33949 -10432663.62948  20501058.533    20501066.740
 03  3 18 18 25  0.0000000  0  8G30G 6G10G 4G 5G 7G 9G24
  22433109.693   -14064430.71449 -10715992.87946  22433110.102    22433119.047
  24387838.852    -4101341.01249  -3178822.03645  24387839.080    24387851.074
  23789313.622    -8828325.97449  -6857627.12645  23789313.182    23789327.268
  21966909.717     3097106.42349   2410679.84847  21966910.184    21966918.616
  20525768.315   -19522024.22149 -15211593.87648  20525768.126    20525775.874
  24325695.455    16036498.99749  12472929.54945  24325694.941    24325708.665
  22421041.725     4150650.25249   3231470.85947  22421041.756    22421051.080
  20504714.942   -13374325.79849 -10417690.49248  20504715.131    20504723.361
 03  3 18 18 25 30.0000000  0  8G30G 6G10G 4G 5G 7G 9G24
  22415991.057   -14154388.81349 -10786090.02146  22415991.552    22416000.455
  24374104.607    -4173514.61649  -3235061.13245  24374104.798    24374116.827
  23770459.231    -8927405.23449  -6934831.61045  23770458.894    23770472.905
  21982400.110     3178509.09549   2474110.45247  21982400.581    21982409.096
  20518694.750   -19559196.10049 -15240558.96948  20518694.573    20518702.295
  24339002.448    16106426.94349  12527418.68245  24339002.079    24339015.674
  22436805.435     4233489.44949   3296020.81946  22436805.543    22436814.911
  20508468.434   -13354601.28349 -10402320.75048  20508468.612    20508476.839
 03  3 18 18 26  0.0000000  0  8G30G 6G10G 4G 5G 7G 9G24
  22398906.474   -14244168.16349 -10856047.88646  22398907.049    22398915.848
  24360381.744    -4245628.22849  -3291253.53545  24360381.879    24360394.041
  23751617.518    -9026419.60949  -7011985.55245  23751617.028    23751630.956
  21997951.546     3260231.68549   2537790.36347  21997951.975    21997960.441
  20511700.059   -19595953.48349 -15269201.08048  20511699.906    20511707.609
  24352314.623    16176381.91449  12581928.92045  24352314.283    24352327.930
  22452625.477     4316624.15449   3360801.04546  22452625.581    22452634.938
  20512318.448   -13334369.42549 -10386555.67248  20512318.627    20512326.814
 03  3 18 18 26 30.0000000  0  8G30G 6G10G 4G 5G 7G 9G24
  22381856.142   -14333767.05549 -10925865.14546  22381856.902    22381865.630
  24346670.116    -4317682.48049  -3347399.63545  24346670.222    24346682.594
  23732788.506    -9125366.57549  -7089086.94245  23732787.913    23732801.938
  22013563.179     3342270.87749   2601716.96947  22013563.577    22013572.026
  20504784.496   -19632295.14249 -15297519.25448  20504784.313    20504792.000
  24365631.611    16246363.27149  12636459.68245  24365631.364    24365645.294
  22468501.042     4400050.76249   3425808.72146  22468501.190    22468510.575
  20516264.648   -13313632.04049 -10370396.67848  20516264.845    20516273.033
 03  3 18 18 27  0.0000000  0  8G30G 6G10G 4G 5G 7G 9G24
  22364840.916   -14423183.01249 -10995539.86146  22364841.593    22364850.178
  24332969.680    -4389677.22349  -3403499.38845  24332969.816    24332982.334
  23713972.953    -9224242.48149  -7166133.00545  23713972.488    23713986.469
  22029234.471     3424624.39649   2665888.48947  22029234.928    22029243.418
  20497948.445   -19668218.96549 -15325511.83748  20497948.256    20497955.972
  24378953.778    16316371.57649  12691011.43145  24378953.431    24378967.763
  22484431.713     4483766.62649   3491041.78046  22484431.862    22484441.266
  20520306.827   -13292390.30049 -10353844.67648  20520307.017    20520315.219
 03  3 18 18 27 30.0000000  0  8G30G 6G10G 4G 5G 7G 9G24
  22347860.793   -14512413.92649 -11065070.38346  22347861.428    22347870.029
  24319280.701    -4461612.73149  -3459552.94945  24319280.972    24319293.360
  23695171.634    -9323044.36649  -7243121.35245  23695171.175    23695185.134
  22044965.016     3507289.30049   2730302.65047  22044965.538    22044974.091
  20491192.104   -19703723.45149 -15353177.66648  20491191.953    20491199.673
  24392280.914    16386406.62649  12745584.04544  24392280.635    24392295.080
  22500416.847     4567768.46149   3556497.69646  22500416.995    22500426.294
  20524444.666   -13270645.96049 -10336901.04048  20524444.833    20524453.037
 03  3 18 18 28  0.0000000  0  8G30G 6G10G 4G 5G 7G 9G24
  22330916.255   -14601457.82849 -11134455.16646  22330916.878    22330925.567
  24305602.992    -4533489.38749  -3515560.65645  24305603.181    24305615.670
  23676384.854    -9421769.37649  -7320049.79145  23676384.340    23676398.334
  22060754.474     3590262.67549   2794957.19547  22060754.967    22060763.443
  20484515.949   -19738807.05949 -15380515.54048  20484515.795    20484523.502
  24405613.227    16456468.07549  12800177.21644  24405612.876    24405627.586
  22516455.750     4652053.13249   3622173.98346  22516455.862    22516465.207
  20528677.796   -13248400.65949 -10319567.04448  20528677.982    20528686.181
 03  3 18 18 28 30.0000000  0  8G30G 6G10G 4G 5G 7G 9G24
  22314007.713   -14690312.46049 -11203692.47046  22314008.344    22314017.081
  24291936.582    -4605306.88749  -3571522.26845  24291936.813    24291949.233
  23657613.429    -9520413.87049  -7396915.50845  23657612.895    23657626.799
  22076601.965     3673541.91149   2859850.05347  22076602.496    22076610.966
  20477920.215   -19773468.01549 -15407524.07448  20477920.021    20477927.714
  24418950.513    16526556.29548  12854791.20244  24418949.824    24418965.389
  22532547.907     4736617.85549   3688068.49646  22532548.071    22532557.454
  20533006.057   -13225655.44249 -10301843.50348  20533006.246    20533014.476
 03  3 18 18 29  0.0000000  0  8G30G 6G10G 4G 5G 7G 9G24
  22297135.752   -14778975.11749 -11272780.18246  22297136.334    22297145.129
  24278281.528    -4677065.17749  -3627437.76845  24278281.695    24278294.075
  23638857.698    -9618974.74449  -7473716.04845  23638857.290    23638871.185
  22092507.216     3757124.76749   2924979.51247  22092507.835    22092516.257
  20471405.285   -19807704.27149 -15434201.66448  20471405.091    20471412.786
  24432293.179    16596671.66248  12909426.42744  24432293.032    24432308.303
  22548692.886     4821460.05049   3754179.22346  22548693.114    22548702.467
  20537429.161   -13202411.80449 -10283731.58148  20537429.373    20537437.602
 03  3 18 18 29 30.0000000  0  8G30G 6G10G 4G 5G 7G 9G24
  22280300.564   -14867444.29349 -11341717.13246  22280301.178    22280310.013
  24264637.637    -4748764.97449  -3683307.66345  24264637.741    24264650.050
  23620118.530    -9717449.04649  -7550449.14645  23620118.213    23620131.855
  22108469.785     3841007.76549   2990342.83847  22108470.344    22108478.627
  20464971.359   -19841514.64049 -15460547.40448  20464971.185    20464978.858
  24445641.203    16666813.80848  12964082.47444  24445641.395    24445656.823
  22564889.939     4906576.00249   3820503.25646  22564890.161    22564899.545
  20541946.716   -13178672.04649 -10265233.07948  20541946.916    20541955.103
 03  3 18 18 30  0.0000000  0  8G30G 6G10G 4G 5G 7G 9G24
  22263502.696   -14955717.22549 -11410501.16046  22263503.377    22263512.224
  24251004.719    -4820406.14349  -3739131.87245  24251004.849    24251017.198
  23601396.618    -9815833.16049  -7627111.94845  23601396.204    23601409.898
  22124489.034     3925188.81149   3055938.42047  22124489.535    22124497.864
  20458618.908   -19874897.19149 -15486559.77348  20458618.713    20458626.362
  24458994.153    16736982.97448  13018759.54844  24458993.891    24459009.460
  22581138.666     4991962.90049   3887038.42746  22581138.832    22581148.232
  20546558.558   -13154437.07949 -10246348.68948  20546558.713    20546566.885
 03  3 18 18 30 30.0000000  0  8G30G 6G10G 4G 5G 7G 9G24
  22246742.620   -15043791.50349 -11479130.38846  22246743.330    22246752.168
  24237383.041    -4891988.41649  -3794910.20445  24237383.159    24237395.516
  23582692.537    -9914123.48049  -7703701.68845  23582692.043    23582705.670
  22140564.332     4009665.23449   3121764.16247  22140564.816    22140573.246
  20452348.232   -19907850.01249 -15512237.29448  20452348.024    20452355.651
  24472352.227    16807179.57648  13073458.03344  24472351.505    24472367.428
  22597438.429     5077618.12549   3953782.68546  22597438.539    22597447.956
  20551264.331   -13129708.08049 -10227079.33648  20551264.456    20551272.670
 03  3 18 18 31  0.0000000  0  8G30G 6G10G 4G 5G 7G 9G24
  22230020.798   -15131665.05649 -11547603.22646  22230021.496    22230030.236
  24223772.596    -4963512.07549  -3850642.84745  24223772.701    24223784.919
  23564006.957   -10012317.02949  -7780216.01545  23564006.408    23564019.988
  22156695.435     4094434.18149   3187817.82247  22156695.878    22156704.337
  20446159.551   -19940371.79149 -15537578.93848  20446159.348    20446166.928
  24485715.618    16877403.37048  13128177.75244                  24485715.061
  22613788.540     5163538.59949   4020733.60346  22613788.699    22613798.198
  20556063.674   -13104487.37149 -10207426.83648  20556063.823    20556072.013
 03  3 18 18 31 30.0000000  0  8G30G 6G10G 4G 5G 7G 9G24
  22213337.702   -15219335.66449 -11615917.91546  22213338.256    22213346.923
  24210173.214    -5034977.21049  -3906329.88945  24210173.266    24210185.503
  23545340.239   -10110410.50749  -7856652.38145  23545339.720    23545353.238
  22172881.572     4179492.96749   3254097.33646  22172882.053    22172890.496
  20440053.269   -19972460.58249 -15562583.18748  20440053.056    20440060.641
  24499084.086    16947654.52148  13182918.73244                  24499083.788
  22630188.609     5249721.14749   4087888.74346  22630188.736    22630198.256
  20560956.353   -13078776.21849 -10187392.17348  20560956.496    20560964.656
 03  3 18 18 32  0.0000000  0  8G30G 6G10G 4G 5G 7G 9G24
  22196693.600   -15306800.59349 -11684072.32846  22196694.198    22196702.801
  24196584.986    -5106383.38549  -3961970.99945  24196585.152    24196597.277
  23526693.324   -10208400.21549  -7933007.89245  23526692.850    23526706.209
  22189122.442     4264839.51949   3320601.09246  22189123.019    22189131.479
  20434029.732   -20004114.49749 -15587248.56548  20434029.526    20434037.110
  24512457.717    17017933.56748  13237681.45244                  24512455.546
  22646638.092     5336163.23849   4155246.12646  22646638.179    22646647.776
  20565942.118   -13052575.91749 -10166976.35348  20565942.234    20565950.387
 03  3 18 18 32 30.0000000  0  8G30G 6G10G 4G 5G 7G 9G24
  22180089.039   -15394057.88449 -11752064.93746  22180089.624    22180098.200
  24183007.943    -5177731.13249  -4017566.58845  24183008.142    24183020.123
  23508066.787   -10306283.19149  -8009280.21245  23508066.315    23508079.582
  22205417.569     4350470.68849   3387326.63446  22205418.129    22205426.605
  20428089.199   -20035332.14849 -15611573.99648  20428088.988    20428096.590
                  17088240.30258  13292465.81544
  22663136.083     5422861.40649   4222803.04146  22663136.307    22663146.003
  20571020.612   -13025888.30849 -10146180.81348  20571020.749    20571028.912
 03  3 18 18 33  0.0000000  0  8G30G 6G10G 4G 5G 7G 9G24
  22163524.426   -15481105.87549 -11819894.47946  22163524.981    22163533.501
  24169441.875    -5249021.27249  -4073117.26845  24169442.024    24169453.981
  23489460.988   -10404056.84549  -8085467.35945  23489460.564    23489473.678
  22221766.335     4436382.97649   3454271.20946  22221766.820    22221775.196
  20422231.899   -20066112.49849 -15635558.67448  20422231.703    20422239.305
                  17158573.90058  -3828351.22543
  22679682.377     5509812.02649   4290556.67546  22679682.532    22679692.231
  20576191.398   -12998715.80349 -10125007.43148  20576191.539    20576199.682
 03  3 18 18 33 30.0000000  0  8G30G 6G10G 4G 5G 7G 9G24
  22147000.143   -15567941.83249 -11887558.79646  22147000.641    22147009.141
  24155886.785    -5320253.17949  -4128622.56745  24155886.947    24155899.034
  23470876.785   -10501717.35249  -8161566.33845  23470876.321    23470889.475
  22238168.008     4522574.35949   3521433.26446  22238168.536    22238176.886
  20416458.205   -20096453.34049 -15659200.87848  20416458.020    20416465.589
                  17228934.76457  -3773532.88243
  22696276.197     5597012.53149   4358505.01846  22696276.335    22696286.058
  20581454.156   -12971059.64749 -10103457.17648  20581454.296    20581462.455
 03  3 18 18 34  0.0000000  0  7G30G 6G10G 4G 5G 9G24
  22130517.086   -15654560.05049 -11955053.44446  22130517.692    22130526.212
  24142343.237    -5391423.59249  -4184079.91845  24142343.483    24142355.725
  23452315.258   -10599257.96849  -8237571.90145  23452314.840    23452328.059
  22254622.881     4609045.57749   3588813.38246  22254623.425    22254631.832
  20410769.140   -20126349.67049 -15682496.70648  20410768.919    20410776.512
  22712917.556     5684463.37149   4426648.42246  22712917.754    22712927.530
  20586809.368   -12942917.78649 -10081528.44548  20586809.508    20586817.684
 03  3 18 18 34 30.0000000  0  7G30G 6G10G 4G 5G 9G24
  22114075.161   -15740962.14849 -12022379.68846  22114075.854    22114084.425
  24128810.782    -5462536.46949  -4239492.43945  24128811.112    24128823.313
  23433776.412   -10696679.50149  -8313484.66645  23433775.985    23433789.417
  22271129.876     4695790.05949   3656406.42346  22271130.397    22271138.869
  20405164.139   -20155803.83249 -15705447.98548  20405163.939    20405171.558
  22729605.227     5772157.66949   4494981.53546  22729605.471    22729615.279
  20592255.946   -12914295.81549 -10059225.60748  20592256.098    20592264.294
 03  3 18 18 35  0.0000000  0  7G30G 6G10G 4G 5G 9G24
  22097674.912   -15827146.24449 -12089536.07246  22097675.558    22097684.061
  24115289.363    -5533592.46749  -4294860.66945  24115289.692    24115301.728
  23415260.793   -10793979.02849  -8389302.36445  23415260.403    23415273.917
  22287688.301     4782804.54749   3724209.86146  22287688.745    22287697.294
  20399643.530   -20184814.74549 -15728053.87648  20399643.331    20399650.959
  22746338.746     5860091.93349   4563501.64046  22746338.947    22746348.745
  20597793.451   -12885196.04849 -10036550.45848  20597793.584    20597801.777
 03  3 18 18 35 30.0000000  0  7G30G 6G10G 4G 5G 9G24
  22081316.585   -15913109.40149 -12156520.29846  22081317.272    22081325.692
  24101778.805    -5604590.92449  -4350184.02245  24101779.095    24101791.103
  23396769.158   -10891152.46749  -8465021.81045  23396768.795    23396782.419
  22304297.561     4870087.09649   3792222.17346  22304298.056    22304306.672
  20394207.713   -20213380.04849 -15750312.53448  20394207.514    20394215.185
  22763117.372     5948263.79949   4632206.89646  22763117.581    22763127.370
  20603421.682   -12855619.36849 -10013503.68848  20603421.858    20603430.026
 03  3 18 18 36  0.0000000  0  7G30G 6G10G 4G 5G 9G24
  22065000.865   -15998848.15449 -12223329.65746  22065001.637    22065010.019
  24088279.293    -5675530.83149  -4405461.78545  24088279.651    24088291.480
  23378302.387   -10988195.74949  -8540639.84845  23378301.929    23378315.603
  22320957.633     4957636.21849   3860442.19846  22320958.142    22320966.734
  20388857.176   -20241497.29249 -15772222.05848  20388856.968    20388864.642
  22779940.831     6036671.16749   4701095.65246  22779941.085    22779950.775
  20609140.532   -12825566.74249  -9990086.05648  20609140.709    20609148.866
 03  3 18 18 36 30.0000000  0  7G30G 6G10G 4G 5G 9G24
  22048728.259   -16084361.25149 -12289963.19046  22048728.983    22048737.332
  24074790.670    -5746413.34649  -4460694.79445  24074791.070    24074802.843
  23359860.740   -11085106.57049  -8616154.66945  23359860.296    23359873.917
  22337667.867     5045448.15049   3928867.00946  22337668.354    22337676.896
  20383591.985   -20269165.98849 -15793782.06748  20383591.773    20383599.451
  22796808.278     6125309.80649   4770164.62146  22796808.577    22796818.240
  20614949.402   -12795040.79249  -9966299.59248  20614949.587    20614957.772
 03  3 18 18 37  0.0000000  0  7G30G 6G10G 4G 5G 9G24
  22032499.042   -16169646.20149 -12356418.94746  22032499.768    22032508.037
  24061312.942    -5817238.12549  -4515882.79845  24061313.399    24061325.306
  23341445.082   -11181880.98149  -8691563.19245  23341444.545    23341458.251
  22354427.486     5133520.42249   3997494.69146  22354428.011    22354436.645
  20378412.515   -20296384.13349 -15814990.99348  20378412.319    20378420.004
  22813719.443     6214177.21349   4839411.84446  22813719.611    22813729.286
  20620848.086   -12764043.02249  -9942145.47948  20620848.284    20620856.457
 03  3 18 18 37 30.0000000  0  7G30G 6G10G 4G 5G 9G24
  22016313.795   -16254700.01549 -12422694.59546  22016314.543    22016322.762
  24047846.390    -5888004.91749  -4571025.61045  24047846.702    24047858.667
  23323055.928   -11278515.32049  -8766862.58245  23323055.535    23323069.157
  22371236.152     5221850.74049   4066323.46046  22371236.705    22371245.379
  20373319.182   -20323149.75149 -15835847.30748  20373318.955    20373326.631
  22830673.405     6303270.98049   4908835.44446  22830673.613    22830683.332
  20626836.328   -12732574.47849  -9917624.53348  20626836.528    20626844.682
 03  3 18 18 38  0.0000000  0  7G30G 6G10G 4G 5G 9G24
  22000172.997   -16339520.62949 -12488788.52546  22000173.647    22000181.869
  24034390.723    -5958713.97049  -4626123.44945  24034390.998    24034403.108
  23304694.217   -11375006.29349  -8842050.24545  23304693.866    23304707.433
  22388093.567     5310436.63149   4135351.35446  22388094.154    22388102.798
  20368312.186   -20349461.38949 -15856349.86848  20368312.011    20368319.690
  22847669.874     6392587.81249   4978432.87746  22847670.147    22847679.846
  20632913.846   -12700637.06149  -9892738.22848  20632914.041    20632922.180
 03  3 18 18 38 30.0000000  0  7G30G 6G10G 4G 5G 9G24
  21984077.044   -16424105.99749 -12554699.15146  21984077.570    21984085.787
  24020946.155    -6029365.78049  -4681176.73045  24020946.485    24020958.486
  23286360.572   -11471351.12549  -8917124.01845  23286360.078    23286373.392
  22404999.009     5399275.10849   4204576.08646  22404999.582    22405008.149
  20363391.792   -20375318.07449 -15876497.92548  20363391.637    20363399.302
  22864708.148     6482124.18649   5048201.36246  22864708.442    22864718.189
  20639080.084   -12668233.24549  -9867488.50948  20639080.272    20639088.424
 03  3 18 18 39  0.0000000  0  7G30G 6G10G 4G 5G 9G24
  21968026.178   -16508454.23349 -12620425.00246  21968026.632    21968034.852
  24007512.574    -6099960.66549  -4736185.66045  24007512.875    24007524.573
  23268055.207   -11567546.69349  -8992081.48445  23268054.641    23268067.743
  22421951.841     5488362.77049   4273994.99246  22421952.415    22421961.049
  20358558.221   -20400718.63549 -15896290.56048  20358558.044    20358565.689
  22881787.571     6571876.75849   5118138.32146  22881787.858    22881797.593
  20645334.771   -12635365.01249  -9841876.90348  20645334.932    20645343.063
 03  3 18 18 39 30.0000000  0  7G30G 6G10G 4G 5G 9G24
  21952020.781   -16592562.80649 -12685964.09446  21952021.262    21952029.480
  23994089.678    -6170498.61149  -4791150.22345  23994089.967    23994101.539
  23249778.815   -11663589.48149  -9066919.91645  23249778.314    23249791.232
  22438951.799     5577697.54249   4343606.44646  22438952.386    22438960.953
  20353811.755   -20425661.28549 -15915726.38248  20353811.589    20353819.242
  22898907.623     6661842.71549   5188241.55446  22898907.886    22898917.628
  20651677.427   -12602034.09849  -9815904.77248  20651677.571    20651685.718
 03  3 18 18 40  0.0000000  0  7G30G 6G10G 4G 5G 9G24
  21936061.599   -16676428.63649 -12751314.02946  21936062.040    21936070.342
  23980677.615    -6240979.11349  -4846070.06445  23980677.913    23980689.200
  23231532.179   -11759475.81349  -9141636.41945  23231531.715    23231544.469
  22455998.375     5667277.13749   4413408.65246  22455998.925    22456007.431
  20349152.850   -20450144.01949 -15934803.83048  20349152.675    20349160.327
  22916067.785     6752019.62549   5258509.16346  22916068.036    22916077.847
  20658107.854   -12568241.89849  -9789573.19948  20658108.039    20658116.178
 03  3 18 18 40 30.0000000  0  7G30G 6G10G 4G 5G 9G24
  21920149.084   -16760049.29749 -12816472.93946  21920149.526    21920157.833
  23967276.383    -6311402.00249  -4900944.95745  23967276.670    23967288.008
  23213315.996   -11855202.39749  -9216228.41245  23213315.426    23213328.140
  22473091.007     5757099.19049   4483399.79446  22473091.522    22473100.083
  20344581.751   -20474165.28849 -15953521.69248  20344581.589    20344589.241
  22933267.657     6842404.57649   5328938.88046  22933267.829    22933277.668
  20664625.782   -12533989.90749  -9762883.35548  20664625.967    20664634.105
 03  3 18 18 41  0.0000000  0  7G30G 6G10G 4G 5G 9G24
  21904283.614   -16843422.63449 -12881439.10946  21904284.070    21904292.350
  23953886.211    -6381767.42849  -4955775.10345  23953886.450    23953897.768
  23195130.811   -11950765.69749  -9290693.16645  23195130.286    23195143.026
  22490229.243     5847160.75849   4553577.56746  22490229.718    22490238.383
  20340098.788   -20497723.56649 -15971878.78248  20340098.613    20340106.247
  22950506.435     6932994.50549   5399528.32246  22950506.595    22950516.458
  20671230.946   -12499279.69749  -9735836.45848  20671231.124    20671239.238
 03  3 18 18 41 30.0000000  0  7G30G 6G10G 4G 5G 9G24
  21888465.763   -16926545.83149 -12946210.37446  21888466.210    21888474.458
  23940507.037    -6452075.09449  -5010560.20845  23940507.192    23940518.477
  23176977.335   -12046161.85149  -9365027.65945  23176976.883    23176989.705
  22507412.590     5937459.52649   4623940.16446  22507413.082    22507421.821
  20335704.248   -20520817.13549 -15989873.76148  20335704.075    20335711.682
  22967783.675     7023786.53549   5470275.25946  22967783.794    22967793.669
  20677922.905   -12464113.30249  -9708434.09748  20677923.082    20677931.181
 03  3 18 18 42  0.0000000  0  7G30G 6G10G 4G 5G 9G24
  21872695.857   -17009416.96449 -13010785.22347  21872696.307    21872704.535
  23927138.798    -6522325.50549  -5065300.72445  23927139.017    23927150.266
  23158856.293   -12141388.14149  -9439229.78546  23158855.818    23158868.665
  22524640.484     6027992.93449   4694485.59746  22524641.025    22524649.804
  20331398.340   -20543444.96949 -16007505.82948  20331398.146    20331405.728
  22985098.711     7114777.09749   5541176.88446  22985098.817    22985108.754
  20684701.295   -12428492.85549  -9680677.92948  20684701.459    20684709.527
 03  3 18 18 42 30.0000000  0  7G30G 6G10G 4G 5G 9G24
  21856974.268   -17092033.85349 -13075161.95647  21856974.771    21856983.008
  23913781.586    -6592518.86449  -5119996.74845  23913781.684    23913792.943
  23140768.056   -12236441.25949  -9513296.95846  23140767.660    23140780.504
  22541912.431     6118757.93549   4765211.49946  22541913.048    22541921.823
  20327181.288   -20565605.67549 -16024773.90148  20327181.085    20327188.669
  23002451.016     7205963.33749   5612230.99146  23002451.094    23002461.024
  20691565.700   -12392420.37649  -9652569.53148  20691565.847    20691573.903
 03  3 18 18 43  0.0000000  0  7G30G 6G10G 4G 5G 9G24
  21841301.652   -17174393.79749 -13139338.47947  21841302.171    21841310.457
  23900435.168    -6662654.90249  -5174648.16845  23900435.353    23900446.466
  23122713.501   -12331317.94449  -9587226.63146  23122712.999    23122725.960
  22559228.139     6209752.01649   4836115.90846  22559228.711    22559237.516
  20323053.448   -20587297.76149 -16041676.82048  20323053.233    20323060.793
  23019839.878     7297342.50149   5683435.43546  23019840.066    23019850.020
  20698515.772   -12355897.51649  -9624110.19448  20698515.936    20698523.997
 03  3 18 18 43 30.0000000  0  7G30G 6G10G 4G 5G 9G24
  21825678.264   -17256495.06349 -13203313.43347  21825678.767    21825687.121
  23887099.407    -6732734.20749  -5229255.32745  23887099.556    23887110.887
  23104693.038   -12426015.14549  -9661016.44346  23104692.525    23104705.541
  22576586.935     6300972.30149   4907196.57546  22576587.464    22576596.274
  20319014.938   -20608520.37249 -16058213.91048  20319014.739    20319022.289
  23037264.743     7388910.91749   5754787.33346  23037265.043    23037275.039
  20705551.048   -12318926.82449  -9595301.88847  20705551.195    20705559.309
 03  3 18 18 44  0.0000000  0  7G30G 6G10G 4G 5G 9G24
  21810104.608   -17338334.66149 -13267084.49947  21810105.188    21810113.514
  23873774.459    -6802756.43349  -5283818.01145  23873774.619    23873786.162
  23086707.506   -12520528.82749  -9734663.24346  23086707.065    23086720.053
  22593988.124     6392416.50149   4978451.72046  22593988.687    22593997.563
  20315066.115   -20629271.71049 -16074383.77748  20315065.902    20315073.457
  23054725.250     7480665.82349   5826284.55546  23054725.506    23054735.560
  20712671.279   -12281509.70849  -9566145.71947  20712671.446    20712679.580
 03  3 18 18 44 30.0000000  0  7G30G 6G10G 4G 5G 9G24
  21794581.252   -17419910.21949 -13330649.81747  21794581.865    21794590.166
  23860460.307    -6872721.49149  -5338336.13745  23860460.507    23860472.017
  23068757.609   -12614855.71749  -9808164.48846  23068757.132    23068769.998
  22611431.617     6484082.20149   5049879.45646  22611432.171    22611441.083
  20311207.274   -20649550.10349 -16090185.11948  20311207.054    20311214.594
  23072220.652     7572604.45649   5897924.94346  23072220.905    23072231.033
  20719876.244   -12243647.70449  -9536642.88747  20719876.388    20719884.540
 03  3 18 18 45  0.0000000  0  7G30G 6G10G 4G 5G 9G24
  21779108.648   -17501219.33549 -13394007.52447  21779109.246    21779117.487
  23847157.127    -6942629.64949  -5392809.92445  23847157.356    23847168.991
  23050843.720   -12708992.54549  -9881517.63046  23050843.363    23050856.146
  22628916.754     6575966.55949   5121477.54246  22628917.287    22628926.206
  20307438.635   -20669354.55149 -16105617.15548  20307438.413    20307445.960
  23089750.368     7664723.48649   5969705.88246  23089750.628    23089760.771
  20727165.372   -12205342.99649  -9506795.08647  20727165.522    20727173.731
 03  3 18 18 45 30.0000000  0  7G30G 6G10G 4G 5G 9G24
  21763687.030   -17582259.83049 -13457155.91447  21763687.703    21763695.941
  23833864.819    -7012480.99949  -5447239.45445  23833865.049    23833876.655
  23032966.745   -12802935.90649  -9954719.98446  23032966.360    23032979.120
  22646442.898     6668067.02249   5193244.04546  22646443.404    22646452.376
  20303760.402   -20688683.68649 -16120678.81848  20303760.209    20303767.776
  23107313.903     7757019.68349   6041624.90246  23107314.199    23107324.267
  20734538.272   -12166597.99949  -9476604.20347  20734538.448    20734546.673
 03  3 18 18 46  0.0000000  0  7G30G 6G10G 4G 5G 9G24
  21748317.051   -17663029.39849 -13520093.18947  21748317.753    21748325.949
  23820583.356    -7082275.64749  -5501624.79845  23820583.563    23820595.132
  23015127.164   -12896682.78249 -10027769.24846  23015126.790    23015139.520
  22664009.579     6760380.81449   5265176.77446  22664010.132    22664019.181
  20300172.878   -20707536.29249 -16135369.15548  20300172.673    20300180.243
  23124910.516     7849490.17349   6113679.70146  23124910.797    23124920.892
  20741994.715   -12127414.47949  -9446071.61947  20741994.876    20742003.073
 03  3 18 18 46 30.0000000  0  7G30G 6G10G 4G 5G 9G24
  21732999.061   -17743525.84049 -13582817.64347  21732999.737    21733007.894
  23807312.547    -7152013.84749  -5555966.14845  23807312.810    23807324.356
  22997325.547   -12990230.36249 -10100663.20946  22997325.144    22997337.790
  22681616.600     6852905.15849   5337273.57046  22681617.024    22681626.007
  20296676.244   -20725911.20949 -16149687.27148  20296676.054    20296683.631
  23142539.707     7942131.68949   6185867.77446  23142539.962    23142550.020
  20749534.176   -12087794.46149  -9415198.89847  20749534.326    20749542.545
 03  3 18 18 47  0.0000000  0  7G30G 6G10G 4G 5G 9G24
  21717733.613   -17823746.24649 -13645327.01447  21717734.305    21717742.379
  23794052.604    -7221695.05949  -5610263.10445  23794052.791    23794064.474
  22979562.572   -13083574.42849 -10173398.57946  22979562.220    22979574.775
  22699263.129     6945638.01249   5409532.85446  22699263.577    22699272.454
  20293270.825   -20743806.63149 -16163631.75548  20293270.651    20293278.254
  23160201.008     8034941.77049   6258187.20946  23160201.187    23160211.191
  20757156.332   -12047739.73049  -9383987.43947  20757156.509    20757164.765
 03  3 18 18 47 30.0000000  0  7G30G 6G10G 4G 5G 9G24
  21702521.124   -17903688.48949 -13707619.63247  21702521.767    21702529.825
  23780803.321    -7291319.72249  -5664515.98745  23780803.543    23780815.269
  22961839.019   -13176711.92149 -10245972.99146  22961838.590    22961851.016
  22716948.791     7038576.61649   5481952.43746  22716949.214    22716958.122
  20289956.888   -20761221.57549 -16177201.84248  20289956.705    20289964.277
  23177893.619     8127917.04249   6330635.34146  23177893.867    23177903.949
  20764860.822   -12007252.52149  -9352438.98447  20764860.986    20764869.233
 03  3 18 18 48  0.0000000  0  7G30G 6G10G 4G 5G 9G24
  21687362.000   -17983349.73649 -13769693.28647  21687362.751    21687370.793
  23767564.999    -7360887.16549  -5718724.29545  23767565.277    23767576.960
  22944155.383   -13269638.91849 -10318383.38046  22944154.942    22944167.287
  22734673.334     7131718.93449   5554530.78446  22734673.763    22734682.690
  20286734.731   -20778154.09049 -16190396.00748  20286734.536    20286742.133
  23195617.312     8221054.98049   6403210.19446  23195617.568    23195627.692
  20772647.376   -11966333.95949  -9320554.40247  20772647.525    20772655.793
 03  3 18 18 48 30.0000000  0  7G30G 6G10G 4G 5G 9G24
  21672256.801   -18062727.94349 -13831546.39047  21672257.499    21672265.525
  23754337.570    -7430397.93049  -5772888.43545  23754337.804    23754349.340
  22926512.455   -13362352.59049 -10390627.53346  22926511.867    22926524.166
  22752435.968     7225061.71349   5627265.31046  22752436.446    22752445.299
  20283604.363   -20794603.76349 -16203213.93448  20283604.233    20283611.869
  23213371.289     8314351.99749   6475909.02746  23213371.497    23213381.605
  20780515.446   -11924986.74549  -9288335.80747  20780515.648    20780523.902
 03  3 18 18 49  0.0000000  0  7G30G 6G10G 4G 5G 9G24
  21657205.924   -18141820.78449 -13893177.13847  21657206.578    21657214.642
  23741120.919    -7499852.26449  -5827008.61845  23741121.124    23741132.414
  22908910.597   -13454849.58349 -10462702.86846  22908910.052    22908922.385
  22770236.287     7318602.53549   5700154.17246  22770236.693    22770245.593
  20280566.228   -20810569.19849 -16215654.53748  20280566.096    20280573.750
  23231154.824     8407805.06949   6548729.45046  23231155.105    23231165.189
  20788464.780   -11883213.08449  -9255784.92047  20788464.955    20788473.187
 03  3 18 18 49 30.0000000  0  7G30G 6G10G 4G 5G 9G24
  21642209.823   -18220625.43849 -13954583.31647  21642210.519    21642218.564
  23727915.085    -7569249.68949  -5881084.47245  23727915.256    23727926.418
  22891350.532   -13547126.38449 -10534606.63946  22891350.119    22891362.455
  22788073.869     7412339.13549   5773195.57746  22788074.314    22788083.190
  20277620.614   -20826048.66349 -16227716.46048  20277620.455    20277628.093
  23248967.718     8501411.58149   6621669.43146  23248968.035    23248978.118
  20796494.909   -11841014.42749  -9222902.86247  20796495.086    20796503.363
 03  3 18 18 50  0.0000000  0  7G30G 6G10G 4G 5G 9G24
  21627269.125   -18299139.66049 -14015763.19747  21627269.733    21627277.714
  23714719.921    -7638590.54049  -5935116.22645  23714720.141    23714731.093
  22873833.106   -13639179.81549 -10606336.36046  22873832.735    22873845.096
  22805948.289     7506269.06449   5846387.62646  22805948.640    22805957.685
  20274767.621   -20841041.28349 -16239399.02248  20274767.451    20274775.066
  23266809.202     8595168.33949   6694726.50046  23266809.493    23266819.631
  20804605.510   -11798393.06849  -9189691.43047  20804605.681    20804613.936
 03  3 18 18 50 30.0000000  0  7G30G 6G10G 4G 5G 9G24
  21612384.097   -18377361.28749 -14076715.07947  21612384.628    21612392.574
  23701535.294    -7707874.79049  -5989103.87345  23701535.589    23701546.619
  22856358.907   -13731006.54949 -10677889.44346  22856358.503    22856370.846
  22823858.787     7600389.42349   5919728.06846  22823859.231    22823868.314
  20272007.524   -20855545.92549 -16250701.34048  20272007.351    20272014.920
  23284678.616     8689072.27249   6767898.23246  23284678.912    23284689.057
  20812796.174   -11755351.08049  -9156152.24047  20812796.351    20812804.532
 03  3 18 18 51  0.0000000  0  7G30G 6G10G 4G 5G 9G24
  21597555.195   -18455287.45049 -14137436.72347  21597555.714    21597563.664
  23688361.511    -7777102.13349  -6043047.15545  23688361.829    23688373.026
  22838928.607   -13822602.90149 -10749263.00946  22838928.159    22838940.445
  22841805.183     7694698.07449   5993215.20146  22841805.617    22841814.760
  20269340.526   -20869561.11649 -16261622.27048  20269340.338    20269347.884
  23302575.606     8783120.57249   6841182.47646  23302575.822    23302585.980
  20821066.436   -11711890.50649  -9122286.87147  20821066.616    20821074.821
 03  3 18 18 51 30.0000000  0  7G30G 6G10G 4G 5G 9G24
  21582782.878   -18532916.28649 -14197926.69047  21582783.410    21582791.372
  23675198.484    -7846273.05249  -6096946.50945  23675198.842    23675210.179
  22821542.660   -13913965.99549 -10820454.83146  22821542.176    22821554.381
  22859786.932     7789191.94349   6066846.67846  22859787.328    22859796.365
  20266766.847   -20883086.15549 -16272161.26448  20266766.649    20266774.156
  23320499.320     8877309.81449   6914576.52346  23320499.544    23320509.761
  20829415.935   -11668013.50249  -9088097.01247  20829416.165    20829424.376
 03  3 18 18 52  0.0000000  0  7G30G 6G10G 4G 5G 9G24
  21568067.666   -18610245.11549 -14258182.88347  21568068.207    21568076.192
  23662046.476    -7915387.44849  -6150801.78145  23662046.726    23662058.094
  22804201.774   -14005091.98949 -10891461.91446  22804201.350    22804213.491
  22877803.356     7883868.88049   6140620.81346  22877803.786    22877812.903
  20264286.697   -20896119.48149 -16282317.10248  20264286.486    20264293.980
  23338449.225     8971637.21449   6988078.23946  23338449.507    23338459.841
  20837844.450   -11623721.69549  -9053583.93647  20837844.660    20837852.831
 03  3 18 18 52 30.0000000  0  7G30G 6G10G 4G 5G 9G24
  21553410.094   -18687271.41049 -14318203.34247  21553410.564    21553418.555
  23648905.287    -7984445.04249  -6204612.78645  23648905.533    23648916.880
  22786906.663   -14095977.82349 -10962281.85146  22786906.283    22786918.308
  22895854.187     7978726.52249   6214535.75746  22895854.659    22895863.808
  20261900.322   -20908660.09749 -16292089.01548  20261900.088    20261907.549
  23356424.982     9066099.85449   7061685.33946  23356425.323    23356435.631
  20846351.397   -11579017.56549  -9018749.57147  20846351.591    20846359.754
 03  3 18 18 53  0.0000000  0  7G30G 6G10G 4G 5G 9G24
  21538810.337   -18763993.34449 -14377986.62847  21538810.852    21538818.810
  23635774.814    -8053446.48849  -6258380.05545  23635775.043    23635786.258
  22769657.862   -14186620.66649 -11032912.45746  22769657.404    22769669.325
  22913939.115     8073761.59649   6288588.94646  22913939.440    22913948.452
  20259607.791   -20920707.47649 -16301476.59048  20259607.575    20259615.020
  23374425.913     9160694.00449   7135394.91246  23374426.141    23374436.440
  20854936.282   -11533903.76649  -8983595.98447  20854936.478    20854944.661
 03  3 18 18 53 30.0000000  0  7G30G 6G10G 4G 5G 9G24
  21524269.126   -18840408.17749 -14437530.62147  21524269.618    21524277.526
  23622654.994    -8122391.59449  -6312103.39446  23622655.236    23622666.388
  22752455.999   -14277016.63949 -11103350.69346  22752455.563    22752467.326
  22932056.989     8168971.99149   6362778.75946  22932057.427    22932066.436
  20257409.393   -20932260.07549 -16310478.61648  20257409.177    20257416.653
  23392451.207     9255416.98049   7209204.86546  23392451.403    23392461.827
  20863598.847   -11488381.79349  -8948124.34047  20863599.031    20863607.224
 03  3 18 18 54  0.0000000  0  7G30G 6G10G 4G 5G 9G24
  21509786.809   -18916512.73049 -14496832.84247  21509787.404    21509795.269
  23609545.980    -8191279.54949  -6365782.19646  23609546.231    23609557.298
  22735301.951   -14367161.83849 -11173593.53146  22735301.478    22735313.079
  22950207.955     8264356.16449   6437103.97446  22950208.441    22950217.559
  20255305.492   -20943316.00249 -16319093.63248  20255305.314    20255312.811
  23410500.600     9350266.63249   7283113.52446  23410500.788    23410511.311
  20872338.780   -11442453.24049  -8912335.88647  20872338.950    20872347.148
 03  3 18 18 54 30.0000000  0  7G30G 6G10G 4G 5G 9G24
  21495363.976   -18992305.19849 -14555891.87347  21495364.549    21495372.400
  23596447.667    -8260110.82149  -6419416.82646  23596447.889    23596459.126
  22718196.106   -14457053.29049 -11243638.65146  22718195.571    22718207.068
  22968391.560     8359910.95449   6511562.14446  22968391.982    22968401.257
  20253296.236   -20953874.67649 -16327321.17248  20253296.055    20253303.595
  23428573.384     9445239.63549   7357118.30946  23428573.636    23428584.212
  20881155.603   -11396120.45749  -8876232.44647  20881155.786    20881164.013
 03  3 18 18 55  0.0000000  0  7G30G 6G10G 4G 5G 9G24
  21481001.019   -19067783.13649 -14614705.80647  21481001.532    21481009.429
  23583360.055    -8328885.35849  -6473007.24546  23583360.340    23583371.741
  22701139.123   -14546687.70549 -11313483.45846  22701138.539    22701150.012
  22986607.313     8455633.94949   6586151.37546  22986607.722    22986616.935
  20251381.786   -20963935.09749 -16335160.46348  20251381.620    20251389.165
  23446669.066     9540332.61949   7431216.58946  23446669.308    23446679.903
  20890048.981   -11349385.63749  -8839815.73947  20890049.150    20890057.389
 03  3 18 18 55 30.0000000  0  7G30G 6G10G 4G 5G 9G24
  21466698.324   -19142943.68349 -14673272.42747  21466698.914    21466706.852
  23570283.399    -8397603.00749  -6526553.34046  23570283.752    23570295.077
  22684131.650   -14636061.37449 -11383125.11646  22684131.104    22684142.519
  23004854.247     8551522.98749   6660869.97846  23004854.730    23004864.218
  20249562.450   -20973495.90449 -16342610.44648  20249562.260    20249569.838
  23464787.112     9635543.00549   7505406.34746  23464787.376    23464798.057
  20899018.482   -11302250.72949  -8803087.26947  20899018.650    20899026.896
 03  3 18 18 56  0.0000000  0  7G30G 6G10G 4G 5G 9G24
  21452456.482   -19217784.74749 -14731590.09447  21452457.093    21452465.044
  23557217.660    -8466263.87849  -6580055.19646  23557218.007    23557229.221
  22667174.402   -14725171.23349 -11452561.18846  22667173.853    22667185.291
  23023132.378     8647575.36449   6735715.88546  23023132.947    23023142.396
  20247838.374   -20982556.10749 -16349670.34848  20247838.183    20247845.758
  23482926.904     9730867.71849   7579685.20346  23482927.158    23482937.825
  20908063.695   -11254717.92449  -8766048.75347  20908063.888    20908072.112
 03  3 18 18 56 30.0000000  0  7G30G 6G10G 4G 5G 9G24
  21438275.783   -19292304.44649 -14789657.35147  21438276.440    21438284.373
  23544162.639    -8534868.68249  -6633513.37146  23544162.916    23544174.057
  22650267.821   -14814014.54849 -11521789.57146  22650267.317    22650278.756
  23041441.301     8743788.03949   6810686.66946  23041441.761    23041451.156
  20246209.586   -20991115.45749 -16356339.97948  20246209.411    20246216.978
  23501087.701     9826302.94649   7654050.17146  23501088.005    23501098.595
  20917184.074   -11206789.98449  -8728702.34247  20917184.284    20917192.480
 03  3 18 18 57  0.0000000  0  7G30G 6G10G 4G 5G 9G24
  21424156.746   -19366500.34049 -14847472.29147  21424157.375    21424165.339
  23531118.258    -8603417.22149  -6686927.72646  23531118.456    23531129.543
  22633412.656   -14902587.98749 -11590807.67546  22633412.185    22633423.570
  23059780.252     8840158.53549   6885780.43246  23059780.616    23059790.050
  20244676.265   -20999172.93649 -16362618.53948  20244676.122    20244683.692
  23519269.092     9921846.01249   7728499.16546  23519269.379    23519280.115
  20926379.294   -11158469.23349  -8691049.84047  20926379.479    20926387.696
 03  3 18 18 57 30.0000000  0  7G30G 6G10G 4G 5G 9G24
  21410099.936   -19440369.15649 -14905032.36647  21410100.576    21410108.562
  23518084.714    -8671908.51149  -6740297.50546  23518084.969    23518095.940
  22616609.688   -14990887.19049 -11659612.10046  22616609.267    22616620.631
  23078148.578     8936685.44049   6960996.10246  23078149.050    23078158.540
  20243238.885   -21006726.64549 -16368504.56148  20243238.727    20243246.298
  23537470.396    10017494.92549   7803030.62346  23537470.827    23537481.717
  20935649.041   -11109756.52449  -8653091.92147  20935649.192    20935657.461
 03  3 18 18 58  0.0000000  0  7G30G 6G10G 4G 5G 9G24
  21396105.899   -19513908.10649 -14962335.40347  21396106.554    21396114.520
  23505061.950    -8740342.33949  -6793622.45645  23505062.254    23505073.164
  22599859.488   -15078908.86049 -11728200.25146  22599859.113    22599870.481
  23096546.408     9033366.50949   7036331.86146  23096546.923    23096556.506
  20241897.607   -21013775.29849 -16373997.02748  20241897.416    20241904.975
  23555691.581    10113246.68949   7877642.24946  23555691.944    23555702.836
  20944992.990   -11060653.99649  -8614830.25347  20944993.133    20945001.426
 03  3 18 18 58 30.0000000  0  7G30G 6G10G 4G 5G 9G24
  21382175.033   -19587115.90849 -15019380.41447  21382175.578    21382183.509
  23492050.090    -8808719.47549  -6846903.25745  23492050.382    23492061.313
  22583162.794   -15166650.42449 -11796570.13946  22583162.342    22583173.670
  23114973.311     9130198.56549   7111785.26746  23114973.687    23114983.104
  20240652.443   -21020318.77849 -16379095.85848  20240652.238    20240659.769
  23573931.624    10209097.53749   7952331.08746  23573931.876    23573942.812
  20954410.569   -11011164.64449  -8576267.15947  20954410.723    20954418.995
 03  3 18 18 59  0.0000000  0  7G30G 6G10G 4G 5G 9G24
  21368307.509   -19659990.24749 -15076165.57247  21368308.078    21368315.973
  23479049.012    -8877040.38649  -6900140.24646  23479049.283    23479060.228
  22566519.879   -15254109.02349 -11864719.55246  22566519.444    22566530.730
  23133428.152     9227178.75549   7187354.12046  23133428.591    23133437.927
  20239503.502   -21026356.64549 -16383800.69848  20239503.303    20239510.830
  23592189.830    10305044.08749   8027094.49446  23592189.976    23592200.985
  20963901.195   -10961291.01149  -8537404.61747  20963901.353    20963909.647
 03  3 18 18 59 30.0000000  0  7G30G 6G10G 4G 5G 9G24
  21354504.050   -19732527.99649 -15132688.46147  21354504.574    21354512.471
  23466058.864    -8945304.14649  -6953332.70846  23466059.095    23466070.031
  22549931.603   -15341280.43149 -11932645.19146  22549931.188    22549942.410
  23151910.653     9324305.44849   7263037.11546  23151911.125    23151920.623
  20238451.048   -21031887.25149 -16388110.27548  20238450.862    20238458.378
  23610465.670    10401084.13449   8101930.75146  23610465.864    23610476.945
  20973464.758   -10911034.45449  -8498243.70247  20973464.912    20973473.249
 03  3 18 19  0  0.0000000  0  7G30G 6G10G 4G 5G 9G24
  21340764.966   -19804727.12949 -15188947.48547  21340765.496    21340773.393
  23453079.602    -9013511.19849  -7006481.01046  23453079.801    23453090.605
  22533398.640   -15428161.72749 -12000344.76246  22533398.183    22533409.351
  23170420.717     9421575.99449   7338832.21146  23170421.200    23170430.757
  20237495.252   -21036909.94049 -16392024.07248  20237495.104    20237502.593
  23628758.813    10497214.20849   8176837.16246  23628759.030    23628770.048
  20983100.665   -10860397.59749  -8458786.44747  20983100.831    20983109.161
 03  3 18 19  0 30.0000000  0  7G30G 6G10G 4G 5G 9G24
  21327090.610   -19876585.56049 -15244941.02647  21327091.242    21327099.139
  23440110.996    -9081661.81549  -7059585.28946  23440111.179    23440121.950
  22516921.324   -15514749.69349 -12067815.76946  22516920.940    22516932.128
  23188957.845     9518987.49749   7414737.15946  23188958.238    23188967.699
  20236636.230   -21041424.15849 -16395541.65448  20236636.078    20236643.589
  23647068.519    10593431.11049   8251811.22846  23647068.605    23647079.670
  20992808.449   -10809382.75749  -8419034.65647  20992808.631    20992816.977
 03  3 18 19  1  0.0000000  0  7G30G 6G10G 4G 5G 9G24
  21313481.711   -19948100.54249 -15300666.94847  21313482.373    21313490.272
  23427153.106    -9149755.54249  -7112645.25246  23427153.220    23427164.073
  22500500.650   -15601040.98849 -12135055.59546  22500500.178    22500511.336
  23207521.105     9616537.82149   7490750.29446  23207521.558    23207531.088
  20235874.168   -21045428.72049 -16398662.10748  20235874.026    20235881.585
  23665394.069    10689732.28049   8326850.92346  23665394.168    23665405.421
  21002587.861   -10757991.86449  -8378989.83347  21002588.021    21002596.408
 03  3 18 19  1 30.0000000  0  7G30G 6G10G 4G 5G 9G24
  21299938.746   -20019269.13449 -15356122.95847  21299939.389    21299947.296
  23414205.990    -9217791.82349  -7165660.46546  23414206.242    23414217.078
  22484137.122   -15687031.76649 -12202061.25946  22484136.637    22484147.762
  23226110.314     9714225.26449   7566870.24646  23226110.968    23226120.501
  20235209.362   -21048922.36549 -16401384.44248  20235209.206    20235216.792
  23683735.266    10786115.48249   8401954.54846  23683735.420    23683746.784
  21012438.494   -10706226.69349  -8338653.36447  21012438.651    21012447.028
 03  3 18 19  2  0.0000000  0  7G30G 6G10G 4G 5G 9G24
  21286462.049   -20090089.51049 -15411307.64047  21286462.689    21286470.608
  23401269.674    -9285771.26349  -7218631.38545  23401269.968    23401280.917
  22467831.157   -15772719.15349 -12268830.52146  22467830.725    22467841.912
  23244725.364     9812046.97649   7643094.82046  23244725.940    23244735.374
  20234641.826   -21051904.90149 -16403708.51448  20234641.679    20234649.283
  23702091.486    10882576.84049   8477119.06546  23702091.483    23702102.909
  21022359.823   -10654089.80549  -8298027.24847  21022360.003    21022368.378
 03  3 18 19  2 30.0000000  0  7G30G 6G10G 4G 5G 9G24
  21273052.172   -20160559.02749 -15466218.92547  21273052.782    21273060.675
  23388344.374    -9353693.39349  -7271557.64446  23388344.706    23388355.671
  22451583.652   -15858099.66949 -12335360.65946  22451583.223    22451594.393
  23263365.510     9910000.67649   7719422.22746  23263365.997    23263375.488
  20234171.800   -21054375.04649 -16405633.31048  20234171.634    20234179.255
  23720462.025    10979113.86949   8552342.56446  23720462.126    23720473.424
  21032351.531   -10601583.22049  -8257113.05947  21032351.706    21032360.080
 03  3 18 19  3  0.0000000  0  7G30G 6G10G 4G 5G 9G24
  21259709.469   -20230675.10049 -15520854.79247  21259710.089    21259717.969
  23375430.216    -9421557.82649  -7324438.95246  23375430.516    23375441.387
  22435395.149   -15943169.89849 -12401649.02546  22435394.750    22435405.947
  23282030.328    10008084.43649   7795851.02446  23282030.796    23282040.409
  20233799.451   -21056331.71349 -16407157.99548  20233799.302    20233806.938
  23738846.483    11075723.83549   8627622.89146  23738846.489    23738857.828
  21042413.141   -10548709.21549  -8215912.56447  21042413.290    21042421.730
 03  3 18 19  3 30.0000000  0  7G30G 6G10G 4G 5G 9G24
  21246434.515   -20300435.29449 -15575213.35447  21246435.119    21246443.007
  23362527.091    -9489364.70449  -7377275.40146  23362527.319    23362538.121
  22419266.381   -16027926.64349 -12467693.11346  22419265.966    22419277.159
  23300719.359    10106295.90249   7872379.32046  23300719.808    23300729.537
  20233524.965   -21057774.27349 -16408282.07748  20233524.832    20233532.447
  23757244.109    11172403.68649   8702957.64746  23757244.212    23757255.570
  21052544.237   -10495469.86349  -8174427.38147  21052544.427    21052552.916
 03  3 18 19  4  0.0000000  0  7G30G 6G10G 4G 5G 9G24
  21233227.770   -20369836.94249 -15629292.53447  21233228.422    21233236.277
  23349634.854    -9557113.79049  -7430066.83046  23349635.124    23349645.783
  22403197.913   -16112366.32249 -12533490.13746  22403197.510    22403208.667
  23319432.330    10204632.80849   7949005.32646  23319432.892    23319442.530
  20233348.468   -21058701.93149 -16409004.93348  20233348.324    20233355.950
  23775654.616    11269150.76449   8778344.83746  23775654.747    23775666.056
  21062744.542   -10441866.88249  -8132658.85547  21062744.735    21062753.213
 03  3 18 19  4 30.0000000  0  7G30G 6G10G 4G 5G 9G24
  21220089.568   -20438878.15049 -15683090.84247  21220090.287    21220098.117
  23336753.584    -9624805.43549  -7482813.48846  23336753.802    23336764.432
  22387190.250   -16196486.29349 -12599038.05046  22387189.921    22387201.042
  23338168.830    10303092.32649   8025726.90246  23338169.331    23338178.737
  20233269.983   -21059114.22949 -16409326.20948  20233269.849    20233277.476
  23794077.197    11365961.52149   8853781.59545  23794077.342    23794088.634
  21073013.483   -10387903.33649  -8090609.36647  21073013.676    21073022.115
 03  3 18 19  5  0.0000000  0  7G30G 6G10G 4G 5G 9G24
  21207020.474   -20507556.46549 -15736606.38147  21207021.205    21207029.055
  23323883.194    -9692439.25749  -7535515.09046  23323883.392    23323894.096
  22371244.111   -16280282.88049 -12664333.96746  22371243.801    22371254.924
  23356928.032    10401672.51749   8102542.50945  23356928.475    23356938.091
  20233289.797   -21059010.31049 -16409245.24148  20233289.655    20233297.259
  23812511.299    11462833.41849   8929266.02045  23812511.591    23812522.950
  21083350.702   -10333581.11349  -8048280.38847  21083350.880    21083359.354
 03  3 18 19  5 30.0000000  0  7G30G 6G10G 4G 5G 9G24
  21194021.104   -20575868.89149 -15789836.81047  21194021.814    21194029.637
  23311023.815    -9760014.93949  -7588171.36446  23311024.024    23311034.862
  22355360.219   -16363752.45849 -12729375.07246  22355359.896    22355370.992
  23375709.806    10500371.35249   8179450.52645  23375710.292    23375720.215
  20233408.002   -21058389.17149 -16408761.23748  20233407.863    20233415.485
  23830956.660    11559763.70549   9004795.95445  23830956.961    23830968.241
  21093755.714   -10278902.11649  -8005673.40247  21093755.937    21093764.490
 03  3 18 19  6  0.0000000  0  7G30G 6G10G 4G 5G 9G24
  21181091.600   -20643813.93049 -15842780.96747  21181092.275    21181100.049
  23298175.368    -9827533.24049  -7640782.92746  23298175.619    23298186.548
  22339539.180   -16446892.54849 -12794159.43646  22339538.839    22339549.839
  23394513.827    10599185.70849   8256448.57145  23394514.325    23394524.149
  20233624.613   -21057250.90149 -16407874.28148  20233624.483    20233632.112
  23849412.483    11656748.72349   9080368.53845  23849412.775    23849423.857
  21104228.156   -10223869.05149  -7962790.52147  21104228.387    21104236.940
 03  3 18 19  6 30.0000000  0  7G30G 6G10G 4G 5G 9G24
  21168232.528   -20711389.05849 -15895436.88347  21168233.147    21168240.883
  23285337.980    -9894993.71949  -7693349.44646  23285338.216    23285349.158
  22323781.424   -16529699.72549 -12858684.40046  22323781.088    22323791.967
  23413339.053    10698113.61349   8333535.09845  23413339.692    23413349.472
  20233939.831   -21055594.50149 -16406583.58448  20233939.685    20233947.336
  23867878.096    11753785.93849   9155981.77345  23867878.432    23867889.497
  21114767.675   -10168484.21849  -7919633.53847  21114767.840    21114776.335
 03  3 18 19  7  0.0000000  0  7G30G 6G10G 4G 5G 9G24
  21155444.271   -20778591.74749 -15947802.58647  21155444.880    21155452.585
  23272511.713    -9962396.21949  -7745870.76646  23272511.966    23272522.728
  22308087.735   -16612170.58749 -12922947.30046  22308087.343    22308098.165
  23432185.505    10797152.64849   8410708.21845  23432186.165    23432196.092
  20234353.770   -21053419.39749 -16404888.70648  20234353.609    20234361.254
  23886353.182    11850872.55249   9231633.53045  23886353.631    23886364.661
  21125373.624   -10112749.83349  -7876204.17547  21125373.778    21125382.250
 03  3 18 19  7 30.0000000  0  7G30G 6G10G 4G 5G 9G24
  21142727.261   -20845419.89149 -15999876.43747  21142727.884    21142735.610
  23259696.571   -10029740.94249  -7798347.09246  23259696.777    23259707.328
  22292458.518   -16694302.14349 -12986945.81646  22292458.173    22292468.914
  23451053.082    10896300.63049   8487966.24845  23451053.583    23451063.422
  20234866.495   -21050725.02949 -16402789.20648  20234866.324    20234873.967
  23904837.094    11948005.44449   9307321.35245  23904837.505    23904848.613
  21136045.542   -10056668.13749  -7832504.18347  21136045.750    21136054.261
 03  3 18 19  8  0.0000000  0  7G30G 6G10G 4G 5G 9G24
  21130081.885   -20911871.31149 -16051656.73047  21130082.558    21130090.330
  23246892.271   -10097028.19849  -7850778.62946  23246892.431    23246902.820
  22276894.475   -16776091.63249 -13050677.78346  22276894.137    22276904.805
  23469940.600    10995554.64649   8565306.87645  23469941.168    23469951.089
  20235478.086   -21047511.10449 -16400284.85748  20235477.920    20235485.550
  23923329.415    12045181.36349   9383042.69245  23923329.604    23923340.739
  21146783.158   -10000241.76749  -7788535.62147  21146783.376    21146791.853
 03  3 18 19  8 30.0000000  0  7G30G 6G10G 4G 5G 9G24
  21117508.934   -20977943.03749 -16103141.16347  21117509.532    21117517.284
  23234098.921   -10164256.92049  -7903164.55346  23234099.148    23234109.446
  22261396.175   -16857535.21749 -13114140.20646  22261395.816    22261406.482
  23488848.017    11094913.43549   8642729.16946  23488848.528    23488858.715
  20236188.796   -21043776.36049 -16397374.67248  20236188.638    20236196.232
  23941829.245    12142398.10749   9458795.83345  23941829.406    23941840.663
  21157586.066    -9943472.33349  -7744299.73247  21157586.268    21157594.757
 03  3 18 19  9  0.0000000  0  7G30G 6G10G 4G 5G 9G24
  21105008.587   -21043632.09549 -16154327.40847  21105009.276    21105017.043
  23221316.807   -10231426.50249  -7955504.38046  23221317.077    23221327.381
  22245964.444   -16938628.95049 -13177330.02646  22245964.160    22245974.754
  23507774.760    11194375.05449   8720231.55746  23507775.445    23507785.772
  20236998.856   -21039519.71449 -16394057.81648  20236998.667    20237006.237
  23960336.185    12239653.17649   9534578.85845  23960336.424    23960347.846
  21168453.854    -9886361.62749  -7699797.91347  21168454.094    21168462.633
 03  3 18 19  9 30.0000000  0  7G30G 6G10G 4G 5G 9G24
  21092581.489   -21108936.87149 -16205214.21947  21092582.169    21092589.910
  23208545.916   -10298537.48349  -8007798.56046  23208546.148    23208556.589
  22230599.886   -17019370.18949 -13240245.18546  22230599.546    22230610.131
  23526721.091    11293936.82149   8797811.98546  23526721.669    23526731.818
  20237908.187   -21034741.29449 -16390334.38248  20237907.978    20237915.543
  23978849.947    12336943.01249   9610388.95845  23978850.157    23978861.814
  21179386.194    -9828912.20649  -7655032.16847  21179386.416    21179394.918
 03  3 18 19 10  0.0000000  0  7G30G 6G10G 4G 5G 9G24
  21080227.972   -21173855.03949 -16255799.77247  21080228.641    21080236.371
  23195786.079   -10365589.91749  -8060047.09546  23195786.312    23195796.881
  22215302.855   -17099756.27949 -13302883.59046  22215302.466    22215313.134
  23545685.862    11393596.41749   8875468.65046  23545686.510    23545696.473
  20238916.881   -21029440.56749 -16386203.95348  20238916.689    20238924.247
  23997369.762    12434264.85749   9686223.99145  23997369.916    23997381.627
  21190382.410    -9771126.64549  -7610004.49347  21190382.623    21190391.148
 03  3 18 19 10 30.0000000  0  7G30G 6G10G 4G 5G 9G24
  21067948.259   -21238385.17649 -16306082.96447  21067948.932    21067956.606
  23183037.340   -10432584.55949  -8112250.62946  23183037.607    23183048.185
  22200073.927   -17179784.57149 -13365243.20446  22200073.530    22200084.153
  23564668.416    11493350.65449   8953199.05645  23564669.099    23564679.387
  20240024.878   -21023617.96949 -16381666.87548  20240024.693    20240032.248
  24015895.080    12531614.81249   9762080.94445  24015895.141    24015906.816
  21201442.016    -9713007.92549  -7564717.21947  21201442.277    21201450.788
 03  3 18 19 11  0.0000000  0  7G30G 6G10G 4G 5G 9G24
  21055743.125   -21302523.79049 -16356061.07047  21055743.762    21055751.410
  23170300.060   -10499520.10149  -8164408.10946  23170300.295    23170310.704
  22184913.868   -17259450.83449 -13427320.71846  22184913.464    22184924.099
  23583668.947    11593198.38449   9031002.33945  23583669.535    23583680.098
  20241232.530   -21017271.82649 -16376721.83848  20241232.336    20241239.889
  24034425.349    12628991.32849   9837958.54745  24034425.373    24034437.115
  21212564.943    -9654557.12849  -7519171.18647  21212565.177    21212573.642
 03  3 18 19 11 30.0000000  0  7G30G 6G10G 4G 5G 9G24
  21043612.850   -21366268.73849 -16405732.42747  21043613.470    21043621.123
  23157573.965   -10566396.73449  -8216519.70446  23157574.135    23157584.428
  22169823.279   -17338752.07449 -13489113.79146  22169822.841    22169833.474
  23602686.753    11693137.28949   9108876.62445  23602687.349    23602698.086
  20242539.825   -21010401.92949 -16371368.68648  20242539.641    20242547.205
  24052960.305    12726391.12149   9913854.33545  24052960.132    24052971.890
  21223750.445    -9595776.88049  -7473368.43347  21223750.683    21223759.204
 03  3 18 19 12  0.0000000  0  7G30G 6G10G 4G 5G 9G24
  21031557.822   -21429617.86749 -16455095.35247  21031558.525    21031566.189
  23144858.989   -10633214.34849  -8268585.30046  23144859.197    23144869.332
  22154802.793   -17417685.11649 -13550619.96746  22154802.310    22154812.910
  23621721.627    11793164.86749   9186820.04445  23621722.182    23621732.701
  20243946.874   -21003007.91449 -16365607.12848  20243946.697    20243954.263
  24071498.603    12823811.19349   9989765.88945  24071498.559    24071510.580
  21234998.191    -9536669.63549  -7427310.88547  21234998.446    21235007.010
 03  3 18 19 12 30.0000000  0  7G30G 6G10G 4G 5G 9G24
  21019578.877   -21492567.75549 -16504147.17947  21019579.538    21019587.224
  23132155.289   -10699971.85549  -8320604.06646  23132155.612    23132165.709
  22139853.097   -17496245.92049 -13611836.08546  22139852.619    22139863.164
  23640773.059    11893280.05149   9264831.69845  23640773.573    23640784.144
  20245453.927   -20995088.30549 -16359436.01948  20245453.754    20245461.305
  24090040.423    12921249.35949  10065691.56945  24090040.591    24090052.663
  21246307.993    -9477236.78649  -7380999.62147  21246308.237    21246316.733
 03  3 18 19 13  0.0000000  0  7G30G 6G10G 4G 5G 9G24
  21007676.257   -21555116.62449 -16552886.52147  21007676.868    21007684.581
  23119463.050   -10766669.46149  -8372576.14646  23119463.349    23119473.489
  22124974.683   -17574431.97749 -13672760.18846  22124974.219    22124984.753
  23659840.518    11993480.17249   9342909.53645  23659840.904    23659851.752
  20247060.972   -20986643.35349 -16352855.55048  20247060.801    20247068.382
  24108585.378    13018702.68549  10141629.05145  24108585.553    24108597.726
  21257679.221    -9417480.90949  -7334436.63947  21257679.425    21257687.903
 03  3 18 19 13 30.0000000  0  7G30G 6G10G 4G 5G 9G24
  20995850.304   -21617262.32149 -16601311.70947  20995850.945    20995858.630
  23106782.170   -10833307.33049  -8424501.68246  23106782.488    23106792.642
  22110168.138   -17652240.16749 -13733389.85946  22110167.729    22110178.212
  23678923.606    12093762.89549   9421051.77345  23678924.152    23678935.064
  20248767.996   -20977672.77449 -16345865.50748  20248767.850    20248775.420
  24127132.741    13116168.21149  10217576.04446  24127132.833    24127144.951
  21269111.395    -9357404.48249  -7287623.88147  21269111.610    21269120.121
 03  3 18 19 14  0.0000000  0  7G30G 6G10G 4G 5G 9G24
  20984101.487   -21679002.80849 -16649421.14347  20984102.089    20984109.760
  23094112.630   -10899885.62449  -8476380.80246  23094112.849    23094123.134
  22095434.222   -17729667.60449 -13793722.82046  22095433.740    22095444.230
  23698022.416    12194125.76149   9499256.43345  23698022.880    23698033.429
  20250575.093   -20968176.54649 -16338465.86348  20250574.949    20250582.500
  24145681.487    13213642.61949  10293529.95346  24145681.721    24145693.880
  21280604.178    -9297010.00449  -7240563.28547  21280604.364    21280612.863
 03  3 18 19 14 30.0000000  0  7G30G 6G10G 4G 5G 9G24
  20972430.176   -21740335.68549 -16697212.96547  20972430.808    20972438.451
  23081454.486   -10966403.98049  -8528213.21546  23081454.741    23081465.103
  22080773.273   -17806710.98949 -13853756.53246  22080772.819    22080783.241
  23717136.084    12294566.83249   9577522.08745  23717136.538    23717146.786
  20252482.358   -20958153.95649 -16330656.07448  20252482.188    20252489.738
  24164231.693    13311123.57649  10369488.97746  24164231.919    24164243.989
  21292156.945    -9236299.61949  -7193256.53147  21292157.136    21292165.714
 03  3 18 19 15  0.0000000  0  7G30G 6G10G 4G 5G 9G24
  20960836.894   -21801258.48249 -16744685.23847  20960837.564    20960845.182
  23068807.965   -11032862.10449  -8579998.70546  23068808.197    23068818.516
  22066185.993   -17883367.23449 -13913488.58146  22066185.528    22066195.875
  23736263.815    12395084.16949   9655847.10845  23736264.406    23736274.679
  20254489.854   -20947604.54049 -16322435.76748  20254489.689    20254497.245
  24182782.631    13408608.20549  10445450.87445  24182782.838    24182794.781
  21303769.445    -9175275.39349  -7145705.22947  21303769.707    21303778.280
 03  3 18 19 15 30.0000000  0  7G30G 6G10G 4G 5G 9G24
  20949322.078   -21861769.05149 -16791836.29547  20949322.776    20949330.366
  23056172.904   -11099260.10349  -8631737.33946  23056173.143    23056183.334
  22051672.947   -17959633.40149 -13972916.67546  22051672.525    22051682.816
  23755405.874    12495675.24549   9734229.61245  23755406.444    23755416.826
  20256597.583   -20936528.33349 -16313804.97448  20256597.419    20256605.009
  24201333.693    13506093.46449  10521413.23345  24201333.795    24201345.768
  21315441.302    -9113939.94849  -7097911.41847  21315441.507    21315450.009
 03  3 18 19 16  0.0000000  0  7G30G 6G10G 4G 5G 9G24
  20937886.183   -21921864.93549 -16838664.22447  20937886.863    20937894.454
  23043549.384   -11165597.33249  -8683428.62746  23043549.623    23043559.716
  22037234.735   -18035506.16249 -14032038.20146  22037234.330    22037244.613
  23774561.170    12596338.27649   9812668.16745  23774561.943    23774572.660
  20258805.705   -20924924.71449 -16304763.21348  20258805.541    20258813.108
  24219884.230    13603576.76149  10597374.04545  24219884.433    24219896.507
  21327172.006    -9052294.88549  -7049876.33747  21327172.186    21327180.730
 03  3 18 19 16 30.0000000  0  7G30G 6G10G 4G 5G 9G24
  20926529.639   -21981543.94649 -16885167.31847  20926530.305    20926537.882
  23030937.284   -11231873.95249  -8735072.68146  23030937.533    23030947.676
  22022871.984   -18110982.42849 -14090850.77146  22022871.604    22022881.825
  23793730.255    12697070.98949   9891161.05145  23793730.874    23793741.588
  20261114.218   -20912793.42349 -16295310.28348  20261114.063    20261121.638
  24238433.999    13701055.15749  10673331.04645  24238434.141    24238446.105
  21338961.142    -8990342.63749  -7001601.90647  21338961.314    21338969.882
 03  3 18 19 17  0.0000000  0  7G30G 6G10G 4G 5G 9G24
  20915252.939   -22040803.64049 -16931343.67447  20915253.541    20915261.120
  23018336.748   -11298089.53749  -8786669.16546  23018337.007    23018347.213
  22008585.288   -18186059.26049 -14149352.11146  22008584.864    22008595.057
  23812912.033    12797871.56549   9969706.77745  23812912.582    23812923.163
  20263523.211   -20900134.06649 -16285445.86948  20263523.085    20263530.662
  24256982.229    13798525.88649  10749282.03945  24256982.279    24256994.257
  21350808.320    -8928085.92849  -6953090.22947  21350808.463    21350816.998
 03  3 18 19 17 30.0000000  0  7G30G 6G10G 4G 5G 9G24
  20904056.290   -22099642.29749 -16977191.94247  20904056.913    20904064.501
  23005747.841   -11364244.38349  -8838218.32746  23005748.013    23005758.256
  21994375.111   -18260733.80549 -14207539.96446  21994374.671    21994384.918
  23832106.495    12898737.11149  10048303.14645  23832106.796    23832117.343
  20266032.733   -20886946.86549 -16275170.15248  20266032.568    20266040.137
  24275528.447    13895985.98649  10825224.79645  24275528.510    24275540.516
  21362712.850    -8865527.12749  -6904343.14847  21362713.012    21362721.634
 03  3 18 19 18  0.0000000  0  7G30G 6G10G 4G 5G 9G24
  20892940.422   -22158056.63549 -17022709.57147  20892941.048    20892948.593
  22993170.595   -11430337.21949  -8889719.17946  22993170.819    22993181.102
  21980242.280   -18335002.26249 -14265411.37546  21980241.816    21980252.058
  23851312.868    12999667.00749  10126949.64645  23851313.399    23851323.888
  20268642.862   -20873230.74049 -16264482.28048  20268642.691    20268650.256
  24294072.069    13993433.55349  10901157.75045  24294072.194    24294084.427
  21374674.629    -8802667.78349  -6855361.88347  21374674.790    21374683.486
 03  3 18 19 18 30.0000000  0  7G30G 6G10G 4G 5G 9G24
  20881905.617   -22216044.87549 -17067895.17847  20881906.247    20881913.769
  22980605.151   -11496368.50149  -8941172.03946  22980605.398    22980615.741
  21966187.225   -18408861.71949 -14322964.10146  21966186.765    21966196.977
  23870530.901    13100658.40549  10205644.08745  23870531.505    23870542.193
  20271353.626   -20858985.97549 -16253382.48748  20271353.414    20271360.960
  24312612.609    14090865.23949  10977078.35245  24312612.969    24312625.233
  21386693.137    -8739510.42049  -6806148.39547  21386693.280    21386701.936
 03  3 18 19 19  0.0000000  0  7G30G 6G10G 4G 5G 9G24
  20870952.412   -22273605.04849 -17112747.22747  20870952.910    20870960.410
  22968051.516   -11562338.24849  -8992576.97546  22968051.798    22968062.013
  21952210.535   -18482309.63749 -14380196.14746  21952209.991    21952220.150
  23889760.131    13201709.02449  10284384.65945  23889760.813    23889771.862
  20274164.838   -20844212.83649 -16241870.97048  20274164.668    20274172.219
  24331149.737    14188278.00049  11052984.17545  24331150.015    24331162.396
  21398767.867    -8676057.32549  -6756704.46147  21398768.011    21398776.664
 03  3 18 19 19 30.0000000  0  7G30G 6G10G 4G 5G 9G24
  20860080.829   -22330735.15649 -17157264.15847  20860081.406    20860088.880
  22955509.734   -11628246.44649  -9043933.93846  22955509.951    22955519.991
  21938312.530   -18555343.74049 -14437105.73746  21938311.993    21938322.116
  23909000.304    13302816.58449  10363169.61845  23909001.132    23909012.061
  20277076.716   -20828911.10849 -16229947.56948  20277076.522    20277084.079
  24349682.870    14285668.91449  11128873.03245  24349683.075    24349695.311
  21410898.384    -8612311.31549  -6707032.29147  21410898.543    21410907.192
 03  3 18 19 20  0.0000000  0  7G30G 6G10G 4G 5G 9G24
  20849291.558   -22387432.66449 -17201444.00147  20849292.185    20849299.635
  22942979.691   -11694092.70749  -9095242.64746  22942979.876    22942989.883
  21924494.044   -18627960.25249 -14493689.93146  21924493.459    21924503.558
  23928251.079    13403979.27249  10441997.52345  23928251.816    23928262.629
  20280089.170   -20813080.40249 -16217611.97848  20280089.006    20280096.585
  24368211.346    14383035.48049  11204742.87545  24368211.618    24368223.621
  21423084.278    -8548274.42049  -6657133.44847  21423084.427    21423093.095
 03  3 18 19 20 30.0000000  0  7G30G 6G10G 4G 5G 9G24
  20838585.120   -22443695.38849 -17245285.05247  20838585.737    20838593.139
  22930461.294   -11759876.60349  -9146502.77446  22930461.532    22930471.540
  21910755.545   -18700155.96449 -14549946.23247  21910754.970    21910765.009
  23947511.850    13505195.22849  10520866.90645  23947512.642    23947523.590
  20283202.293   -20796720.56449 -16204864.07748  20283202.181    20283209.767
  24386734.641    14480374.99349  11280591.59145  24386734.784    24386747.012
  21435325.036    -8483948.69949  -6607009.55447  21435325.203    21435333.841
 03  3 18 19 21  0.0000000  0  7G30G 6G10G 4G 5G 9G24
  20827961.937   -22499520.68749 -17288785.25347  20827962.522    20827969.916
  22917954.936   -11825597.57149  -9197713.85146  22917955.150    22917965.183
  21897097.756   -18771927.63849 -14605872.13347  21897097.205    21897107.164
  23966782.425    13606462.62649  10599776.42545  23966783.222    23966794.432
  20286416.255   -20779831.28649 -16191703.62548  20286416.116    20286423.727
  24405252.194    14577684.97749  11356417.34145  24405252.436    24405264.949
  21447620.379    -8419336.32549  -6556662.28747  21447620.561    21447629.186
 03  3 18 19 21 30.0000000  0  7G30G 6G10G 4G 5G 9G24
  20817422.363   -22554906.25849 -17331942.80547  20817422.958    20817430.367
  22905460.625   -11891255.39849  -9248875.73246  22905460.770    22905470.863
  21883521.199   -18843272.34049 -14661465.30847  21883520.684    21883530.691
  23986062.454    13707779.62949  10678724.52745  23986063.263    23986074.840
  20289730.991   -20762412.33749 -16178130.44048  20289730.882    20289738.468
  24423763.661    14674962.82849  11432218.02345  24423763.900    24423776.410
  21459969.925    -8354439.28249  -6506093.19947  21459970.092    21459978.779
 03  3 18 19 22  0.0000000  0  7G30G 6G10G 4G 5G 9G24
  20806966.742   -22609850.64549 -17374756.58547  20806967.356    20806974.769
  22892978.206   -11956850.60749  -9299988.81846  22892978.272    22892988.430
  21870026.318   -18914187.81549 -14716724.03747  21870025.866    21870035.873
  24005351.743    13809143.24249  10757709.02445  24005352.391    24005363.903
  20293146.438   -20744464.29849 -16164144.98348  20293146.307    20293153.887
  24442268.532    14772204.92749  11507990.86445  24442268.759    24442281.165
  21472373.005    -8289260.61349  -6455304.67147  21472373.195    21472381.893
 03  3 18 19 22 30.0000000  0  7G30G 6G10G 4G 5G 9G24
  20796595.600   -22664351.11149 -17417224.45247  20796596.226    20796603.657
  22880507.712   -12022382.30849  -9351052.42646  22880507.844    22880518.056
  21856613.837   -18984670.58349 -14771645.59647  21856613.392    21856623.353
  24024649.379    13910552.36749  10836728.92745  24024649.980    24024661.574
  20296662.646   -20725986.57949 -16149746.78848  20296662.533    20296670.090
  24460766.122    14869409.14449  11583734.21345  24460766.303    24460778.787
  21484829.489    -8223801.81249  -6404297.85947  21484829.682    21484838.240
 03  3 18 19 23  0.0000000  0  7G30G 6G10G 4G 5G 9G24
  20786309.299   -22718405.64949 -17459344.83747  20786309.947    20786317.362
  22868049.436   -12087850.49049  -9402066.53946  22868049.678    22868059.759
  21843284.172   -19054718.04949 -14826227.96547  21843283.709    21843293.659
  24043955.448    14012004.67649  10915782.51645  24043955.915    24043967.482
  20300279.611   -20706979.26949 -16134935.92148  20300279.529    20300287.089
  24479255.834    14966572.57649  11659445.73345  24479256.053    24479268.693
  21497338.755    -8158065.44849  -6353074.76047  21497338.902    21497347.481
 03  3 18 19 23 30.0000000  0  7G30G 6G10G 4G 5G 9G24
  20776108.250   -22772012.30249 -17501116.22847  20776108.929    20776116.325
  22855603.439   -12153255.03649  -9453031.08246  22855603.645    22855613.610
  21830037.966   -19124327.33649 -14880468.89947  21830037.460    21830047.417
  24063269.237    14113498.17949  10994868.20345  24063269.844    24063281.322
  20303997.308   -20687442.65049 -16119712.61248  20303997.235    20304004.797
  24497737.174    15063692.53149  11735123.40945  24497737.538    24497750.046
  21509900.276    -8092054.23949  -6301637.49647  21509900.445    21509909.124
 03  3 18 19 24  0.0000000  0  7G30G 6G10G 4G 5G 9G24
  20765992.877   -22825169.01349 -17542537.01147  20765993.502    20766000.930
  22843169.619   -12218595.70449  -9503945.83746  22843169.792    22843179.668
  21816875.740   -19193495.53449 -14934366.14947  21816875.162    21816885.064
  24082590.458    14215030.64349  11073984.23745  24082590.949    24082602.440
  20307815.697   -20667376.91749 -16104077.00348  20307815.652    20307823.220
  24516209.939    15160766.15449  11810764.98245  24516210.250    24516222.924
  21522513.879    -8025769.96349  -6249987.46347  21522514.003    21522522.686
 03  3 18 19 24 30.0000000  0  7G30G 6G10G 4G 5G 9G24
  20755963.498   -22877873.44349 -17583605.37447  20755964.185    20755971.579
  22830747.923   -12283872.18949  -9554810.57846  22830748.042    22830757.947
  21803797.946   -19262219.57249 -14987917.30147  21803797.355    21803807.218
  24101919.006    14316600.51249  11153129.42845  24101919.288    24101930.740
  20311734.884   -20646781.81549 -16088028.89848  20311734.798    20311742.366
  24534673.417    15257790.92149  11886368.46345  24534673.628    24534686.416
  21535178.873    -7959214.88549  -6198126.40647  21535179.006    21535187.686
 03  3 18 19 25  0.0000000  0  7G30G 6G10G 4G 5G 9G24
  20746020.754   -22930123.18349 -17624319.43947  20746021.378    20746028.756
  22818338.489   -12349083.89249  -9605624.84646  22818338.673    22818348.538
  21790805.193   -19330496.45449 -15041120.02147  21790804.690    21790814.535
  24121254.037    14418205.96949  11232302.31145  24121254.272    24121265.742
  20315754.821   -20625657.18349 -16071568.17548  20315754.716    20315762.283
  24553127.053    15354764.32249  11961931.93945  24553127.203    24553139.999
  21547895.043    -7892391.09649  -6146055.96847  21547895.222    21547903.849
 03  3 18 19 25 30.0000000  0  7G30G 6G10G 4G 5G 9G24
  20736164.932   -22981915.67249 -17664677.20247  20736165.561    20736172.938
  22805941.494   -12414230.20449  -9656388.14546  22805941.686    22805951.584
  21777898.289   -19398322.79349 -15093971.67947  21777897.745    21777907.534
  24140595.722    14519845.34049  11311501.67245  24140596.002    24140606.951
  20319875.572   -20604002.70949 -16054694.58748  20319875.453    20319883.020
  24571570.456    15451684.14749  12037453.63145  24571570.556    24571583.458
  21560662.038    -7825300.73649  -6093777.81847  21560662.174    21560670.818
 03  3 18 19 26  0.0000000  0  7G30G 6G10G 4G 5G 9G24
  20726396.434   -23033249.30549 -17704677.41347  20726397.084    20726404.432
  22793556.789   -12479311.45849  -9707100.76646  22793557.009    22793566.953
  21765077.480   -19465696.32449 -15146470.50447  21765076.961    21765086.690
  24159943.164    14621516.46449  11390725.75045  24159943.349    24159954.380
  20324097.013   -20581819.07649 -16037408.67148  20324096.880    20324104.479
  24590003.208    15548547.12149  12112931.03445  24590003.164    24590016.058
  21573479.123    -7757946.44749  -6041294.00047  21573479.241    21573487.966
 03  3 18 19 26 30.0000000  0  7G30G 6G10G 4G 5G 9G24
  20716715.737   -23084121.83749 -17744318.32747  20716716.366    20716723.700
  22781184.665   -12544326.82049  -9757762.01246  22781184.864    22781194.941
  21752343.453   -19532614.09649 -15198614.20347  21752342.887    21752352.613
  24179296.161    14723217.32549  11469972.99745  24179296.511    24179307.660
  20328419.203   -20559106.08349 -16019710.26148  20328419.058    20328426.670
  24608424.396    15645350.97149  12188362.37945  24608424.542    24608437.311
  21586346.153    -7690329.92649  -5988605.85847  21586346.283    21586354.956
 03  3 18 19 27  0.0000000  0  7G30G 6G10G 4G 5G 9G24
  20707123.150   -23134531.14249 -17783598.28347  20707123.787    20707131.082
  22768825.136   -12609276.26149  -9808371.91046  22768825.330    22768835.381
  21739696.560   -19599073.41449 -15250400.65547  21739696.012    21739705.771
  24198654.759    14824946.27849  11549242.14145  24198655.049    24198666.381
  20332842.038   -20535863.96049 -16001599.54548  20332841.896    20332849.515
  24626833.794    15742092.86049  12263745.40145  24626833.968    24626847.001
  21599262.604    -7622453.75949  -5935715.39747  21599262.741    21599271.451
 03  3 18 19 27 30.0000000  0  7G30G 6G10G 4G 5G 9G24
  20697619.009   -23184475.61649 -17822516.03547  20697619.646    20697626.919
  22756478.248   -12674159.86749  -9858930.50046  22756478.458    22756488.424
  21727137.423   -19665071.83349 -15301827.96947  21727136.906    21727146.629
  24218018.065    14926700.84649  11628531.23845  24218018.395    24218029.881
  20337365.459   -20512093.28849 -15983076.96948  20337365.325    20337372.933
  24645230.968    15838769.70749  12339077.77645  24645231.121    24645244.289
  21612227.906    -7554320.42449  -5882624.52847  21612228.086    21612236.918
 03  3 18 19 28  0.0000000  0  7G30G 6G10G 4G 5G 9G24
  20688203.819   -23233952.67049 -17861069.56447  20688204.454    20688211.719
  22744143.999   -12738976.83949  -9909437.18046  22744144.227    22744154.091
  21714666.705   -19730605.77749 -15352893.35847  21714666.199    21714675.906
  24237385.969    15028479.68949  11707839.26045  24237386.157    24237397.853
  20341989.523   -20487793.66649 -15964142.22348  20341989.384    20341997.016
  24663615.325    15935379.42249  12414357.81345  24663615.554    24663628.709
  21625241.886    -7485931.59149  -5829334.59347  21625242.096    21625250.904
 03  3 18 19 28 30.0000000  0  7G30G 6G10G 4G 5G 9G24
  20678877.852   -23282960.70049 -17899257.62247  20678878.550    20678885.809
  22731822.419   -12803727.27249  -9959892.01946  22731822.657    22731832.369
  21702284.722   -19795673.00349 -15403595.06247  21702284.261    21702294.021
  24256758.080    15130280.51449  11787164.38245  24256758.325    24256770.047
  20346714.103   -20462965.80449 -15944795.86548  20346713.993    20346721.614
  24681986.273    16031918.76349  12489583.04345  24681986.506    24681999.956
  21638304.014    -7417289.96449  -5775847.66947  21638304.204    21638312.971
 03  3 18 19 29  0.0000000  0  7G30G 6G10G 4G 5G 9G24
  20669641.703   -23331497.13749 -17937078.20447  20669642.354    20669649.646
  22719513.694   -12868410.47049 -10010294.47446  22719513.878    22719523.476
  21689992.255   -19860270.26449 -15453930.56947  21689991.821    21690001.598
  24276133.781    15232101.67549  11866505.39545  24276134.093    24276145.952
  20351539.268   -20437609.53049 -15925037.75848  20351539.143    20351546.759
  24700343.682    16128385.74349  12564751.84545  24700343.726    24700357.274
  21651413.767    -7348397.46249  -5722165.25047  21651413.988    21651422.855
 03  3 18 19 29 30.0000000  0  7G30G 6G10G 4G 5G 9G24
  20660495.625   -23379560.00449 -17974529.76547  20660496.266    20660503.544
  22707217.666   -12933026.15449 -10060644.32646  22707217.900    22707227.478
  21677789.717   -19924394.93949 -15503897.82247  21677789.269    21677799.063
  24295513.490    15333941.58549  11945861.02545  24295513.993    24295525.348
  20356465.024   -20411724.89149 -15904867.93348  20356464.843    20356472.480
  24718686.648    16224777.43249  12639861.99245  24718686.629    24718700.354
  21664570.851    -7279256.79049  -5668289.45747  21664571.069    21664580.012
 03  3 18 19 30  0.0000000  0  7G30G 6G10G 4G 5G 9G24
  20651440.082   -23427147.33549 -18011610.78547  20651440.685    20651447.958
  22694934.498   -12997574.18249 -10110941.43446  22694934.714    22694944.423
  21665677.587   -19988044.59749 -15553494.92647  21665677.164    21665686.921
  24314896.590    15435798.10849  12025229.53345  24314896.986    24314908.301
  20361491.160   -20385312.48049 -15884286.86048  20361491.013    20361498.639
  24737014.554    16321091.25749  12714911.48845  24737014.631    24737028.432
  21677774.844    -7209869.86749  -5614221.77947  21677775.049    21677783.990
 03  3 18 19 30 30.0000000  0  7G30G 6G10G 4G 5G 9G24
  20642475.299   -23474257.26349 -18048319.80047  20642475.911    20642483.237
  22682664.236   -13062054.04049 -10161185.42646  22682664.478    22682674.280
  21653656.363   -20051216.34649 -15602719.62647  21653655.956    21653665.709
  24334282.533    15537669.63949  12104609.75945  24334282.786    24334293.869
  20366617.724   -20358372.53349 -15863294.71948  20366617.544    20366625.200
  24755327.251    16417324.57949  12789898.23445  24755327.443    24755341.102
  21691025.188    -7140238.77949  -5559963.84047  21691025.386    21691034.371
 03  3 18 19 31  0.0000000  0  7G30G 6G10G 4G 5G 9G24
  20633601.813   -23520887.64149 -18084655.14247  20633602.434    20633609.781
  22670407.108   -13126465.42349 -10211376.06746  22670407.344    22670417.130
  21641726.722   -20113907.48149 -15651569.82447  21641726.225    21641735.983
  24353670.606    15639554.01449  12183999.99845  24353670.974    24353681.982
  20371844.552   -20330905.44749 -15841891.81948  20371844.376    20371852.069
  24773624.284    16513474.74349  12864820.12845  24773624.406    24773638.191
  21704321.602    -7070365.77349  -5505517.39147  21704321.830    21704330.839
 03  3 18 19 31 30.0000000  0  7G30G 6G10G 4G 5G 9G24
  20624819.937   -23567036.70549 -18120615.43247  20624820.584    20624827.902
  22658163.001   -13190808.23649 -10261513.26646  22658163.230    22658173.119
  21629888.944   -20176115.75549 -15700043.75647  21629888.390    21629898.078
  24373060.564    15741449.36449  12263398.82645  24373060.972    24373072.354
  20377171.543   -20302911.82449 -15820078.63448  20377171.358    20377179.103
  24791905.027    16609539.07749  12939675.16745  24791905.121    24791918.971
  21717663.657    -7000253.44049  -5450884.45047  21717663.834    21717672.773
 03  3 18 19 32  0.0000000  0  7G30G 6G10G 4G 5G 9G24
  20616130.205   -23612701.62049 -18156198.46947  20616130.810    20616138.131
  22645932.226   -13255081.25149 -10311596.10046  22645932.468    22645942.368
  21618143.495   -20237837.47849 -15748138.56547  21618143.081    21618152.750
  24392452.507    15843354.74049  12342805.40345  24392452.945    24392464.502
  20382598.846   -20274391.05749 -15797854.68748  20382598.710    20382606.445
  24810168.928    16705515.77649  13014461.90945  24810169.186    24810182.996
  21731050.942    -6929903.04549  -5396066.00447  21731051.106    21731060.015
 03  3 18 19 32 30.0000000  0  7G30G 6G10G 4G 5G 9G24
  20607532.749   -23657881.32749 -18191403.41347  20607533.382    20607540.711
  22633714.633   -13319285.05149 -10361624.99146  22633714.885    22633724.791
  21606491.148   -20299070.80749 -15795852.80947  21606490.748    21606500.398
  24411846.280    15945267.46349  12422217.72845  24411846.660    24411858.071
  20388126.304   -20245344.29849 -15775220.87148  20388126.144    20388133.865
  24828415.770    16801401.31049  13089177.62145  24828415.985    24828429.739
  21744482.988    -6859317.61249  -5341064.40747  21744483.177    21744492.028
 03  3 18 19 33  0.0000000  0  7G30G 6G10G 4G 5G 9G24
  20599028.034   -23702573.81149 -18226228.70547  20599028.699    20599036.043
  22621510.345   -13383419.30949 -10411599.69346  22621510.584    22621520.394
  21594932.304   -20359812.96949 -15843184.29947  21594931.860    21594941.495
  24431240.831    16047185.95149  12501634.53445  24431241.164    24431252.835
  20393753.820   -20215771.77549 -15752177.37348  20393753.638    20393761.366
  24846644.448    16897193.30349  13163820.43545  24846644.675    24846658.728
  21757959.317    -6788499.44149  -5285881.46547  21757959.468    21757968.360
 03  3 18 19 33 30.0000000  0  7G30G 6G10G 4G 5G 9G24
  20590616.437   -23746777.14449 -18260672.84247  20590617.072    20590624.397
  22609319.333   -13447483.72649 -10461519.97946  22609319.524    22609329.294
  21583467.271   -20420061.62849 -15890131.25447  21583466.877    21583476.517
  24450636.052    16149108.13549  12581054.26245  24450636.356    24450648.308
  20399481.239   -20185674.19449 -15728724.73848  20399481.053    20399488.771
  24864855.107    16992889.02149  13238388.23645  24864855.328    24864869.232
  21771479.412    -6717450.90749  -5230519.00547  21771479.548    21771488.512
 03  3 18 19 34  0.0000000  0  7G30G 6G10G 4G 5G 9G24
  20582298.316   -23790488.89649 -18294733.92947  20582298.971    20582306.314
  22597141.682   -13511477.15149 -10511384.93946  22597141.914    22597151.653
  21572096.790   -20479813.64149 -15936691.21547  21572096.418    21572106.048
  24470031.745    16251032.98049  12660476.06945  24470032.129    24470044.179
  20405308.542   -20155051.41649 -15704862.85648  20405308.399    20405316.119
  24883046.929    17088486.50149  13312879.48445  24883047.225    24883061.148
  21785043.160    -6646173.23949  -5174978.00747  21785043.308    21785052.315
 03  3 18 19 34 30.0000000  0  7G30G 6G10G 4G 5G 9G24
  20574074.137   -23833707.31449 -18328410.60147  20574074.774    20574082.113
  22584977.656   -13575399.59749 -10561194.59546  22584977.865    22584987.509
  21560821.345   -20539066.52449 -15982862.24347  21560820.934    21560830.548
  24489427.664    16352958.62249  12739898.44645  24489428.091    24489440.288
  20411235.663   -20123904.01149 -15680592.17748  20411235.546    20411243.284
  24901219.467    17183982.91849  13387291.94345  24901219.844    24901233.874
  21798649.957    -6574669.09149  -5119260.53747  21798650.118    21798659.131
 03  3 18 19 35  0.0000000  0  7G30G 6G10G 4G 5G 9G24
  20565944.159   -23876430.53249 -18361701.40047  20565944.793    20565952.120
  22572827.166   -13639250.61849 -10610948.58546  22572827.318    22572836.961
  21549641.303   -20597817.83749 -16028642.43447  21549640.904    21549650.518
  24508823.609    16454883.15449  12819319.98145  24508823.894    24508836.065
  20417262.564   -20092232.54749 -15655913.14248  20417262.413    20417270.170
  24919372.217    17279375.67149  13461623.63145  24919372.537    24919386.714
  21812299.448    -6502940.76149  -5063368.36247  21812299.629    21812308.624
 03  3 18 19 35 30.0000000  0  7G30G 6G10G 4G 5G 9G24
  20557908.774   -23918656.33249 -18394604.60148  20557909.436    20557916.763
  22560690.315   -13703029.37449 -10660646.26546  22560690.559    22560700.217
  21538557.230   -20656064.82149 -16074029.63947  21538556.808    21538566.437
  24528218.854    16556805.22849  12898739.60745  24528219.057    24528231.464
  20423389.177   -20060037.16849 -15630825.86148  20423389.022    20423396.759
  24937504.987    17374662.59249  13535872.90745  24937505.244    24937519.535
  21825991.220    -6430990.00849  -5007302.89647  21825991.390    21826000.420
 03  3 18 19 36  0.0000000  0  7G30G 6G10G 4G 5G 9G24
  20549968.395   -23960383.21549 -18427119.03648  20549969.062    20549976.415
  22548567.392   -13766736.00449 -10710287.73846  22548567.562    22548577.222
  21527569.571   -20713805.09849 -16119022.01547  21527569.184    21527578.757
  24547613.216    16658722.58749  12978155.58745  24547613.372    24547626.089
  20429615.325   -20027318.64949 -15605330.94148  20429615.142    20429622.915
  24955616.846    17469841.01549  13610037.58745  24955617.077    24955631.823
  21839724.784    -6358819.68449  -4951066.32747  21839724.973    21839734.052
 03  3 18 19 36 30.0000000  0  7G30G 6G10G 4G 5G 9G24
  20542123.398   -24001609.06149 -18459243.05148  20542124.034    20542131.407
  22536458.303   -13830369.80249 -10759872.46446  22536458.434    22536468.151
  21516678.801   -20771036.05149 -16163617.50847  21516678.424    21516688.022
  24567006.060    16760633.85849  13057566.78045  24567006.315    24567019.123
  20435940.933   -19994077.27849 -15579428.60248  20435940.782    20435948.568
  24973707.815    17564908.47549  13684115.82045  24973707.791    24973722.853
  21853499.898    -6286431.22949  -4894659.78947  21853500.077    21853509.183
 03  3 18 19 37  0.0000000  0  7G30G 6G10G 4G 5G 9G24
  20534373.992   -24042332.27749 -18490975.40948  20534374.618    20534382.021
  22524363.063   -13893930.64649 -10809400.34446  22524363.188    22524372.915
  21505885.459   -20827755.24249 -16207814.23947  21505885.116    21505894.695
  24586397.617    16862537.13749  13136971.71445  24586398.020    24586410.918
  20442365.933   -19960313.93449 -15553119.53548  20442365.785    20442373.588
  24991777.175    17659862.40149  13758105.63945  24991777.273    24991791.994
  21867316.073    -6213827.08749  -4838085.17947  21867316.232    21867325.322
 03  3 18 19 37 30.0000000  0  7G30G 6G10G 4G 5G 9G24
  20526720.514   -24082551.28649 -18522314.87848  20526721.167    20526728.593
  22512281.752   -13957418.28249 -10858871.17046  22512281.891    22512291.545
  21495189.952   -20883960.60349 -16251610.57847  21495189.570    21495199.099
  24605787.523    16964430.54649  13216369.02145  24605787.857    24605800.806
  20448890.067   -19926029.45349 -15526404.38548  20448889.938    20448897.752
  25009824.526    17754699.88549  13832004.69645  25009824.649    25009839.261
  21881172.769    -6141009.83749  -4781344.50947  21881172.919    21881182.030
 03  3 18 19 38  0.0000000  0  7G30G 6G10G 4G 5G 9G24
  20519163.338   -24122264.24349 -18553260.02148  20519164.018    20519171.425
  22500214.419   -14020832.42049 -10908284.72146  22500214.576    22500224.200
  21484592.711   -20939649.76949 -16295004.70047  21484592.266    21484601.761
  24625175.217    17066312.46349  13295757.42545  24625175.575    24625188.584
  20455513.219   -19891224.54449 -15499283.70848  20455513.083    20455520.915
  25027849.037    17849418.20649  13905810.92945  25027849.240    25027863.961
  21895069.533    -6067981.80249  -4724439.60547  21895069.719    21895078.840
 03  3 18 19 38 30.0000000  0  7G30G 6G10G 4G 5G 9G24
  20511702.974   -24161468.51849 -18583808.78648  20511703.663    20511711.063
  22488161.391   -14084171.61049 -10957639.87546  22488161.510    22488171.097
  21474094.315   -20994819.26249 -16337993.87047  21474093.814    21474103.314
  24644560.047    17168181.79749  13375135.96245  24644560.476    24644573.837
  20462235.523   -19855898.90449 -15471757.27248  20462235.369    20462243.195
  25045850.689    17944016.12949  13979523.28845  25045850.799    25045865.794
  21909006.312    -5994744.06649  -4667371.28947  21909006.460    21909015.565
 03  3 18 19 39  0.0000000  0  7G30G 6G10G 4G 5G 9G24
  20504339.828   -24200162.21149 -18613959.69648  20504340.510    20504347.883
  22476122.607   -14147435.39149 -11006936.27146  22476122.764    22476132.360
  21463695.172   -21049466.86749 -16380576.38347  21463694.703    21463704.187
  24663942.230    17270037.16749  13454503.58045  24663942.757    24663956.266
  20469056.809   -19820052.92249 -15443825.37348  20469056.657    20469064.485
  25063828.740    18038491.05049  14053139.79345  25063828.911    25063844.013
  21922982.500    -5921298.90649  -4610141.34047  21922982.655    21922991.735
 03  3 18 19 39 30.0000000  0  6G30G 6G10G 4G 5G24
  20497074.069   -24238343.94749 -18643711.67348  20497074.750    20497082.132
  22464098.198   -14210623.77549 -11056173.91146  22464098.318    22464107.926
  21453395.716   -21103590.27949 -16422750.43047  21453395.354    21453404.817
  24683321.984    17371876.42549  13533858.66445  24683322.481    24683335.866
  20475976.908   -19783687.65049 -15415488.82948  20475976.766    20475984.612
  21936997.703    -5847648.56149  -4552751.52147  21936997.872    21937006.964
 03  3 18 19 40  0.0000000  0  6G30G 6G10G 4G 5G24
  20489907.480   -24276004.58249 -18673057.60648  20489908.142    20489915.508
  22452089.666   -14273728.88249 -11105346.69246  22452089.782    22452099.297
  21443197.916   -21157179.82449 -16464508.47247  21443197.563    21443207.053
  24702699.975    17473705.44249  13613205.73545  24702700.236    24702713.375
  20482997.122   -19746796.34049 -15386742.39048  20482996.986    20483004.860
  21951052.947    -5773788.01649  -4495197.90247  21951053.092    21951062.239
 03  3 18 19 40 30.0000000  0  6G30G 6G10G 4G 5G24
  20482838.075   -24313154.70849 -18702005.73148  20482838.726    20482846.070
  22440094.764   -14336762.33949 -11154463.60946  22440094.836    22440104.384
  21433099.870   -21210245.34849 -16505858.18747  21433099.494    21433108.935
  24722073.167    17575510.40149  13692534.07745  24722073.265    24722086.171
  20490114.909   -19709392.14149 -15357596.29948  20490114.769    20490122.677
  21965145.395    -5699731.84249  -4437491.84347  21965145.556    21965154.772
 03  3 18 19 41  0.0000000  0  7G30G 6G10G 4G 5G17G24
  20475866.761   -24349789.41249 -18730552.22948  20475867.402    20475874.711
  22428114.054   -14399720.85149 -11203522.14046  22428114.180    22428123.726
  21423102.537   -21262781.84449 -16546795.67647  21423102.115    21423111.574
  24741441.614    17677292.49049  13771844.63645  24741441.727    24741454.642
  20497330.676   -19671472.76749 -15328048.77148  20497330.583    20497338.492
                  -1279558.16749   -979995.38243
  21979275.327    -5625478.79149  -4379632.38647  21979275.484    21979284.698
 03  3 18 19 41 30.0000000  0  7G30G 6G10G 4G 5G17G24
  20468994.011   -24385905.71049 -18758694.77548  20468994.670    20469001.963
  22416147.967   -14462602.55949 -11252520.83346  22416148.173    22416157.679
  21413206.572   -21314785.39349 -16587317.87747  21413206.116    21413215.618
  24760805.723    17779051.64449  13851137.32244  24760806.040    24760819.107
  20504644.674   -19633037.48049 -15298099.23748  20504644.610    20504652.524
  24718858.999    -1370950.63049  -1051210.10445  24718858.860    24718874.540
  21993442.644    -5551029.62149  -4321620.09247  21993442.776    21993451.898
 03  3 18 19 42  0.0000000  0  7G30G 6G10G 4G 5G17G24
  20462220.246   -24421501.97349 -18786432.09748  20462220.929    20462228.198
  22404196.654   -14525407.09449 -11301459.38546  22404196.867    22404206.336
  21403412.430   -21366253.89149 -16627423.15147  21403411.986    21403421.424
  24780165.480    17880786.18748  13930410.79044  24780165.969    24780178.910
  20512056.712   -19594087.12549 -15267748.35148  20512056.659    20512064.578
  24701493.711    -1462204.74749  -1122317.04945  24701493.232    24701508.590
  22007646.765    -5476386.66349  -4263456.80247  22007646.893    22007656.004
 03  3 18 19 42 30.0000000  0  6G30G 6G10G 5G17G24
  20455546.106   -24456574.66149 -18813761.43748  20455546.780    20455554.042
  22392260.489   -14588132.28449 -11350336.11346  22392260.670    22392270.058
  21393720.862   -21417183.09049 -16667108.19647  21393720.416    21393729.829
  20519566.958   -19554620.60849 -15236995.25748  20519566.909    20519574.836
  24684155.518    -1553317.87649  -1193314.09745  24684155.385    24684169.560
  22021887.689    -5401550.15949  -4205142.68547  22021887.854    22021896.987
 03  3 18 19 43  0.0000000  0  6G30G 6G10G 5G17G24
  20448972.674   -24491118.49849 -18840678.69548  20448973.300    20448980.551
  22380340.210   -14650773.85549 -11399147.67746  22380340.383    22380349.753
  21384133.110   -21467567.18049 -16706368.48747  21384132.653    21384142.033
  20527175.989   -19514635.07549 -15205837.74148  20527175.942    20527183.847
  24666844.909    -1644285.42649  -1264197.74645  24666844.169    24666858.774
  22036165.708    -5326518.72849  -4146676.68347  22036165.890    22036175.007
 03  3 18 19 43 30.0000000  0  6G30G 6G10G 5G17G24
  20442498.539   -24525140.50449 -18867189.33548  20442499.172    20442506.382
  22368434.243   -14713339.97549 -11447900.46246  22368434.405    22368443.791
  21374647.776   -21517412.65749 -16745209.07847  21374647.340    21374656.678
  20534881.954   -19474139.97049 -15174283.15748  20534881.907    20534889.812
  24649560.634    -1735114.45549  -1334973.42745  24649560.034    24649574.845
  22050478.765    -5251302.97949  -4088067.05947  22050478.991    22050488.089
 03  3 18 19 44  0.0000000  0  6G30G 6G10G 5G17G24
  20436124.459   -24558636.38949 -18893290.00848  20436125.095    20436132.293
  22356543.214   -14775827.34849 -11496591.87046  22356543.407    22356552.798
  21365265.842   -21566714.53149 -16783626.08247  21365265.455    21365274.783
  20542685.295   -19433133.50149 -15142330.10648  20542685.235    20542693.147
  24632303.463    -1825801.46949  -1405638.42845  24632302.791    24632317.627
  22064826.988    -5175902.58849  -4029313.56447  22064827.188    22064836.394
 03  3 18 19 44 30.0000000  0  6G30G 6G10G 5G17G24
  20429850.829   -24591604.38549 -18918979.34248  20429851.478    20429858.653
  22344667.353   -14838235.22849 -11545221.35446  22344667.509    22344676.937
  21355987.889   -21615470.30849 -16821617.55747  21355987.507    21355996.859
  20550585.815   -19391616.30149 -15109979.08948  20550585.725    20550593.644
  24615073.404    -1916345.16249  -1476191.76545  24615072.880    24615087.680
  22079210.009    -5100319.40849  -3970417.62947  22079210.260    22079219.527
 03  3 18 19 45  0.0000000  0  6G30G 6G10G 5G17G24
  20423677.966   -24624042.80749 -18944256.01948  20423678.622    20423685.830
  22332806.628   -14900563.27649 -11593788.61546  22332806.810    22332816.283
  21346814.317   -21663677.99849 -16859181.95547  21346813.848    21346823.179
  20558583.271   -19349589.37749 -15077230.88448  20558583.189    20558591.133
  24597870.948    -2006744.45249  -1546632.56745  24597870.449    24597885.309
  22093627.493    -5024555.39949  -3911380.78547  22093627.730    22093637.025
 03  3 18 19 45 30.0000000  0  6G30G 6G10G 5G17G24
  20417606.342   -24655949.26449 -18969118.18048  20417606.995    20417614.233
  22320961.409   -14962809.99149 -11642292.50846  22320961.620    22320971.102
  21337745.571   -21711334.66549 -16896316.99247  21337745.087    21337754.391
  20566677.822   -19307052.78649 -15044085.53448  20566677.695    20566685.632
  24580696.182    -2096997.46049  -1616959.41745  24580695.928    24580710.608
  22108079.151    -4948611.57349  -3852203.82747  22108079.375    22108088.627
 03  3 18 19 46  0.0000000  0  6G30G 6G10G 5G17G24
  20411636.157   -24687322.63049 -18993564.94648  20411636.828    20411644.084
  22309131.715   -15024975.30249 -11690732.96347  22309131.939    22309141.401
  21328782.019   -21758438.57149 -16933021.30847  21328781.522    21328790.816
  20574869.020   -19264007.85949 -15010544.07848  20574868.905    20574876.868
  24563549.557    -2187103.25049  -1687171.58745  24563549.368    24563563.801
  22122564.522    -4872490.45349  -3792888.71447  22122564.727    22122574.035
 03  3 18 19 46 30.0000000  0  6G30G 6G10G 5G17G24
  20405767.737   -24718161.18149 -19017594.96848  20405768.430    20405775.689
  22297317.634   -15087058.51749 -11739109.44147  22297317.888    22297327.343
  21319924.007   -21804987.46749 -16969293.15447  21319923.514    21319932.781
  20583156.842   -19220455.13449 -14976606.93548  20583156.767    20583164.697
  24546430.888    -2277061.26049  -1757268.56245  24546430.790    24546445.340
  22137083.234    -4796194.16149  -3733437.09847  22137083.446    22137092.830
 03  3 18 19 47  0.0000000  0  6G30G 6G10G 5G17G24
  20400001.485   -24748462.91649 -19041206.69348  20400002.162    20400009.430
  22285519.412   -15149058.57149 -11787421.12147  22285519.646    22285529.073
  21311172.048   -21850978.77949 -17005130.51647  21311171.623    21311180.878
  20591541.246   -19176395.10949 -14942274.49448  20591541.143    20591549.055
  24529340.882    -2366869.68149  -1827248.96545  24529340.721    24529355.351
  22151634.976    -4719724.21349  -3673850.17147  22151635.192    22151644.606
 03  3 18 19 47 30.0000000  0  6G30G 6G10G 5G17G24
  20394337.572   -24778226.71749 -19064399.25048  20394338.294    20394345.561
  22273737.053   -15210975.15149 -11835667.74947  22273737.273    22273746.677
  21302526.637   -21896410.74449 -17040532.02847  21302526.208    21302535.492
  20600021.937   -19131829.11249 -14907547.79148  20600021.812    20600029.742
  24512279.367    -2456527.64749  -1897112.14845  24512279.312    24512293.795
  22166219.394    -4643083.23749  -3614129.98747  22166219.565    22166228.855
 03  3 18 19 48  0.0000000  0  6G30G 6G10G 5G17G24
  20388776.219   -24807451.55949 -19087171.84048  20388776.963    20388784.247
  22261970.598   -15272808.35149 -11883849.42147  22261970.788    22261980.130
  21293987.922   -21941281.83749 -17075496.49647  21293987.499    21293996.805
  20608598.634   -19086758.45649 -14872427.84748  20608598.514    20608606.460
  24495246.711    -2546034.59949  -1966857.65945  24495246.584    24495261.044
  22180835.885    -4566273.47949  -3554278.27347  22180836.047    22180845.383
 03  3 18 19 48 30.0000000  0  6G30G 6G10G 5G17G24
  20383317.870   -24836135.18749 -19109522.70548  20383318.602    20383325.905
  22250220.107   -15334557.06749 -11931965.25547  22250220.343    22250229.636
  21285556.372   -21985589.48149 -17110021.91347  21285556.016    21285565.315
  20617271.324   -19041183.69849 -14836915.08848  20617271.140    20617279.134
  24478242.911    -2635389.07349  -2036484.30445  24478242.795    24478257.217
  22195484.224    -4489296.32649  -3494296.12047  22195484.406    22195493.733
 03  3 18 19 49  0.0000000  0  6G30G 6G10G 5G17G24
  20377962.790   -24864276.23849 -19131450.78948  20377963.529    20377970.818
  22238485.891   -15396220.52149 -11980014.65047  22238486.127    22238495.402
  21277232.499   -22029331.69249 -17144106.73647  21277232.119    21277241.383
  20626039.664   -18995105.81249 -14801010.28848  20626039.530    20626047.520
  24461268.324    -2724590.08149  -2105991.41745  24461268.247    24461282.629
  22210163.922    -4412153.82549  -3434185.13647  22210164.123    22210173.539
 03  3 18 19 49 30.0000000  0  6G30G 6G10G 5G17G24
  20372711.334   -24891872.95149 -19152954.71348  20372712.065    20372719.344
  22226768.100   -15457797.88249 -12027996.95847  22226768.299    22226777.578
  21269016.611   -22072506.21949 -17177749.20947  21269016.227    21269025.526
  20634903.612   -18948525.68949 -14764714.13848  20634903.484    20634911.485
  24444323.385    -2813636.32749  -2175377.93945  24444323.247    24444337.605
  22224874.773    -4334847.87849  -3373946.79447  22224875.009    22224884.381
 03  3 18 19 50  0.0000000  0  6G30G 6G10G 5G17G24
  20367563.602   -24918924.35749 -19174033.71948  20367564.329    20367571.608
  22215066.718   -15519288.88849 -12075911.96547  22215066.909    22215076.205
  21260909.079   -22115111.54349 -17210948.13647  21260908.679    21260918.018
  20643862.849   -18901444.76949 -14728027.75248  20643862.681    20643870.710
  24427407.890    -2902527.38349  -2244643.51245  24427407.698    24427422.059
  22239616.259    -4257381.22649  -3313583.21647  22239616.514    22239625.816
 03  3 18 19 50 30.0000000  0  6G30G 6G10G 5G17G24
  20362520.021   -24945428.87649 -19194686.58248  20362520.720    20362527.970
  22203381.831   -15580692.82949 -12123759.14447  22203382.039    22203391.377
  21252910.299   -22157145.45049 -17243701.81747  21252909.887    21252919.243
  20652917.212   -18853863.74949 -14690951.68548  20652917.083    20652925.131
  24410522.246    -2991261.68349  -2313786.99145  24410521.958    24410536.261
  22254388.038    -4179755.28749  -3253095.52347  22254388.258    22254397.615
 03  3 18 19 51  0.0000000  0  6G30G 6G10G 5G17G24
  20357580.651   -24971385.32949 -19214912.38148  20357581.350    20357588.589
  22191713.723   -15642009.33849 -12171538.20047  22191713.886    22191723.192
  21245020.601   -22198606.15049 -17276008.84247  21245020.159    21245029.495
  20662066.534   -18805783.96649 -14653486.96448  20662066.399    20662074.490
  24393666.539    -3079838.11049  -2382807.42145  24393666.277    24393680.547
  22269189.743    -4101972.22749  -3192485.40047  22269189.970    22269199.304
 03  3 18 19 51 30.0000000  0  6G30G 6G10G 5G17G24
  20352745.876   -24996792.40149 -19234710.09148  20352746.567    20352753.781
  22180062.231   -15703237.95849 -12219248.75547  22180062.423    22180071.741
  21237240.374   -22239491.91549 -17307867.86747  21237239.845    21237249.164
  20671310.460   -18757206.66049 -14615634.56748  20671310.370    20671318.497
  24376840.997    -3168256.16549  -2451704.48345  24376840.784    24376855.021
  22284020.975    -4024034.12249  -3131754.46347  22284021.213    22284030.462
 03  3 18 19 52  0.0000000  0  6G30G 6G10G 5G17G24
  20348015.873   -25021648.69249 -19254078.62348  20348016.571    20348023.788
  22168427.669   -15764377.97449 -12266890.27147  22168427.837    22168437.145
  21229569.767   -22279800.95549 -17339277.49247  21229569.305    21229578.616
  20680648.991   -18708133.02249 -14577395.41848  20680648.855    20680656.956
  24360045.828    -3256515.11049  -2520477.57145  24360045.562    24360059.793
  22298881.262    -3945942.95649  -3070904.26847  22298881.456    22298890.782
 03  3 18 19 52 30.0000000  0  6G30G 6G10G 5G17G24
  20343391.155   -25045951.89349 -19273016.17448  20343391.813    20343399.025
  22156810.233   -15825427.80649 -12314461.52547  22156810.419    22156819.645
  21222009.427   -22319530.63949 -17370235.67547  21222008.979    21222018.310
  20690081.907   -18658563.15249 -14538769.59648  20690081.744    20690089.823
  24343281.126    -3344612.71949  -2589124.95345  24343281.007    24343295.127
  22313770.366    -3867699.66549  -3009935.52746  22313770.608    22313780.079
 03  3 18 19 53  0.0000000  0  6G30G 6G10G 5G17G24
  20338871.759   -25069701.82849 -19291522.61248  20338872.372    20338879.575
  22145209.870   -15886387.87349 -12361962.82247  22145210.050    22145219.303
  21214559.468   -22358680.04149 -17400741.69547  21214559.046    21214568.343
  20699608.745   -18608499.36549 -14499758.90748  20699608.589    20699616.686
  24326547.359    -3432549.11049  -2657646.71045  24326547.222    24326561.331
  22328687.975    -3789307.29449  -2948850.62346  22328688.231    22328697.743
 03  3 18 19 53 30.0000000  0  6G30G 6G10G 5G17G24
  20334457.814   -25092897.22349 -19309596.94348  20334458.407    20334465.617
  22133626.775   -15947257.38649 -12409393.57347  22133626.969    22133636.126
  21207220.376   -22397247.44849 -17430794.21447  21207219.897    21207229.251
  20709229.361   -18557942.80649 -14460364.23848  20709229.219    20709237.352
  24309844.300    -3520323.30149  -2726042.06145  24309844.096    24309858.359
  22343633.597    -3710767.77749  -2887651.05546  22343633.864    22343643.361
 03  3 18 19 54  0.0000000  0  6G30G 6G10G 5G17G24
  20330149.552   -25115537.41549 -19327238.64548  20330150.120    20330157.326
  22122060.908   -16008036.41049 -12456753.80447  22122061.066    22122070.191
  21199992.181   -22435231.71349 -17460392.32847  21199991.761    21200001.076
  20718943.447   -18506895.30349 -14420587.01448  20718943.274    20718951.386
  24293172.365    -3607935.09949  -2794310.89645  24293172.138    24293186.270
  22358606.696    -3632083.92149  -2826339.02846  22358606.908    22358616.398
 03  3 18 19 54 30.0000000  0  6G30G 6G10G 5G17G24
  20325947.281   -25137620.22049 -19344446.01948  20325947.889    20325955.087
  22110512.501   -16068723.44749 -12504042.35647  22110512.671    22110521.760
  21192875.512   -22472630.21049 -17489533.98147  21192875.038    21192884.334
  20728750.839   -18455357.26449 -14380427.55348  20728750.694    20728758.809
  24276531.527    -3695382.36949  -2862451.47645  24276531.278    24276545.447
  22373607.177    -3553256.82249  -2764915.37546  22373607.334    22373616.751
 03  3 18 19 55  0.0000000  0  6G30G 6G10G 5G17G24
  20321851.335   -25159144.51549 -19361218.18948  20321851.955    20321859.138
  22098981.704   -16129317.72249 -12551258.62947  22098981.874    22098990.957
  21185870.523   -22509441.39849 -17518218.00147  21185870.097    21185879.403
  20738651.393   -18403329.85449 -14339886.76448  20738651.210    20738659.337
  24259922.125    -3782664.45449  -2930463.36045  24259921.976    24259936.026
  22388634.489    -3474288.45749  -2703381.65246  22388634.621    22388643.962
 03  3 18 19 55 30.0000000  0  6G30G 6G10G 5G17G24
  20317861.906   -25180109.09049 -19377554.21648  20317862.506    20317869.709
  22087468.705   -16189818.70249 -12598402.20747  22087468.913    22087477.956
  21178977.663   -22545663.48149 -17546442.97247  21178977.269    21178986.569
  20748644.826   -18350814.14949 -14298965.49348  20748644.662    20748652.819
  24243344.549    -3869780.24249  -2998345.67545  24243344.372    24243358.302
  22403688.190    -3395180.79349  -2641739.35946  22403688.250    22403697.739
 03  3 18 19 56  0.0000000  0  6G30G 6G10G 5G17G24
  20313979.215   -25200512.69549 -19393453.11648  20313979.834    20313987.030
  22075973.546   -16250225.78849 -12645472.62147  22075973.781    22075982.814
  21172197.199   -22581294.96349 -17574207.74447  21172196.763    21172206.089
  20758730.946   -18297811.49349 -14257664.77648  20758730.760    20758738.947
  24226798.716    -3956729.07749  -3066097.89945  24226798.467    24226812.371
  22418768.014    -3315935.82749  -2579990.09846  22418768.110    22418777.666
 03  3 18 19 56 30.0000000  0  6G30G 6G10G 5G17G24
  20310203.501   -25220354.02049 -19408913.87648  20310204.168    20310211.356
  22064496.495   -16310538.04049 -12692469.13747  22064496.727    22064505.712
  21165529.391   -22616334.03049 -17601510.88847  21165529.029    21165538.335
  20768909.440   -18244323.29649 -14215985.71748  20768909.243    20768917.481
  24210284.711    -4043509.77849  -3133719.07745  24210284.479    24210298.401
  22433873.766    -3236555.19949  -2518135.13546  22433873.773    22433883.287
 03  3 18 19 57  0.0000000  0  6G30G 6G10G 5G17G24
  20306535.117   -25239631.88349 -19423935.57348  20306535.738    20306542.916
  22053037.617   -16370754.71749 -12739391.17847  22053037.850    22053046.848
  21158974.827   -22650779.00749 -17628351.10547  21158974.397    21158983.661
  20779180.110   -18190350.54149 -14173929.07848  20779179.963    20779188.183
  24193803.019    -4130121.25649  -3201208.41345  24193802.799    24193816.707
  22449004.816    -3157040.53849  -2456175.72346  22449004.937    22449014.542
 03  3 18 19 57 30.0000000  0  6G30G 6G10G 5G17G24
  20302974.075   -25258345.26849 -19438517.41948  20302974.703    20302981.857
  22041597.112   -16430875.25649 -12786238.31047  22041597.270    22041606.284
  21152533.553   -22684628.30749 -17654727.15547  21152533.056    21152542.307
  20789542.696   -18135894.85249 -14131496.12248  20789542.569    20789550.776
  24177353.688    -4216562.94149  -3268565.43345  24177353.507    24177367.249
  22464160.975    -3077393.86849  -2394113.45746  22464161.185    22464170.883
 03  3 18 19 58  0.0000000  0  6G30G 6G10G 5G17G24
  20299520.529   -25276493.62249 -19452658.98248  20299521.174    20299528.340
  22030174.865   -16490899.44149 -12833010.35447  22030175.027    22030184.113
  21146205.712   -22717881.23649 -17680638.49847  21146205.217    21146214.458
  20799996.805   -18080958.35849 -14088688.51748  20799996.682    20800004.945
  24160936.676    -4302834.40949  -3335789.84345  24160936.512    24160950.194
  22479342.001    -2997618.02549  -2331950.52546  22479342.205    22479351.800
 03  3 18 19 58 30.0000000  0  6G30G 6G10G 5G17G24
  20296174.791   -25294075.58649 -19466359.19648  20296175.420    20296182.637
  22018771.073   -16550826.16549 -12879706.46347  22018771.311    22018780.390
  21139991.746   -22750535.66049 -17706083.47347  21139991.279    21140000.491
  20810542.310   -18025541.62749 -14045506.70148  20810542.191    20810550.475
  24144552.131    -4388934.59449  -3402880.74745  24144551.885    24144565.664
  22494547.222    -2917714.41249  -2269688.04246  22494547.409    22494556.931
 03  3 18 19 59  0.0000000  0  6G30G 6G10G 5G17G24
  20292937.097   -25311089.44049 -19479616.73448  20292937.752    20292944.997
  22007386.196   -16610654.24249 -12926325.70147  22007386.404    22007395.483
  21133892.088   -22782589.51249 -17731060.46947  21133891.591    21133900.836
  20821178.993   -17969645.56549 -14001951.39048  20821178.888    20821187.204
  24128200.611    -4474862.03249  -3469837.06445  24128200.394    24128214.191
  22509776.361    -2837684.07749  -2207326.79446  22509776.626    22509786.168
 03  3 18 19 59 30.0000000  0  6G30G 6G10G 5G17G24
  20289807.751   -25327534.29249 -19492430.89348  20289808.408    20289815.638
  21996020.149   -16670382.95249 -12972867.50947  21996020.362    21996029.458
  21127906.892   -22814041.50549 -17755568.47647  21127906.435    21127915.642
  20831906.571   -17913271.89949 -13958023.91948  20831906.461    20831914.795
  24111882.078    -4560615.50649  -3536657.82945  24111881.972    24111895.793
  22525029.427    -2757528.98349  -2144868.34546  22525029.736    22525039.271
 03  3 18 20  0  0.0000000  0  6G30G 6G10G 5G17G24
  20286786.719   -25343409.80149 -19504801.40348  20286787.389    20286794.646
  21984672.997   -16730012.43649 -13019331.98947  21984673.197    21984682.267
  21122036.345   -22844891.09649 -17779607.07347  21122035.929    21122045.089
  20842724.640   -17856422.72349 -13913725.91048  20842724.522    20842732.864
  24095596.696    -4646195.09549  -3603343.08645  24095596.735    24095610.375
  22540305.805    -2677252.15449  -2082315.03646  22540306.011    22540315.611
 03  3 18 20  0 30.0000000  0  6G30G 6G10G 5G17G24
  20283874.282   -25358714.49549 -19516727.12848  20283874.976    20283882.270
  21973345.045   -16789541.27049 -13065718.04247  21973345.230    21973354.264
  21116280.824   -22875136.14849 -17803174.60047  21116280.423    21116289.633
  20853633.012   -17799098.76349 -13869057.94748  20853632.940    20853641.301
  24079344.574    -4731599.15049  -3669891.55345  24079344.647    24079358.376
  22555604.809    -2596854.92249  -2019667.90746  22555605.090    22555614.741
 03  3 18 20  1  0.0000000  0  6G30G 6G10G 5G17G24
  20281070.756   -25373447.01849 -19528207.00648  20281071.446    20281078.712
  21962036.413   -16848968.33849 -13112024.79147  21962036.598    21962045.598
  21110640.740   -22904774.99949 -17826269.77347  21110640.328    21110649.509
  20864631.584   -17741301.23349 -13824020.96648  20864631.476    20864639.870
  24063126.322    -4816826.84349  -3736302.60445  24063126.254    24063139.985
  22570926.600    -2516338.62749  -1956928.00846  22570926.882    22570936.440
 03  3 18 20  1 30.0000000  0  6G30G 6G10G 5G17G24
  20278376.010   -25387608.05349 -19539241.56548  20278376.712    20278383.954
  21950747.021   -16908294.44749 -13158252.86447  21950747.184    21950756.121
  21105115.975   -22933807.91349 -17848892.78247  21105115.513    21105124.655
  20875719.709   -17683033.02749 -13778617.22548  20875719.590    20875727.951
  24046941.456    -4901878.56749  -3802576.52245  24046941.339    24046955.070
  22586270.617    -2435706.66749  -1894097.98446  22586270.750    22586280.308
 03  3 18 20  2  0.0000000  0  6G30G 6G10G 5G17G24
  20275790.440   -25401195.49349 -19549829.16848  20275791.102    20275798.332
  21939477.074   -16967517.95249 -13204400.98847  21939477.266    21939486.224
  21099706.881   -22962232.42049 -17871041.70847  21099706.467    21099715.603
  20886897.265   -17624294.64449 -13732847.10248  20886897.172    20886905.511
  24030790.310    -4986753.01049  -3868712.29245  24030790.080    24030804.011
  22601636.226    -2354959.88849  -1831178.47346  22601636.373    22601646.058
 03  3 18 20  2 30.0000000  0  6G30G 6G10G 5G17G24
  20273314.185   -25414208.09549 -19559968.84548  20273314.866    20273322.085
  21928226.854   -17026637.70449 -13250468.25947  21928227.104    21928236.080
  21094413.943   -22990046.67249 -17892715.10547  21094413.601    21094422.703
  20898164.088   -17565087.30349 -13686711.56548  20898163.982    20898172.345
  24014673.104    -5071448.50849  -3934708.63845  24014672.818    24014686.769
  22617023.409    -2274099.58849  -1768170.51246  22617023.620    22617033.368
 03  3 18 20  3  0.0000000  0  6G30G 6G10G 5G17G24
  20270947.421   -25426645.53549 -19569660.34748  20270948.075    20270955.301
  21916996.548   -17085653.29049 -13296454.36447  21916996.769    21917005.717
  21089237.301   -23017250.15449 -17913912.58847  21089236.935    21089245.969
  20909519.846   -17505413.04849 -13640212.19348  20909519.691    20909528.035
  23998590.165    -5155964.61849  -4000565.24545  23998590.002    23998603.503
  22632431.839    -2193128.00549  -1705075.83546  22632432.093    22632441.732
 03  3 18 20  3 30.0000000  0  6G30G 6G10G 5G17G24
  20268690.197   -25438507.24049 -19578903.22548  20268690.867    20268698.104
  21905786.140   -17144564.27949 -13342358.96847  21905786.360    21905795.327
  21084177.067   -23043841.85649 -17934633.36647  21084176.728    21084185.701
  20920963.991   -17445273.61849 -13593350.35748  20920963.858    20920972.239
  23982541.375    -5240300.85549  -4066281.62745  23982541.222    23982554.861
  22647861.071    -2112047.32549  -1641896.15046  22647861.272    22647870.878
 03  3 18 20  4  0.0000000  0  6G30G 6G10G 5G17G24
  20266542.762   -25449792.05049 -19587696.57448  20266543.404    20266550.664
  21894595.777   -17203369.69549 -13388181.30547  21894596.017    21894604.976
  21079233.595   -23069820.25149 -17954876.22847  21079233.151    21079242.138
  20932496.504   -17384670.33749 -13546127.07648  20932496.334    20932504.738
  23966527.039    -5324456.19349  -4131857.07345  23966526.898    23966540.452
  22663310.566    -2030859.00549  -1578632.57746  22663310.896    22663320.580
 03  3 18 20  4 30.0000000  0  6G30G 6G10G 5G17G24
  20264505.309   -25460499.08249 -19596039.70448  20264505.914    20264513.181
  21883425.676   -17262068.55949 -13433920.61547  21883425.940    21883434.873
  21074406.961   -23095184.19349 -17974640.29747  21074406.522    21074415.559
  20944116.962   -17323604.60649 -13498543.44048  20944116.810    20944125.222
  23950547.275    -5408430.16749  -4197291.19345  23950547.091    23950560.427
  22678780.385    -1949565.34649  -1515286.93146  22678780.656    22678790.388
 03  3 18 20  5  0.0000000  0  6G30G 6G10G 5G17G24
  20262577.836   -25470627.79749 -19603932.20248  20262578.479    20262585.722
  21872275.984   -17320660.33349 -13479576.48447  21872276.198    21872285.163
  21069697.509   -23119932.72849 -17993924.84347  21069697.052    21069706.054
  20955825.055   -17262078.36149 -13450600.96748  20955824.904    20955833.343
  23934602.240    -5492222.11849  -4262583.46645  23934602.060    23934615.189
  22694269.897    -1868167.88349  -1451860.41046  22694270.154    22694279.909
 03  3 18 20  5 30.0000000  0  6G30G 6G10G 5G17G24
  20260760.588   -25480177.32249 -19611373.38248  20260761.267    20260768.489
  21861146.853   -17379144.05249 -13525148.15247  21861147.073    21861156.063
  21065105.275   -23144064.58849 -18012728.86247  21065104.852    21065113.919
  20967620.499   -17200093.07949 -13402300.79947  20967620.338    20967628.823
  23918692.025    -5575830.79449  -4327732.92445  23918691.815    23918704.870
  22709778.757    -1786668.29249  -1388354.29646  22709779.057    22709788.786
 03  3 18 20  6  0.0000000  0  6G30G 6G10G 5G17G24
  20259053.813   -25489146.55549 -19618362.38748  20259054.468    20259061.697
  21850038.525   -17437518.58349 -13570634.74447  21850038.733    21850047.728
  21060630.760   -23167578.56149 -18031051.40247  21060630.249    21060639.370
  20979503.006   -17137650.22049 -13353644.07947  20979502.862    20979511.368
  23902816.695    -5659255.09649  -4392738.74745  23902816.525    23902829.624
  22725306.834    -1705068.17349  -1324769.84946  22725307.057    22725316.860
 03  3 18 20  6 30.0000000  0  6G30G 6G10G 5G17G24
  20257457.673   -25497534.50149 -19624898.43948  20257458.313    20257465.512
  21838951.161   -17495782.80349 -13616035.37747  21838951.359    21838960.340
  21056274.042   -23190473.07749 -18048891.26047  21056273.575    21056282.666
  20991472.382   -17074751.04149 -13304631.78147  20991472.246    20991480.770
  23886976.662    -5742494.16349  -4457600.21245  23886976.520    23886989.511
  22740853.818    -1623368.97249  -1261108.19846  22740853.965    22740863.847
 03  3 18 20  7  0.0000000  0  6G30G 6G10G 5G17G24
  20255972.045   -25505341.29649 -19630981.64648  20255972.712    20255979.928
  21827884.759   -17553936.68649 -13661350.03847  21827884.970    21827893.938
  21052035.381   -23212747.64949 -18066248.03347  21052034.830    21052043.885
  21003528.036   -17011398.06949 -13255265.88147  21003527.950    21003536.487
  23871172.003    -5825548.07449  -4522317.40645  23871171.801    23871184.788
  22756419.080    -1541573.47549  -1197371.51646  22756419.199    22756429.117
 03  3 18 20  7 30.0000000  0  6G30G 6G10G 5G17G24
  20254597.350   -25512565.36749 -19636610.78248  20254597.994    20254605.196
  21816839.707   -17611978.66049 -13706577.48847  21816839.876    21816848.846
  21047914.840   -23234400.76149 -18083120.56247  21047914.362    21047923.410
  21015669.980   -16947592.05149 -13205546.94947  21015669.864    21015678.406
  23855402.704    -5908414.91349  -4586888.82645  23855402.619    23855415.632
  22772002.383    -1459682.12449  -1133560.14446  22772002.571    22772012.492
 03  3 18 20  8  0.0000000  0  6G30G 6G10G 5G17G24
  20253333.750   -25519205.76849 -19641785.11248  20253334.358    20253341.584
  21805816.156   -17669907.46849 -13751716.76847  21805816.367    21805825.302
  21043912.923   -23255431.06349 -18099507.78847  21043912.432    21043921.406
  21027897.869   -16883334.34049 -13155476.05547  21027897.719    21027906.319
  23839669.189    -5991094.00949  -4651313.94045  23839669.121    23839682.160
  22787603.809    -1377696.67949  -1069675.44746  22787603.940    22787613.802
 03  3 18 20  8 30.0000000  0  6G30G 6G10G 5G17G24
  20252180.922   -25525263.50149 -19646505.41848  20252181.577    20252188.824
  21794814.047   -17727723.87349 -13796768.45747  21794814.224    21794823.149
  21040029.441   -23275838.96849 -18115410.01947  21040028.911    21040037.927
  21040211.144   -16818628.00349 -13105055.58247  21040210.965    21040219.605
  23823971.572    -6073585.79249  -4715593.10545  23823971.448    23823984.283
  22803222.509    -1295620.35949  -1005719.94146  22803222.666    22803232.432
 03  3 18 20  9  0.0000000  0  6G30G 6G10G 5G17G24
  20251139.297   -25530737.23449 -19650770.65548  20251139.958    20251147.209
  21783833.571   -17785426.33449 -13841731.35447  21783833.766    21783842.693
  21036264.528   -23295623.05549 -18130826.15447  21036264.048    21036273.119
  21052609.429   -16753474.35549 -13054286.55447  21052609.302    21052617.952
  23808309.699    -6155889.18749  -4779725.46345  23808309.500    23808322.393
  22818858.243    -1213454.31149   -941694.51446  22818858.393    22818868.198
 03  3 18 20  9 30.0000000  0  6G30G 6G10G 5G17G24
  20250208.968   -25535625.94549 -19654580.03548  20250209.652    20250216.910
  21772874.997   -17843013.50049 -13886604.39447  21772875.182    21772884.194
  21032618.800   -23314781.70949 -18145754.94147  21032618.271    21032627.323
  21065092.641   -16687874.59849 -13003169.90447  21065092.560    21065101.223
  23792683.792    -6238003.23649  -4843710.29145  23792683.628    23792696.376
  22834510.852    -1131199.69349   -877600.08146  22834511.026    22834520.868
 03  3 18 20 10  0.0000000  0  6G30G 6G10G 5G17G24
  20249390.051   -25539929.24549 -19657933.25048  20249390.758    20249398.009
  21761938.560   -17900484.71949 -13931387.09647  21761938.743    21761947.716
  21029092.070   -23333314.63649 -18160196.14147  21029091.543    21029100.603
  21077660.488   -16621830.54449 -12951707.05147  21077660.369    21077669.056
  23777094.179    -6319927.06849  -4907546.88446  23777093.981    23777106.709
  22850179.951    -1048858.35549   -813438.08346  22850180.110    22850190.015
 03  3 18 20 10 30.0000000  0  6G30G 6G10G 5G17G24
  20248682.762   -25543646.31849 -19660829.66248  20248683.438    20248690.675
  21751024.450   -17957838.70349 -13976078.45647  21751024.609    21751033.501
  21025684.565   -23351220.33649 -18174148.58547  21025684.132    21025693.239
  21090312.540   -16555343.71349 -12899899.18047  21090312.430    21090321.132
  23761540.774    -6401659.74949  -4971234.51746  23761540.589    23761553.480
  22865865.062     -966431.78649   -749209.66846  22865865.301    22865875.327
 03  3 18 20 11  0.0000000  0  6G30G 6G10G 5G17G24
  20248087.106   -25546776.40749 -19663268.68448  20248087.810    20248095.042
  21740132.795   -18015074.52349 -14020677.73847  21740132.979    21740141.806
  21022396.732   -23368498.01549 -18187611.66147  21022396.298    21022405.388
  21103048.514   -16488415.89849 -12847747.68147  21103048.403    21103057.133
  23746023.955    -6483200.13149  -5034772.29545  23746023.800    23746036.738
  22881566.105     -883921.60249   -684916.09246  22881566.441    22881576.602
 03  3 18 20 11 30.0000000  0  6G30G 6G10G 5G17G24
  20247603.080   -25549319.89149 -19665250.61748  20247603.806    20247611.052
  21729263.662   -18072192.05549 -14065184.83247  21729263.834    21729272.681
  21019228.532   -23385147.50649 -18200585.23547  21019227.961    21019237.069
  21115868.011   -16421049.48249 -12795254.41147  21115867.869    21115876.556
  23730543.828    -6564548.26949  -5098160.29746  23730543.647    23730556.519
  22897282.706     -801330.21249   -620559.23846  22897283.111    22897293.265
 03  3 18 20 12  0.0000000  0  6G30G 6G10G 5G17G24
  20247230.838   -25551276.14849 -19666774.97148  20247231.563    20247238.791
  21718417.193   -18129190.22849 -14109598.92847  21718417.393    21718426.247
  21016179.917   -23401168.16049 -18213068.81947  21016179.312    21016188.359
  21128770.572   -16353246.30449 -12742420.81147  21128770.417    21128779.112
  23715100.236    -6645703.61949  -5161398.08045  23715100.098    23715112.958
  22913014.518     -718658.92949   -556140.14446  22913014.950    22913025.167
 03  3 18 20 12 30.0000000  0  6G30G 6G10G 5G17G24
  20246970.478   -25552644.50449 -19667841.22248  20246971.164    20246978.409
  21707593.741   -18186067.71749 -14153918.99547  21707593.915    21707602.747
  21013251.096   -23416558.88649 -18225061.55447  21013250.500    21013259.519
  21141755.991   -16285007.67749 -12689247.90447  21141755.817    21141764.555
  23699693.475    -6726665.33049  -5224484.96145  23699693.414    23699706.471
  22928761.450     -635909.46949   -491660.12446  22928761.719    22928771.846
 03  3 18 20 13  0.0000000  0  6G30G 6G10G 5G17G24
  20246821.927   -25553425.16749 -19668449.53448  20246822.596    20246829.850
  21696793.212   -18242824.43149 -14198144.94447  21696793.423    21696802.230
  21010442.074   -23431319.61649 -18236563.38447  21010441.594    21010450.597
  21154823.713   -16216336.39749 -12635737.86847  21154823.560    21154832.317
  23684323.835    -6807433.20549  -5287420.81446  23684323.704    23684336.760
  22944522.827     -553083.73349   -427120.65946  22944523.077    22944533.112
 03  3 18 20 13 30.0000000  0  6G30G 6G10G 5G17G24
  20246785.252   -25553617.79349 -19668599.63048  20246785.932    20246793.191
  21686015.939   -18299459.39549 -14242276.02447  21686016.114    21686024.907
  21007753.195   -23445449.67049 -18247573.76847  21007752.696    21007761.660
  21167973.422   -16147234.22949 -12581892.06847  21167973.277    21167982.049
  23668991.218    -6888006.83049  -5350205.30646  23668990.929    23669003.962
  22960298.242     -470183.84149   -362523.41746  22960298.536    22960308.520
 03  3 18 20 14  0.0000000  0  6G30G 6G10G 5G17G24
  20246860.669   -25553221.46949 -19668290.80748  20246861.339    20246868.569
  21675261.984   -18355971.17949 -14286311.12847  21675262.208    21675270.978
  21005184.563   -23458947.51649 -18258091.54047  21005184.104    21005193.058
  21181204.963   -16077702.35549 -12527711.43747  21181204.767    21181213.577
  23653695.703    -6968384.31749  -5412836.97846  23653695.487    23653708.468
  22976087.615     -387210.88349   -297869.22846  22976087.836    22976097.812
 03  3 18 20 14 30.0000000  0  6G30G 6G10G 5G17G24
  20247048.190   -25552236.13649 -19667523.01348  20247048.850    20247056.046
  21664531.730   -18412359.17349 -14330249.76947  21664531.907    21664540.640
  21002736.189   -23471813.31449 -18268116.80347  21002735.779    21002744.764
  21194517.771   -16007742.97949 -12473197.69347  21194517.631    21194526.442
  23638437.556    -7048565.69149  -5475315.85446  23638437.391    23638450.221
  22991890.429     -304166.40849   -233159.31846  22991890.765    22991900.680
 03  3 18 20 15  0.0000000  0  6G30G 6G10G 5G17G24
  20247348.021   -25550660.67949 -19666295.38348  20247348.692    20247355.828
  21653825.226   -18468621.78649 -14374090.70847  21653825.459    21653834.185
  21000408.439   -23484045.70149 -18277648.49447  21000408.020    21000417.013
  21207911.747   -15937357.34649 -12418351.79947  21207911.588    21207920.452
  23623216.842    -7128550.03549  -5537641.18046  23623216.678    23623229.542
  23007706.720     -221051.65149   -168394.63946  23007707.066    23007716.867
 03  3 18 20 15 30.0000000  0  6G30G 6G10G 5G17G24
  20247760.136   -25548495.09649 -19664607.91348  20247760.787    20247767.931
  21643142.800   -18524758.08949 -14417833.22647  21643143.014    21643151.737
  20998201.225   -23495644.36349 -18286686.37247  20998200.828    20998209.814
  21221386.487   -15866547.47949 -12363175.33647  21221386.300    21221395.181
  23608034.005    -7208336.56149  -5599812.38546  23608033.769    23608046.556
  23023535.931     -137868.27149   -103576.50846  23023536.247    23023546.285
 03  3 18 20 16  0.0000000  0  6G30G 6G10G 5G17G24
  20248284.476   -25545739.64849 -19662460.81448  20248285.134    20248292.268
  21632484.474   -18580767.78049 -14461477.10147  21632484.693    21632493.378
  20996114.610   -23506609.14249 -18295230.31347  20996114.253    20996123.218
  21234941.444   -15795315.85149 -12307670.22447  21234941.276    21234950.135
  23592888.805    -7287925.07849  -5661829.27946  23592888.583    23592901.289
  23039377.834      -54618.08649    -38706.30146  23039378.300    23039388.410
 03  3 18 20 16 30.0000000  0  6G30G 6G10G 5G17G24
  20248921.151   -25542393.79549 -19659853.65548  20248921.833    20248928.955
  21621850.531   -18636649.51549 -14505021.25947  21621850.684    21621859.344
  20994148.903   -23516939.18749 -18303279.66847  20994148.523    20994157.440
  21248576.318   -15723664.15849 -12251837.79047  21248576.167    21248585.025
  23577781.258    -7367314.42249  -5723690.99346  23577781.132    23577793.740
  23055232.340       28697.20249     26214.61546  23055232.704    23055242.878
 03  3 18 20 17  0.0000000  0  6G30G 6G10G 5G17G24
  20249670.209   -25538457.39749 -19656786.33748  20249670.895    20249678.021
  21611241.018   -18692402.32749 -14548464.96047  21611241.209    21611249.886
  20992303.989   -23526634.35149 -18310834.30347  20992303.581    20992312.524
  21262290.803   -15651594.38349 -12195679.57947  21262290.662    21262299.513
  23562711.710    -7446504.54449  -5785397.45946  23562711.684    23562724.168
  23071099.035      112075.77949     91184.84346  23071099.150    23071109.343
 03  3 18 20 17 30.0000000  0  6G30G 6G10G 5G17G24
  20250531.756   -25533930.00249 -19653258.50448  20250532.428    20250539.511
  21600656.200   -18748025.06449 -14591807.31147  21600656.487    21600665.183
  20990580.004   -23535693.71949 -18317893.51747  20990579.584    20990588.512
  21276084.483   -15579108.28549 -12139196.95947  21276084.333    21276093.174
  23547680.475    -7525494.53149  -5846947.98846  23547680.311    23547692.702
  23086977.225      195516.42149    156203.43046  23086977.427    23086987.700
 03  3 18 20 18  0.0000000  0  6G30G 6G10G 5G17G24
  20251505.747   -25528811.50749 -19649270.07048  20251506.424    20251513.512
  21590096.580   -18803516.65949 -14635047.47047  21590096.787    21590105.401
  20988977.242   -23544116.83949 -18324456.95947  20988976.754    20988985.604
  21289957.055   -15506207.91149 -12082391.53147  21289956.869    21289965.722
  23532687.346    -7604283.58749  -5908341.93346  23532687.210    23532699.526
  23102867.074      279017.76649    221269.33046  23102867.257    23102877.566
 03  3 18 20 18 30.0000000  0  6G30G 6G10G 5G17G24
  20252592.293   -25523101.66249 -19644820.84248  20252592.972    20252600.038
  21579562.046   -18858876.22049 -14678184.74847  21579562.190    21579570.768
  20987495.473   -23551903.47049 -18330524.42747  20987494.960    20987503.832
  21303907.983   -15432895.07249 -12025264.69447  21303907.871    21303916.730
  23517732.451    -7682871.12749  -5969578.86646  23517732.402    23517744.637
  23118768.246      362578.14149    286381.21446  23118768.339    23118778.729
 03  3 18 20 19  0.0000000  0  6G30G 6G10G 5G17G24
  20253791.435   -25516800.42449 -19639910.78648  20253792.091    20253799.141
  21569052.690   -18914102.78549 -14721218.39247  21569052.876    21569061.458
  20986134.797   -23559053.43749 -18336095.80047  20986134.282    20986143.214
  21317937.097   -15359171.90249 -11967818.12947  21317936.979    21317945.818
  23502815.946    -7761256.93249  -6030658.61946  23502815.999    23502828.127
  23134680.498      446196.09749    351537.97946  23134680.544    23134690.815
 03  3 18 20 19 30.0000000  0  6G30G 6G10G 5G17G24
  20255103.031   -25509907.91349 -19634539.99848  20255103.693    20255110.728
  21558568.852   -18969195.53549 -14764147.75947  21558569.043    21558577.624
  20984895.319   -23565566.34149 -18341170.76647  20984894.900    20984903.842
  21332043.892   -15285040.62049 -11910053.55547  21332043.753    21332052.594
  23487938.158    -7839440.46449  -6091580.75146  23487938.139    23487950.190
  23150602.932      529869.55049    416737.98546  23150603.021    23150613.455
 03  3 18 20 20  0.0000000  0  6G30G 6G10G 5G17G24
  20256527.259   -25502423.75249 -19628708.18848  20256527.918    20256534.947
  21548110.759   -19024153.19449 -14806971.86247  21548110.943    21548119.479
  20983777.294   -23571441.73449 -18345748.96547  20983776.804    20983785.720
  21346227.950   -15210502.93949 -11851972.29847  21346227.844    21346236.725
  23473099.046    -7917420.52549  -6152344.33646  23473098.952    23473111.020
  23166535.650      613597.49749    481980.47546  23166535.891    23166546.336
 03  3 18 20 20 30.0000000  0  6G30G 6G10G 5G17G24
  20258064.030   -25494348.07049 -19622415.44948  20258064.654    20258071.699
  21537678.462   -19078974.99549 -14849690.10047  21537678.675    21537687.181
  20982780.526   -23576679.77649 -18349830.52147  20982780.024    20982788.930
  21360488.898   -15135561.15949 -11793576.15947  21360488.831    21360497.722
  23458298.661    -7995196.80549  -6212949.12646  23458298.518    23458310.594
  23182478.873      697378.36949    547264.16946  23182478.993    23182489.353
 03  3 18 20 21  0.0000000  0  6G30G 6G10G 5G17G24
  20259713.169   -25485681.73749 -19615662.46148  20259713.802    20259720.867
  21527272.101   -19133660.63649 -14892302.23247  21527272.290    21527280.819
  20981904.818   -23581280.90149 -18353415.78347  20981904.440    20981913.314
  21374826.249   -15060218.20049 -11734867.41047  21374826.156    21374835.080
  23443536.990    -8072769.72049  -6273395.47546  23443536.857    23443548.820
  23198431.587      781209.57249    612587.10546  23198431.660    23198442.014
 03  3 18 20 21 30.0000000  0  6G30G 6G10G 5G17G24
  20261474.907   -25476423.64449 -19608448.36548  20261475.552    20261482.656
  21516892.088   -19188207.97349 -14934806.59847  21516892.255    21516900.813
  20981150.684   -23585243.75949 -18356503.69047  20981150.282    20981159.193
  21389239.800   -14984474.92349 -11675846.73047  21389239.677    21389248.601
  23428814.169    -8150137.86649  -6333682.23146  23428814.089    23428826.115
  23214393.277      865090.48249    677948.73846  23214393.579    23214404.296
 03  3 18 20 22  0.0000000  0  6G30G 6G10G 5G17G24
  20263349.223   -25466573.74749 -19600773.12248  20263349.875    20263357.029
  21506538.476   -19242615.96749 -14977202.38947  21506538.743    21506547.261
  20980518.217   -23588567.97949 -18359093.95147  20980517.670    20980526.551
  21403729.158   -14908333.31949 -11616515.66247  21403728.996    21403737.906
  23414130.532    -8227300.24049  -6393808.67646  23414130.445    23414142.501
  23230364.715      949020.01849    743348.32446  23230364.883    23230375.612
 03  3 18 20 22 30.0000000  0  6G30G 6G10G 5G17G24
  20265335.993   -25456132.83449 -19592637.34548  20265336.669    20265343.849
  21496211.544   -19296884.23349 -15019489.29447  21496211.812    21496220.289
  20980007.021   -23591254.18149 -18361187.06447  20980006.504    20980015.333
  21418293.731   -14831796.30649 -11556876.48647  21418293.574    21418302.490
  23399486.067    -8304257.40949  -6453775.22346  23399485.943    23399498.017
  23246344.976     1032995.98549    808784.04146  23246345.200    23246355.881
 03  3 18 20 23  0.0000000  0  6G30G 6G10G 5G17G24
  20267435.352   -25445100.57549 -19584040.78448  20267436.036    20267443.219
  21485911.455   -19351011.33249 -15061666.19947  21485911.713    21485920.211
  20979617.301   -23593301.67849 -18362782.49147  20979616.883    20979625.641
  21432933.190   -14754865.60549 -11496930.54247  21432933.039    21432941.952
  23384880.582    -8381008.05149  -6513580.80946  23384880.624    23384892.880
  23262333.950     1117017.35849    874255.14446  23262334.012    23262344.575
 03  3 18 20 23 30.0000000  0  6G30G 6G10G 5G17G24
  20269647.358   -25433476.62849 -19574983.16348  20269648.015    20269655.176
  21475638.567   -19404995.64049 -15103731.83947  21475638.815    21475647.294
  20979349.278   -23594710.19949 -18363879.99947  20979348.799    20979357.583
  21447647.359   -14677542.72149 -11436679.00747  21447647.183    21447656.095
  23370314.931    -8457551.26149  -6573224.77146  23370314.898    23370327.152
  23278331.140     1201083.04949    939760.80146  23278331.247    23278341.862
 03  3 18 20 24  0.0000000  0  6G30G 6G10G 5G17G24
  20271971.869   -25421261.33949 -19565464.76048  20271972.535    20271979.681
  21465392.941   -19458836.58149 -15145685.76947  21465393.217    21465401.648
  20979202.611   -23595480.16049 -18364479.94847  20979202.260    20979211.016
  21462435.530   -14599830.26649 -11376123.91547  21462435.385    21462444.325
  23355788.786    -8533886.87149  -6632706.94246  23355788.624    23355800.827
  23294336.184     1285191.13849   1005299.48046  23294336.396    23294347.128
 03  3 18 20 24 30.0000000  0  6G30G 6G10G 5G17G24
  20274408.866   -25408454.84149 -19555485.67448  20274409.548    20274416.669
  21455174.897   -19512532.93849 -15187527.03647  21455175.081    21455183.508
  20979177.729   -23595611.26949 -18364582.07947  20979177.308    20979185.988
  21477297.525   -14521730.13149 -11315266.73447  21477297.356    21477306.336
  23341302.051    -8610014.37949  -6692026.97546  23341301.963    23341314.150
  23310349.408     1369340.04449   1070869.98146  23310349.561    23310360.331
 03  3 18 20 25  0.0000000  0  6G30G 6G10G 5G17G24
  20276958.422   -25395057.21249 -19545045.96948  20276959.063    20276966.154
  21444984.455   -19566083.52049 -15229254.70947  21444984.706    21444993.149
  20979274.405   -23595103.37549 -18364186.28847  20979273.931    20979282.600
  21492232.945   -14443244.30149 -11254109.00547  21492232.767    21492241.759
  23326854.993    -8685933.31249  -6751184.47346  23326854.965    23326867.181
  23326370.090     1453528.88549   1136471.57046  23326370.289    23326380.899
 03  3 18 20 25 30.0000000  0  6G30G 6G10G 5G17G24
  20279620.310   -25381069.08849 -19534146.13748  20279620.911    20279628.014
  21434821.926   -19619487.66249 -15270868.27647  21434822.202    21434830.621
  20979492.446   -23593956.99349 -18363292.96747  20979492.030    20979500.735
  21507241.213   -14364375.45449 -11192652.82747  21507240.997    21507250.035
  23312447.790    -8761643.16149  -6810179.06746  23312447.798    23312460.033
  23342398.180     1537755.68749   1202102.74646  23342398.224    23342408.767
 03  3 18 20 26  0.0000000  0  6G30G 6G10G 5G17G24
  20282394.533   -25366490.35849 -19522786.09948  20282395.130    20282402.234
  21424687.515   -19672743.85749 -15312366.56247  21424687.807    21424696.198
  20979832.123   -23592171.90449 -18361901.95847  20979831.705    20979840.399
  21522321.990   -14285125.37949 -11130899.58547  21522321.797    21522330.891
  23298080.520    -8837143.69249  -6869010.54546  23298080.455    23298092.640
  23358432.924     1622019.44849   1267762.71346  23358433.014    23358443.635
 03  3 18 20 26 30.0000000  0  6G30G 6G10G 5G17G24
  20285281.057   -25351321.62849 -19510966.32248  20285281.632    20285288.739
  21414581.449   -19725851.34649 -15353748.97147  21414581.704    21414590.102
  20980293.317   -23589748.38249 -18360013.47047  20980292.856    20980301.513
  21537474.830   -14205496.60849 -11068851.26047  21537474.687    21537483.800
  23283753.129    -8912434.67749  -6927678.73046  23283753.003    23283765.056
  23374474.486     1706318.24449   1333449.99646  23374474.558    23374485.201
 03  3 18 20 27  0.0000000  0  6G30G 6G10G 5G17G24
  20288279.733   -25335563.13349 -19498686.98948  20288280.346    20288287.474
  21404503.935   -19778809.10949 -15395014.71347  21404504.150    21404512.553
  20980875.859   -23586686.70849 -18357627.72747  20980875.432    20980884.096
  21552699.365   -14125491.62949 -11006509.79047  21552699.187    21552708.289
  23269465.763    -8987515.39549  -6986183.07046  23269465.585    23269477.595
  23390522.637     1790650.58149   1399163.38146  23390522.718    23390533.370
 03  3 18 20 27 30.0000000  0  6G30G 6G10G 5G17G24
  20291390.643   -25319215.29349 -19485948.42748  20291391.272    20291398.374
  21394455.176   -19831615.74649 -15436162.70547  21394455.387    21394463.763
  20981579.932   -23582986.79749 -18354744.64247  20981579.465    20981588.182
  21567995.111   -14045112.18849 -10943876.53347  21567994.938    21568004.054
  23255218.457    -9062385.11049  -7044523.00446  23255218.277    23255230.221
  23406576.659     1875015.08449   1464901.88246  23406576.814    23406587.434
 03  3 18 20 28  0.0000000  0  6G30G 6G10G 5G17G24
  20294613.792   -25302277.50749 -19472750.16448  20294614.451    20294621.528
  21384435.460   -19884269.64349 -15477191.66547  21384435.633    21384443.998
  20982405.463   -23578648.44549 -18351364.07047  20982404.983    20982413.705
  21583361.897   -13964359.85849 -10880952.70447  21583361.709    21583370.764
  23241011.365    -9137042.74249  -7102697.66646  23241011.263    23241023.251
  23422636.549     1959411.32549   1530665.08946  23422636.786    23422647.518
 03  3 18 20 28 30.0000000  0  6G30G 6G10G 5G17G24
  20297949.084   -25284750.68149 -19459092.90948  20297949.722    20297956.815
  21374444.937   -19936769.98149 -15518100.97647  21374445.110    21374453.411
  20983352.406   -23573672.01849 -18347486.29547  20983351.938    20983360.638
  21598799.079   -13883237.28449 -10817740.38547  21598798.893    21598807.944
  23226844.668    -9211488.77149  -7160707.42946  23226844.570    23226856.477
  23438702.432     2043837.47849   1596451.58246  23438702.594    23438713.162
 03  3 18 20 29  0.0000000  0  6G30G 6G10G 5G17G24
  20301396.274   -25266635.75549 -19444977.39148  20301396.895    20301403.999
  21364483.722   -19989116.25349 -15558890.23847  21364483.936    21364492.218
  20984420.625   -23568058.28449 -18343111.91847  20984420.188    20984428.865
  21614306.098   -13801747.47649 -10754241.90147  21614305.927    21614314.992
  23212718.384    -9285722.79449  -7218552.00246  23212718.250    23212730.041
  23454773.706     2128291.55749   1662259.84746  23454773.857    23454784.259
 03  3 18 20 29 30.0000000  0  6G30G 6G10G 5G17G24
  20304955.363   -25247932.65749 -19430403.56948  20304955.991    20304963.133
  21354552.119   -20041306.95149 -15599558.27247  21354552.341    21354560.628
  20985610.173   -23561807.07549 -18338240.81647  20985609.725    20985618.453
  21629882.693   -13719892.17049 -10690458.62547  21629882.514    21629891.621
  23198632.369    -9359744.53749  -7276231.16046  23198632.311    23198644.027
  23470849.937     2212772.75349   1728089.24145  23470850.139    23470860.674
 03  3 18 20 30  0.0000000  0  6G30G 6G10G 5G17G24
  20308626.386   -25228641.12549 -19415371.22148  20308627.050    20308634.208
  21344650.437   -20093340.28549 -15640103.68647  21344650.706    21344658.975
  20986921.124   -23554917.78949 -18332872.51247  20986920.707    20986929.448
  21645528.501   -13637672.92949 -10626391.76047  21645528.372    21645537.520
  23184587.053    -9433552.52649  -7333743.75046  23184586.965    23184598.743
  23486931.115     2297279.98049   1793938.94746  23486931.455    23486942.072
 03  3 18 20 30 30.0000000  0  6G30G 6G10G 5G17G24
  20312409.260   -25208761.99649 -19399881.00548  20312409.921    20312417.071
  21334778.918   -20145215.41149 -15680525.81647  21334779.170    21334787.440
  20988353.364   -23547391.63749 -18327007.95047  20988352.876    20988361.587
  21661243.105   -13555092.28049 -10562043.27247  21661243.003    21661252.171
  23170582.401    -9507146.62449  -7391089.65646  23170582.309    23170594.090
  23503017.050     2381812.22149   1859808.10645  23503017.419    23503028.324
 03  3 18 20 31  0.0000000  0  6G30G 6G10G 5G17G24
  20316303.836   -25188295.82949 -19383933.35748  20316304.535    20316311.653
  21324937.708   -20196931.05649 -15720823.67847  21324937.963    21324946.210
  20989906.583   -23539228.92549 -18320647.37547  20989906.150    20989914.844
  21677026.059   -13472152.56049 -10497414.99847  21677025.977    21677035.162
  23156618.492    -9580526.61249  -7448268.73246  23156618.397    23156630.146
  23519107.668     2466367.52149   1925695.24345  23519107.970    23519118.741
 03  3 18 20 31 30.0000000  0  6G30G 6G10G 5G17G24
  20320309.930   -25167244.05749 -19367529.39048  20320310.592    20320317.653
  21315126.980   -20248486.98549 -15760997.09047  21315127.224    21315135.404
  20991580.838   -23530430.78949 -18313791.66847  20991580.371    20991589.061
  21692876.845   -13388857.03849 -10432509.47047  21692876.684    21692885.825
  23142695.503    -9653692.58449  -7505281.07746  23142695.346    23142706.938
  23535202.155     2550943.75449   1991598.65845  23535202.359    23535213.010
 03  3 18 20 32  0.0000000  0  6G30G 6G10G 5G17G24
  20324427.470   -25145606.44649 -19350668.92748  20324428.121    20324435.169
  21305346.953   -20299881.30749 -15801044.57047  21305347.185    21305355.297
  20993376.029   -23520996.94749 -18306440.59947  20993375.549    20993384.258
  21708794.907   -13305207.24049 -10367327.88847  21708794.774    21708803.899
  23128813.304    -9726643.60249  -7562125.91946  23128813.116    23128824.689
  23551300.338     2635540.32249   2057517.96645  23551300.614    23551311.345
 03  3 18 20 32 30.0000000  0  6G30G 6G10G 5G17G24
  20328656.377   -25123383.38949 -19333352.27348  20328657.034    20328664.088
  21295597.915   -20351112.84649 -15840965.20347  21295598.094    21295606.219
  20995292.116   -23510927.60649 -18298594.35147  20995291.682    20995300.317
  21724780.066   -13221205.39949 -10301871.98547  21724779.868    21724788.969
  23114972.081    -9799379.45349  -7618803.10246  23114971.859    23114983.501
  23567402.156     2720156.18449   2123452.29445  23567402.407    23567413.354
 03  3 18 20 33  0.0000000  0  6G30G 6G10G 5G17G24
  20332996.607   -25100575.29349 -19315579.74848  20332997.279    20333004.343
  21285880.080   -20402180.16049 -15880757.86347  21285880.242    21285888.422
  20997329.050   -23500223.23449 -18290253.27747  20997328.652    20997337.243
  21740831.751   -13136853.60849 -10236143.39447  21740831.525    21740840.646
  23101171.870    -9871899.46449  -7675312.09646  23101171.712    23101183.343
  23583507.551     2804790.04449   2189400.64645  23583507.856    23583518.867
 03  3 18 20 33 30.0000000  0  6G30G 6G10G 5G17G24
  20337447.845   -25077183.89149 -19297352.69648  20337448.537    20337455.608
  21276193.525   -20453083.09149 -15920422.43447  21276193.688    21276201.880
  20999486.623   -23488885.22749 -18281418.46547  20999486.178    20999494.817
  21756949.296   -13052155.46549 -10170144.92347  21756949.127    21756958.223
  23087412.657    -9944204.37149  -7731653.45946  23087412.437    23087424.116
  23599616.357     2889439.97949   2255361.51645  23599616.455    23599627.480
 03  3 18 20 34  0.0000000  0  6G30G 6G10G 5G17G24
  20342010.099   -25053209.23549 -19278671.16048  20342010.789    20342017.828
  21266538.592   -20503820.05149 -15959957.68147  21266538.752    21266546.889
  21001764.771   -23476913.70849 -18272090.01247  21001764.301    21001772.885
  21773132.449   -12967112.81849 -10103878.00447  21773132.264    21773141.360
  23073694.516   -10016293.03249  -7787826.33146  23073694.374    23073706.003
  23615727.592     2974104.81549   2321334.01445  23615727.642    23615738.623
 03  3 18 20 34 30.0000000  0  6G30G 6G10G 5G17G24
  20346683.406   -25028651.00249 -19259534.88648  20346684.064    20346691.098
  21256915.607   -20554388.66449 -15999361.74747  21256915.813    21256923.954
  21004163.616   -23464308.03849 -18262267.41847  21004163.080    21004171.659
  21789380.976   -12881726.64149 -10037343.40147  21789380.776    21789389.899
  23060017.792   -10088164.21549  -7843829.73946  23060017.702    23060029.338
  23631841.448     3058784.32649   2387317.96445  23631841.696    23631852.513
 03  3 18 20 35  0.0000000  0  6G30G 6G10G 5G17G24
  20351467.454   -25003510.60849 -19239944.98748  20351468.132    20351475.163
  21247324.725   -20604788.63349 -16038634.40247  21247324.953    21247333.110
  21006682.643   -23451069.83749 -18251951.95047  21006682.216    21006690.793
  21805694.228   -12796000.19349  -9970543.65347  21805694.052    21805703.184
  23046382.360   -10159818.82049  -7899664.38446  23046382.202    23046393.846
  23647957.992     3143476.66649   2453311.87745  23647958.208    23647969.107
 03  3 18 20 35 30.0000000  0  6G30G 6G10G 5G17G24
  20356361.998   -24977789.59849 -19219902.65548  20356362.673    20356369.768
  21237766.086   -20655019.56249 -16077775.33347  21237766.290    21237774.470
  21009321.976   -23437200.65849 -18241144.80547  21009321.449    21009330.034
  21822071.585   -12709936.68349  -9903481.26147  21822071.434    21822080.591
  23032788.155   -10231256.79049  -7955330.23446  23032787.953    23032799.557
  23664076.686     3228179.82549   2519314.22145  23664076.841    23664087.835
 03  3 18 20 36  0.0000000  0  6G30G 6G10G 5G17G24
  20361367.035   -24951487.93249 -19199407.86648  20361367.689    20361374.835
  21228240.036   -20705079.30249 -16116782.87447  21228240.205    21228248.343
  21012081.275   -23422700.20749 -18229845.76647  21012080.819    21012089.394
  21838512.844   -12623537.51549  -9836157.31947  21838512.722    21838521.899
  23019235.313   -10302477.25349  -8010826.58446  23019235.105    23019246.669
  23680197.246     3312893.40349   2585324.69745  23680197.461    23680208.512
